<?xml version="1.0" encoding="UTF-8" standalone="no" ?>
<gpx xmlns="http://www.topografix.com/GPX/1/1" xmlns:xsi="http://www.w3.org/2001/XMLSchema-instance" xsi:schemaLocation="http://www.topografix.com/GPX/1/1 http://www.topografix.com/GPX/1/1/gpx.xsd" version="1.1" creator="VisuGPX - https://www.visugpx.com">
  <metadata>
    <name>MALISSARD - LE PUY EN VELAY</name>
    <desc><![CDATA[MALISSARD - LE PUY EN VELAY ( SUNTRIP 19)]]></desc>
  </metadata>
  <trk>
    <name><![CDATA[9455183-Valence-Puy_en_Velay]]></name>
    <trkseg>
      <trkpt lat="44.9005" lon="4.94834">
        <ele>148</ele>
        <time>2019-01-18T13:05:29Z</time>
      </trkpt>
      <trkpt lat="44.90028" lon="4.94773">
        <ele>147</ele>
        <time>2019-01-18T13:06:29Z</time>
      </trkpt>
      <trkpt lat="44.90041" lon="4.94764">
        <ele>147</ele>
        <time>2019-01-18T13:07:29Z</time>
      </trkpt>
      <trkpt lat="44.90069" lon="4.9476">
        <ele>148</ele>
        <time>2019-01-18T13:08:29Z</time>
      </trkpt>
      <trkpt lat="44.90118" lon="4.94784">
        <ele>147</ele>
        <time>2019-01-18T13:09:29Z</time>
      </trkpt>
      <trkpt lat="44.9013" lon="4.94751">
        <ele>147</ele>
        <time>2019-01-18T13:10:29Z</time>
      </trkpt>
      <trkpt lat="44.90151" lon="4.94732">
        <ele>146</ele>
        <time>2019-01-18T13:11:29Z</time>
      </trkpt>
      <trkpt lat="44.90158" lon="4.94732">
        <ele>146</ele>
        <time>2019-01-18T13:12:29Z</time>
      </trkpt>
      <trkpt lat="44.90168" lon="4.94725">
        <ele>146</ele>
        <time>2019-01-18T13:13:29Z</time>
      </trkpt>
      <trkpt lat="44.90172" lon="4.94717">
        <ele>146</ele>
        <time>2019-01-18T13:14:29Z</time>
      </trkpt>
      <trkpt lat="44.90174" lon="4.9471">
        <ele>146</ele>
        <time>2019-01-18T13:15:29Z</time>
      </trkpt>
      <trkpt lat="44.90175" lon="4.94699">
        <ele>146</ele>
        <time>2019-01-18T13:16:29Z</time>
      </trkpt>
      <trkpt lat="44.90171" lon="4.94687">
        <ele>146</ele>
        <time>2019-01-18T13:17:29Z</time>
      </trkpt>
      <trkpt lat="44.90171" lon="4.94653">
        <ele>146</ele>
        <time>2019-01-18T13:18:29Z</time>
      </trkpt>
      <trkpt lat="44.90175" lon="4.94638">
        <ele>145</ele>
        <time>2019-01-18T13:19:29Z</time>
      </trkpt>
      <trkpt lat="44.90227" lon="4.94515">
        <ele>142</ele>
        <time>2019-01-18T13:20:29Z</time>
      </trkpt>
      <trkpt lat="44.90278" lon="4.944">
        <ele>142</ele>
        <time>2019-01-18T13:21:29Z</time>
      </trkpt>
      <trkpt lat="44.90316" lon="4.94307">
        <ele>143</ele>
        <time>2019-01-18T13:22:29Z</time>
      </trkpt>
      <trkpt lat="44.90332" lon="4.94272">
        <ele>144</ele>
        <time>2019-01-18T13:23:29Z</time>
      </trkpt>
      <trkpt lat="44.9037" lon="4.94196">
        <ele>144</ele>
        <time>2019-01-18T13:24:29Z</time>
      </trkpt>
      <trkpt lat="44.90401" lon="4.9412">
        <ele>144</ele>
        <time>2019-01-18T13:25:29Z</time>
      </trkpt>
      <trkpt lat="44.90426" lon="4.94047">
        <ele>144</ele>
        <time>2019-01-18T13:26:29Z</time>
      </trkpt>
      <trkpt lat="44.90447" lon="4.94005">
        <ele>144</ele>
        <time>2019-01-18T13:27:29Z</time>
      </trkpt>
      <trkpt lat="44.9047" lon="4.93974">
        <ele>143</ele>
        <time>2019-01-18T13:28:29Z</time>
      </trkpt>
      <trkpt lat="44.90575" lon="4.93897">
        <ele>143</ele>
        <time>2019-01-18T13:29:29Z</time>
      </trkpt>
      <trkpt lat="44.90639" lon="4.93832">
        <ele>144</ele>
        <time>2019-01-18T13:30:29Z</time>
      </trkpt>
      <trkpt lat="44.90692" lon="4.93757">
        <ele>146</ele>
        <time>2019-01-18T13:31:29Z</time>
      </trkpt>
      <trkpt lat="44.90742" lon="4.93669">
        <ele>147</ele>
        <time>2019-01-18T13:32:29Z</time>
      </trkpt>
      <trkpt lat="44.90778" lon="4.93583">
        <ele>148</ele>
        <time>2019-01-18T13:33:29Z</time>
      </trkpt>
      <trkpt lat="44.90834" lon="4.93369">
        <ele>148</ele>
        <time>2019-01-18T13:34:29Z</time>
      </trkpt>
      <trkpt lat="44.9095" lon="4.92896">
        <ele>147</ele>
        <time>2019-01-18T13:35:29Z</time>
      </trkpt>
      <trkpt lat="44.91033" lon="4.92665">
        <ele>147</ele>
        <time>2019-01-18T13:36:29Z</time>
      </trkpt>
      <trkpt lat="44.91189" lon="4.92165">
        <ele>148</ele>
        <time>2019-01-18T13:37:29Z</time>
      </trkpt>
      <trkpt lat="44.91203" lon="4.92139">
        <ele>147</ele>
        <time>2019-01-18T13:38:29Z</time>
      </trkpt>
      <trkpt lat="44.91208" lon="4.92137">
        <ele>147</ele>
        <time>2019-01-18T13:39:29Z</time>
      </trkpt>
      <trkpt lat="44.91214" lon="4.92128">
        <ele>147</ele>
        <time>2019-01-18T13:40:29Z</time>
      </trkpt>
      <trkpt lat="44.91214" lon="4.92116">
        <ele>147</ele>
        <time>2019-01-18T13:41:29Z</time>
      </trkpt>
      <trkpt lat="44.91211" lon="4.9211">
        <ele>147</ele>
        <time>2019-01-18T13:42:29Z</time>
      </trkpt>
      <trkpt lat="44.91214" lon="4.92085">
        <ele>147</ele>
        <time>2019-01-18T13:43:29Z</time>
      </trkpt>
      <trkpt lat="44.9132" lon="4.91802">
        <ele>146</ele>
        <time>2019-01-18T13:44:29Z</time>
      </trkpt>
      <trkpt lat="44.91332" lon="4.91761">
        <ele>146</ele>
        <time>2019-01-18T13:45:29Z</time>
      </trkpt>
      <trkpt lat="44.91338" lon="4.9173">
        <ele>147</ele>
        <time>2019-01-18T13:46:29Z</time>
      </trkpt>
      <trkpt lat="44.91339" lon="4.91709">
        <ele>147</ele>
        <time>2019-01-18T13:47:29Z</time>
      </trkpt>
      <trkpt lat="44.91336" lon="4.91685">
        <ele>148</ele>
        <time>2019-01-18T13:48:29Z</time>
      </trkpt>
      <trkpt lat="44.91349" lon="4.91674">
        <ele>148</ele>
        <time>2019-01-18T13:49:29Z</time>
      </trkpt>
      <trkpt lat="44.91357" lon="4.91661">
        <ele>148</ele>
        <time>2019-01-18T13:50:29Z</time>
      </trkpt>
      <trkpt lat="44.91378" lon="4.91567">
        <ele>148</ele>
        <time>2019-01-18T13:51:29Z</time>
      </trkpt>
      <trkpt lat="44.91387" lon="4.91505">
        <ele>148</ele>
        <time>2019-01-18T13:52:29Z</time>
      </trkpt>
      <trkpt lat="44.91406" lon="4.91395">
        <ele>148</ele>
        <time>2019-01-18T13:53:29Z</time>
      </trkpt>
      <trkpt lat="44.91389" lon="4.91343">
        <ele>149</ele>
        <time>2019-01-18T13:54:29Z</time>
      </trkpt>
      <trkpt lat="44.91441" lon="4.91305">
        <ele>149</ele>
        <time>2019-01-18T13:55:29Z</time>
      </trkpt>
      <trkpt lat="44.91459" lon="4.91298">
        <ele>148</ele>
        <time>2019-01-18T13:56:29Z</time>
      </trkpt>
      <trkpt lat="44.91463" lon="4.91302">
        <ele>148</ele>
        <time>2019-01-18T13:57:29Z</time>
      </trkpt>
      <trkpt lat="44.91471" lon="4.91303">
        <ele>148</ele>
        <time>2019-01-18T13:58:29Z</time>
      </trkpt>
      <trkpt lat="44.91473" lon="4.91302">
        <ele>148</ele>
        <time>2019-01-18T13:59:29Z</time>
      </trkpt>
      <trkpt lat="44.91477" lon="4.91296">
        <ele>148</ele>
        <time>2019-01-18T14:00:29Z</time>
      </trkpt>
      <trkpt lat="44.91478" lon="4.91286">
        <ele>148</ele>
        <time>2019-01-18T14:01:29Z</time>
      </trkpt>
      <trkpt lat="44.91496" lon="4.91262">
        <ele>146</ele>
        <time>2019-01-18T14:02:29Z</time>
      </trkpt>
      <trkpt lat="44.91512" lon="4.91248">
        <ele>146</ele>
        <time>2019-01-18T14:03:29Z</time>
      </trkpt>
      <trkpt lat="44.91547" lon="4.91211">
        <ele>146</ele>
        <time>2019-01-18T14:04:29Z</time>
      </trkpt>
      <trkpt lat="44.91655" lon="4.91072">
        <ele>148</ele>
        <time>2019-01-18T14:05:29Z</time>
      </trkpt>
      <trkpt lat="44.91698" lon="4.91013">
        <ele>148</ele>
        <time>2019-01-18T14:06:29Z</time>
      </trkpt>
      <trkpt lat="44.91705" lon="4.91006">
        <ele>148</ele>
        <time>2019-01-18T14:07:29Z</time>
      </trkpt>
      <trkpt lat="44.91709" lon="4.91006">
        <ele>148</ele>
        <time>2019-01-18T14:08:29Z</time>
      </trkpt>
      <trkpt lat="44.91715" lon="4.91001">
        <ele>147</ele>
        <time>2019-01-18T14:09:29Z</time>
      </trkpt>
      <trkpt lat="44.91717" lon="4.90996">
        <ele>147</ele>
        <time>2019-01-18T14:10:29Z</time>
      </trkpt>
      <trkpt lat="44.91718" lon="4.90987">
        <ele>148</ele>
        <time>2019-01-18T14:11:29Z</time>
      </trkpt>
      <trkpt lat="44.91766" lon="4.90924">
        <ele>148</ele>
        <time>2019-01-18T14:12:29Z</time>
      </trkpt>
      <trkpt lat="44.91807" lon="4.9088">
        <ele>148</ele>
        <time>2019-01-18T14:13:29Z</time>
      </trkpt>
      <trkpt lat="44.91915" lon="4.90789">
        <ele>141</ele>
        <time>2019-01-18T14:14:29Z</time>
      </trkpt>
      <trkpt lat="44.91927" lon="4.90782">
        <ele>140</ele>
        <time>2019-01-18T14:15:29Z</time>
      </trkpt>
      <trkpt lat="44.91939" lon="4.90779">
        <ele>138</ele>
        <time>2019-01-18T14:16:29Z</time>
      </trkpt>
      <trkpt lat="44.91972" lon="4.90785">
        <ele>137</ele>
        <time>2019-01-18T14:17:29Z</time>
      </trkpt>
      <trkpt lat="44.92075" lon="4.90824">
        <ele>134</ele>
        <time>2019-01-18T14:18:29Z</time>
      </trkpt>
      <trkpt lat="44.92094" lon="4.90828">
        <ele>133</ele>
        <time>2019-01-18T14:19:29Z</time>
      </trkpt>
      <trkpt lat="44.9211" lon="4.90829">
        <ele>132</ele>
        <time>2019-01-18T14:20:29Z</time>
      </trkpt>
      <trkpt lat="44.92124" lon="4.90818">
        <ele>131</ele>
        <time>2019-01-18T14:21:29Z</time>
      </trkpt>
      <trkpt lat="44.92135" lon="4.90804">
        <ele>130</ele>
        <time>2019-01-18T14:22:29Z</time>
      </trkpt>
      <trkpt lat="44.92284" lon="4.90589">
        <ele>126</ele>
        <time>2019-01-18T14:23:29Z</time>
      </trkpt>
      <trkpt lat="44.92395" lon="4.90426">
        <ele>125</ele>
        <time>2019-01-18T14:24:29Z</time>
      </trkpt>
      <trkpt lat="44.92417" lon="4.90396">
        <ele>126</ele>
        <time>2019-01-18T14:25:29Z</time>
      </trkpt>
      <trkpt lat="44.92436" lon="4.90365">
        <ele>126</ele>
        <time>2019-01-18T14:26:29Z</time>
      </trkpt>
      <trkpt lat="44.92441" lon="4.90366">
        <ele>126</ele>
        <time>2019-01-18T14:27:29Z</time>
      </trkpt>
      <trkpt lat="44.92449" lon="4.9036">
        <ele>126</ele>
        <time>2019-01-18T14:28:29Z</time>
      </trkpt>
      <trkpt lat="44.92452" lon="4.90353">
        <ele>126</ele>
        <time>2019-01-18T14:29:29Z</time>
      </trkpt>
      <trkpt lat="44.92452" lon="4.90347">
        <ele>126</ele>
        <time>2019-01-18T14:30:29Z</time>
      </trkpt>
      <trkpt lat="44.9245" lon="4.90341">
        <ele>126</ele>
        <time>2019-01-18T14:31:29Z</time>
      </trkpt>
      <trkpt lat="44.92446" lon="4.90336">
        <ele>127</ele>
        <time>2019-01-18T14:32:29Z</time>
      </trkpt>
      <trkpt lat="44.92448" lon="4.90328">
        <ele>127</ele>
        <time>2019-01-18T14:33:29Z</time>
      </trkpt>
      <trkpt lat="44.92583" lon="4.90039">
        <ele>127</ele>
        <time>2019-01-18T14:34:29Z</time>
      </trkpt>
      <trkpt lat="44.92793" lon="4.8962">
        <ele>126</ele>
        <time>2019-01-18T14:35:29Z</time>
      </trkpt>
      <trkpt lat="44.929" lon="4.89425">
        <ele>126</ele>
        <time>2019-01-18T14:36:29Z</time>
      </trkpt>
      <trkpt lat="44.9301" lon="4.89471">
        <ele>130</ele>
        <time>2019-01-18T14:37:29Z</time>
      </trkpt>
      <trkpt lat="44.93024" lon="4.89472">
        <ele>130</ele>
        <time>2019-01-18T14:38:29Z</time>
      </trkpt>
      <trkpt lat="44.93031" lon="4.89454">
        <ele>131</ele>
        <time>2019-01-18T14:39:29Z</time>
      </trkpt>
      <trkpt lat="44.93039" lon="4.8922">
        <ele>129</ele>
        <time>2019-01-18T14:40:29Z</time>
      </trkpt>
      <trkpt lat="44.93047" lon="4.88907">
        <ele>124</ele>
        <time>2019-01-18T14:41:29Z</time>
      </trkpt>
      <trkpt lat="44.93055" lon="4.8885">
        <ele>122</ele>
        <time>2019-01-18T14:42:29Z</time>
      </trkpt>
      <trkpt lat="44.93105" lon="4.88623">
        <ele>114</ele>
        <time>2019-01-18T14:43:29Z</time>
      </trkpt>
      <trkpt lat="44.93111" lon="4.88588">
        <ele>113</ele>
        <time>2019-01-18T14:44:29Z</time>
      </trkpt>
      <trkpt lat="44.93116" lon="4.88568">
        <ele>112</ele>
        <time>2019-01-18T14:45:29Z</time>
      </trkpt>
      <trkpt lat="44.93136" lon="4.88502">
        <ele>109</ele>
        <time>2019-01-18T14:46:29Z</time>
      </trkpt>
      <trkpt lat="44.93267" lon="4.88105">
        <ele>111</ele>
        <time>2019-01-18T14:47:29Z</time>
      </trkpt>
      <trkpt lat="44.93274" lon="4.8808">
        <ele>111</ele>
        <time>2019-01-18T14:48:29Z</time>
      </trkpt>
      <trkpt lat="44.93289" lon="4.88002">
        <ele>110</ele>
        <time>2019-01-18T14:49:29Z</time>
      </trkpt>
      <trkpt lat="44.93298" lon="4.87981">
        <ele>111</ele>
        <time>2019-01-18T14:50:29Z</time>
      </trkpt>
      <trkpt lat="44.93308" lon="4.87968">
        <ele>111</ele>
        <time>2019-01-18T14:51:29Z</time>
      </trkpt>
      <trkpt lat="44.93328" lon="4.87932">
        <ele>111</ele>
        <time>2019-01-18T14:52:29Z</time>
      </trkpt>
      <trkpt lat="44.93417" lon="4.87757">
        <ele>111</ele>
        <time>2019-01-18T14:53:29Z</time>
      </trkpt>
      <trkpt lat="44.9342" lon="4.87756">
        <ele>111</ele>
        <time>2019-01-18T14:54:29Z</time>
      </trkpt>
      <trkpt lat="44.93498" lon="4.87605">
        <ele>112</ele>
        <time>2019-01-18T14:55:29Z</time>
      </trkpt>
      <trkpt lat="44.9359" lon="4.87394">
        <ele>116</ele>
        <time>2019-01-18T14:56:29Z</time>
      </trkpt>
      <trkpt lat="44.93593" lon="4.87388">
        <ele>116</ele>
        <time>2019-01-18T14:57:29Z</time>
      </trkpt>
      <trkpt lat="44.93601" lon="4.87381">
        <ele>116</ele>
        <time>2019-01-18T14:58:29Z</time>
      </trkpt>
      <trkpt lat="44.93634" lon="4.87296">
        <ele>115</ele>
        <time>2019-01-18T14:59:29Z</time>
      </trkpt>
      <trkpt lat="44.93814" lon="4.86905">
        <ele>117</ele>
        <time>2019-01-18T15:00:29Z</time>
      </trkpt>
      <trkpt lat="44.93828" lon="4.8688">
        <ele>118</ele>
        <time>2019-01-18T15:01:29Z</time>
      </trkpt>
      <trkpt lat="44.93831" lon="4.86857">
        <ele>118</ele>
        <time>2019-01-18T15:02:29Z</time>
      </trkpt>
      <trkpt lat="44.93837" lon="4.86854">
        <ele>118</ele>
        <time>2019-01-18T15:03:29Z</time>
      </trkpt>
      <trkpt lat="44.93841" lon="4.86847">
        <ele>119</ele>
        <time>2019-01-18T15:04:29Z</time>
      </trkpt>
      <trkpt lat="44.93843" lon="4.86839">
        <ele>119</ele>
        <time>2019-01-18T15:05:29Z</time>
      </trkpt>
      <trkpt lat="44.93843" lon="4.8683">
        <ele>119</ele>
        <time>2019-01-18T15:06:29Z</time>
      </trkpt>
      <trkpt lat="44.93859" lon="4.86812">
        <ele>118</ele>
        <time>2019-01-18T15:07:29Z</time>
      </trkpt>
      <trkpt lat="44.93868" lon="4.86783">
        <ele>118</ele>
        <time>2019-01-18T15:08:29Z</time>
      </trkpt>
      <trkpt lat="44.93901" lon="4.86709">
        <ele>117</ele>
        <time>2019-01-18T15:09:29Z</time>
      </trkpt>
      <trkpt lat="44.93926" lon="4.86664">
        <ele>117</ele>
        <time>2019-01-18T15:10:29Z</time>
      </trkpt>
      <trkpt lat="44.93945" lon="4.86623">
        <ele>117</ele>
        <time>2019-01-18T15:11:29Z</time>
      </trkpt>
      <trkpt lat="44.93954" lon="4.86598">
        <ele>117</ele>
        <time>2019-01-18T15:12:29Z</time>
      </trkpt>
      <trkpt lat="44.93963" lon="4.86586">
        <ele>117</ele>
        <time>2019-01-18T15:13:29Z</time>
      </trkpt>
      <trkpt lat="44.93967" lon="4.86583">
        <ele>117</ele>
        <time>2019-01-18T15:14:29Z</time>
      </trkpt>
      <trkpt lat="44.93975" lon="4.86582">
        <ele>117</ele>
        <time>2019-01-18T15:15:29Z</time>
      </trkpt>
      <trkpt lat="44.93983" lon="4.86579">
        <ele>117</ele>
        <time>2019-01-18T15:16:29Z</time>
      </trkpt>
      <trkpt lat="44.93989" lon="4.86572">
        <ele>117</ele>
        <time>2019-01-18T15:17:29Z</time>
      </trkpt>
      <trkpt lat="44.93994" lon="4.86563">
        <ele>117</ele>
        <time>2019-01-18T15:18:29Z</time>
      </trkpt>
      <trkpt lat="44.93996" lon="4.86552">
        <ele>118</ele>
        <time>2019-01-18T15:19:29Z</time>
      </trkpt>
      <trkpt lat="44.93996" lon="4.86541">
        <ele>118</ele>
        <time>2019-01-18T15:20:29Z</time>
      </trkpt>
      <trkpt lat="44.93991" lon="4.86524">
        <ele>118</ele>
        <time>2019-01-18T15:21:29Z</time>
      </trkpt>
      <trkpt lat="44.93991" lon="4.8651">
        <ele>119</ele>
        <time>2019-01-18T15:22:29Z</time>
      </trkpt>
      <trkpt lat="44.94005" lon="4.86463">
        <ele>118</ele>
        <time>2019-01-18T15:23:29Z</time>
      </trkpt>
      <trkpt lat="44.94064" lon="4.86323">
        <ele>118</ele>
        <time>2019-01-18T15:24:29Z</time>
      </trkpt>
      <trkpt lat="44.94113" lon="4.86232">
        <ele>119</ele>
        <time>2019-01-18T15:25:29Z</time>
      </trkpt>
      <trkpt lat="44.9432" lon="4.85869">
        <ele>120</ele>
        <time>2019-01-18T15:26:29Z</time>
      </trkpt>
      <trkpt lat="44.94346" lon="4.85831">
        <ele>120</ele>
        <time>2019-01-18T15:27:29Z</time>
      </trkpt>
      <trkpt lat="44.94354" lon="4.85824">
        <ele>120</ele>
        <time>2019-01-18T15:28:29Z</time>
      </trkpt>
      <trkpt lat="44.94363" lon="4.8582">
        <ele>120</ele>
        <time>2019-01-18T15:29:29Z</time>
      </trkpt>
      <trkpt lat="44.94371" lon="4.85813">
        <ele>120</ele>
        <time>2019-01-18T15:30:29Z</time>
      </trkpt>
      <trkpt lat="44.94376" lon="4.85802">
        <ele>120</ele>
        <time>2019-01-18T15:31:29Z</time>
      </trkpt>
      <trkpt lat="44.94377" lon="4.85791">
        <ele>120</ele>
        <time>2019-01-18T15:32:29Z</time>
      </trkpt>
      <trkpt lat="44.94377" lon="4.8578">
        <ele>120</ele>
        <time>2019-01-18T15:33:29Z</time>
      </trkpt>
      <trkpt lat="44.9438" lon="4.85769">
        <ele>119</ele>
        <time>2019-01-18T15:34:29Z</time>
      </trkpt>
      <trkpt lat="44.94423" lon="4.8569">
        <ele>119</ele>
        <time>2019-01-18T15:35:29Z</time>
      </trkpt>
      <trkpt lat="44.94479" lon="4.85593">
        <ele>121</ele>
        <time>2019-01-18T15:36:29Z</time>
      </trkpt>
      <trkpt lat="44.94486" lon="4.85597">
        <ele>121</ele>
        <time>2019-01-18T15:37:29Z</time>
      </trkpt>
      <trkpt lat="44.94492" lon="4.85597">
        <ele>122</ele>
        <time>2019-01-18T15:38:29Z</time>
      </trkpt>
      <trkpt lat="44.94503" lon="4.8559">
        <ele>122</ele>
        <time>2019-01-18T15:39:29Z</time>
      </trkpt>
      <trkpt lat="44.94507" lon="4.85584">
        <ele>122</ele>
        <time>2019-01-18T15:40:29Z</time>
      </trkpt>
      <trkpt lat="44.94509" lon="4.85567">
        <ele>122</ele>
        <time>2019-01-18T15:41:29Z</time>
      </trkpt>
      <trkpt lat="44.94505" lon="4.85552">
        <ele>122</ele>
        <time>2019-01-18T15:42:29Z</time>
      </trkpt>
      <trkpt lat="44.94501" lon="4.85546">
        <ele>122</ele>
        <time>2019-01-18T15:43:29Z</time>
      </trkpt>
      <trkpt lat="44.94516" lon="4.85519">
        <ele>122</ele>
        <time>2019-01-18T15:44:29Z</time>
      </trkpt>
      <trkpt lat="44.94535" lon="4.85466">
        <ele>123</ele>
        <time>2019-01-18T15:45:29Z</time>
      </trkpt>
      <trkpt lat="44.9454" lon="4.8545">
        <ele>123</ele>
        <time>2019-01-18T15:46:29Z</time>
      </trkpt>
      <trkpt lat="44.94544" lon="4.85416">
        <ele>124</ele>
        <time>2019-01-18T15:47:29Z</time>
      </trkpt>
      <trkpt lat="44.94544" lon="4.85402">
        <ele>124</ele>
        <time>2019-01-18T15:48:29Z</time>
      </trkpt>
      <trkpt lat="44.94533" lon="4.85297">
        <ele>125</ele>
        <time>2019-01-18T15:49:29Z</time>
      </trkpt>
      <trkpt lat="44.94535" lon="4.85266">
        <ele>126</ele>
        <time>2019-01-18T15:50:29Z</time>
      </trkpt>
      <trkpt lat="44.9454" lon="4.85257">
        <ele>126</ele>
        <time>2019-01-18T15:51:29Z</time>
      </trkpt>
      <trkpt lat="44.94554" lon="4.85244">
        <ele>127</ele>
        <time>2019-01-18T15:52:29Z</time>
      </trkpt>
      <trkpt lat="44.94568" lon="4.85237">
        <ele>127</ele>
        <time>2019-01-18T15:53:29Z</time>
      </trkpt>
      <trkpt lat="44.94589" lon="4.85218">
        <ele>129</ele>
        <time>2019-01-18T15:54:29Z</time>
      </trkpt>
      <trkpt lat="44.94596" lon="4.85208">
        <ele>129</ele>
        <time>2019-01-18T15:55:29Z</time>
      </trkpt>
      <trkpt lat="44.94631" lon="4.85171">
        <ele>130</ele>
        <time>2019-01-18T15:56:29Z</time>
      </trkpt>
      <trkpt lat="44.94643" lon="4.85156">
        <ele>130</ele>
        <time>2019-01-18T15:57:29Z</time>
      </trkpt>
      <trkpt lat="44.94656" lon="4.85147">
        <ele>130</ele>
        <time>2019-01-18T15:58:29Z</time>
      </trkpt>
      <trkpt lat="44.94715" lon="4.85081">
        <ele>129</ele>
        <time>2019-01-18T15:59:29Z</time>
      </trkpt>
      <trkpt lat="44.94702" lon="4.85049">
        <ele>128</ele>
        <time>2019-01-18T16:00:29Z</time>
      </trkpt>
      <trkpt lat="44.94609" lon="4.84759">
        <ele>129</ele>
        <time>2019-01-18T16:01:29Z</time>
      </trkpt>
      <trkpt lat="44.94601" lon="4.84747">
        <ele>129</ele>
        <time>2019-01-18T16:02:29Z</time>
      </trkpt>
      <trkpt lat="44.94602" lon="4.84733">
        <ele>129</ele>
        <time>2019-01-18T16:03:29Z</time>
      </trkpt>
      <trkpt lat="44.94601" lon="4.84719">
        <ele>130</ele>
        <time>2019-01-18T16:04:29Z</time>
      </trkpt>
      <trkpt lat="44.94594" lon="4.84709">
        <ele>130</ele>
        <time>2019-01-18T16:05:29Z</time>
      </trkpt>
      <trkpt lat="44.94584" lon="4.84708">
        <ele>131</ele>
        <time>2019-01-18T16:06:29Z</time>
      </trkpt>
      <trkpt lat="44.94581" lon="4.84694">
        <ele>131</ele>
        <time>2019-01-18T16:07:29Z</time>
      </trkpt>
      <trkpt lat="44.94581" lon="4.84686">
        <ele>131</ele>
        <time>2019-01-18T16:08:29Z</time>
      </trkpt>
      <trkpt lat="44.94595" lon="4.84649">
        <ele>132</ele>
        <time>2019-01-18T16:09:29Z</time>
      </trkpt>
      <trkpt lat="44.94598" lon="4.84394">
        <ele>134</ele>
        <time>2019-01-18T16:10:29Z</time>
      </trkpt>
      <trkpt lat="44.94581" lon="4.84358">
        <ele>134</ele>
        <time>2019-01-18T16:11:29Z</time>
      </trkpt>
      <trkpt lat="44.94496" lon="4.84228">
        <ele>134</ele>
        <time>2019-01-18T16:12:29Z</time>
      </trkpt>
      <trkpt lat="44.94477" lon="4.84212">
        <ele>134</ele>
        <time>2019-01-18T16:13:29Z</time>
      </trkpt>
      <trkpt lat="44.94447" lon="4.84194">
        <ele>136</ele>
        <time>2019-01-18T16:14:29Z</time>
      </trkpt>
      <trkpt lat="44.94414" lon="4.84187">
        <ele>136</ele>
        <time>2019-01-18T16:15:29Z</time>
      </trkpt>
      <trkpt lat="44.94381" lon="4.84154">
        <ele>137</ele>
        <time>2019-01-18T16:16:29Z</time>
      </trkpt>
      <trkpt lat="44.94367" lon="4.84127">
        <ele>137</ele>
        <time>2019-01-18T16:17:29Z</time>
      </trkpt>
      <trkpt lat="44.94284" lon="4.84051">
        <ele>141</ele>
        <time>2019-01-18T16:18:29Z</time>
      </trkpt>
      <trkpt lat="44.9425" lon="4.84012">
        <ele>142</ele>
        <time>2019-01-18T16:19:29Z</time>
      </trkpt>
      <trkpt lat="44.94222" lon="4.83977">
        <ele>143</ele>
        <time>2019-01-18T16:20:29Z</time>
      </trkpt>
      <trkpt lat="44.94201" lon="4.83943">
        <ele>145</ele>
        <time>2019-01-18T16:21:29Z</time>
      </trkpt>
      <trkpt lat="44.94181" lon="4.83916">
        <ele>145</ele>
        <time>2019-01-18T16:22:29Z</time>
      </trkpt>
      <trkpt lat="44.94137" lon="4.83879">
        <ele>146</ele>
        <time>2019-01-18T16:23:29Z</time>
      </trkpt>
      <trkpt lat="44.94095" lon="4.83824">
        <ele>148</ele>
        <time>2019-01-18T16:24:29Z</time>
      </trkpt>
      <trkpt lat="44.94069" lon="4.83773">
        <ele>150</ele>
        <time>2019-01-18T16:25:29Z</time>
      </trkpt>
      <trkpt lat="44.94058" lon="4.83768">
        <ele>149</ele>
        <time>2019-01-18T16:26:29Z</time>
      </trkpt>
      <trkpt lat="44.94051" lon="4.83741">
        <ele>151</ele>
        <time>2019-01-18T16:27:29Z</time>
      </trkpt>
      <trkpt lat="44.94036" lon="4.83706">
        <ele>153</ele>
        <time>2019-01-18T16:28:29Z</time>
      </trkpt>
      <trkpt lat="44.94023" lon="4.83671">
        <ele>154</ele>
        <time>2019-01-18T16:29:29Z</time>
      </trkpt>
      <trkpt lat="44.94016" lon="4.83646">
        <ele>155</ele>
        <time>2019-01-18T16:30:29Z</time>
      </trkpt>
      <trkpt lat="44.94012" lon="4.83614">
        <ele>156</ele>
        <time>2019-01-18T16:31:29Z</time>
      </trkpt>
      <trkpt lat="44.94013" lon="4.83583">
        <ele>157</ele>
        <time>2019-01-18T16:32:29Z</time>
      </trkpt>
      <trkpt lat="44.94017" lon="4.83547">
        <ele>158</ele>
        <time>2019-01-18T16:33:29Z</time>
      </trkpt>
      <trkpt lat="44.94035" lon="4.83458">
        <ele>161</ele>
        <time>2019-01-18T16:34:29Z</time>
      </trkpt>
      <trkpt lat="44.94054" lon="4.83347">
        <ele>166</ele>
        <time>2019-01-18T16:35:29Z</time>
      </trkpt>
      <trkpt lat="44.94054" lon="4.83331">
        <ele>167</ele>
        <time>2019-01-18T16:36:29Z</time>
      </trkpt>
      <trkpt lat="44.94052" lon="4.83316">
        <ele>167</ele>
        <time>2019-01-18T16:37:29Z</time>
      </trkpt>
      <trkpt lat="44.94047" lon="4.833">
        <ele>167</ele>
        <time>2019-01-18T16:38:29Z</time>
      </trkpt>
      <trkpt lat="44.94042" lon="4.83287">
        <ele>168</ele>
        <time>2019-01-18T16:39:29Z</time>
      </trkpt>
      <trkpt lat="44.94033" lon="4.83274">
        <ele>169</ele>
        <time>2019-01-18T16:40:29Z</time>
      </trkpt>
      <trkpt lat="44.94021" lon="4.83261">
        <ele>170</ele>
        <time>2019-01-18T16:41:29Z</time>
      </trkpt>
      <trkpt lat="44.93977" lon="4.83229">
        <ele>174</ele>
        <time>2019-01-18T16:42:29Z</time>
      </trkpt>
      <trkpt lat="44.93926" lon="4.83205">
        <ele>180</ele>
        <time>2019-01-18T16:43:29Z</time>
      </trkpt>
      <trkpt lat="44.9391" lon="4.83194">
        <ele>184</ele>
        <time>2019-01-18T16:44:29Z</time>
      </trkpt>
      <trkpt lat="44.93896" lon="4.83176">
        <ele>188</ele>
        <time>2019-01-18T16:45:29Z</time>
      </trkpt>
      <trkpt lat="44.93876" lon="4.8313">
        <ele>193</ele>
        <time>2019-01-18T16:46:29Z</time>
      </trkpt>
      <trkpt lat="44.93837" lon="4.83062">
        <ele>196</ele>
        <time>2019-01-18T16:47:29Z</time>
      </trkpt>
      <trkpt lat="44.93782" lon="4.82976">
        <ele>198</ele>
        <time>2019-01-18T16:48:29Z</time>
      </trkpt>
      <trkpt lat="44.93728" lon="4.82876">
        <ele>197</ele>
        <time>2019-01-18T16:49:29Z</time>
      </trkpt>
      <trkpt lat="44.93717" lon="4.82859">
        <ele>198</ele>
        <time>2019-01-18T16:50:29Z</time>
      </trkpt>
      <trkpt lat="44.93703" lon="4.82844">
        <ele>199</ele>
        <time>2019-01-18T16:51:29Z</time>
      </trkpt>
      <trkpt lat="44.9369" lon="4.82835">
        <ele>198</ele>
        <time>2019-01-18T16:52:29Z</time>
      </trkpt>
      <trkpt lat="44.93673" lon="4.82829">
        <ele>197</ele>
        <time>2019-01-18T16:53:29Z</time>
      </trkpt>
      <trkpt lat="44.93644" lon="4.82822">
        <ele>194</ele>
        <time>2019-01-18T16:54:29Z</time>
      </trkpt>
      <trkpt lat="44.93631" lon="4.82814">
        <ele>193</ele>
        <time>2019-01-18T16:55:29Z</time>
      </trkpt>
      <trkpt lat="44.9362" lon="4.82799">
        <ele>193</ele>
        <time>2019-01-18T16:56:29Z</time>
      </trkpt>
      <trkpt lat="44.9361" lon="4.82778">
        <ele>195</ele>
        <time>2019-01-18T16:57:29Z</time>
      </trkpt>
      <trkpt lat="44.93603" lon="4.82759">
        <ele>196</ele>
        <time>2019-01-18T16:58:29Z</time>
      </trkpt>
      <trkpt lat="44.93601" lon="4.82745">
        <ele>197</ele>
        <time>2019-01-18T16:59:29Z</time>
      </trkpt>
      <trkpt lat="44.93601" lon="4.82729">
        <ele>198</ele>
        <time>2019-01-18T17:00:29Z</time>
      </trkpt>
      <trkpt lat="44.93603" lon="4.82715">
        <ele>199</ele>
        <time>2019-01-18T17:01:29Z</time>
      </trkpt>
      <trkpt lat="44.93621" lon="4.82679">
        <ele>206</ele>
        <time>2019-01-18T17:02:29Z</time>
      </trkpt>
      <trkpt lat="44.93625" lon="4.82665">
        <ele>208</ele>
        <time>2019-01-18T17:03:29Z</time>
      </trkpt>
      <trkpt lat="44.93629" lon="4.8261">
        <ele>213</ele>
        <time>2019-01-18T17:04:29Z</time>
      </trkpt>
      <trkpt lat="44.93625" lon="4.82583">
        <ele>215</ele>
        <time>2019-01-18T17:05:29Z</time>
      </trkpt>
      <trkpt lat="44.93616" lon="4.82567">
        <ele>216</ele>
        <time>2019-01-18T17:06:29Z</time>
      </trkpt>
      <trkpt lat="44.93608" lon="4.82561">
        <ele>216</ele>
        <time>2019-01-18T17:07:29Z</time>
      </trkpt>
      <trkpt lat="44.93587" lon="4.82553">
        <ele>214</ele>
        <time>2019-01-18T17:08:29Z</time>
      </trkpt>
      <trkpt lat="44.93579" lon="4.82548">
        <ele>213</ele>
        <time>2019-01-18T17:09:29Z</time>
      </trkpt>
      <trkpt lat="44.93572" lon="4.82536">
        <ele>213</ele>
        <time>2019-01-18T17:10:29Z</time>
      </trkpt>
      <trkpt lat="44.93569" lon="4.82523">
        <ele>214</ele>
        <time>2019-01-18T17:11:29Z</time>
      </trkpt>
      <trkpt lat="44.93571" lon="4.82472">
        <ele>221</ele>
        <time>2019-01-18T17:12:29Z</time>
      </trkpt>
      <trkpt lat="44.9357" lon="4.82459">
        <ele>223</ele>
        <time>2019-01-18T17:13:29Z</time>
      </trkpt>
      <trkpt lat="44.93566" lon="4.82445">
        <ele>223</ele>
        <time>2019-01-18T17:14:29Z</time>
      </trkpt>
      <trkpt lat="44.93559" lon="4.82429">
        <ele>223</ele>
        <time>2019-01-18T17:15:29Z</time>
      </trkpt>
      <trkpt lat="44.93492" lon="4.82328">
        <ele>224</ele>
        <time>2019-01-18T17:16:29Z</time>
      </trkpt>
      <trkpt lat="44.93487" lon="4.82317">
        <ele>223</ele>
        <time>2019-01-18T17:17:29Z</time>
      </trkpt>
      <trkpt lat="44.93485" lon="4.82305">
        <ele>224</ele>
        <time>2019-01-18T17:18:29Z</time>
      </trkpt>
      <trkpt lat="44.93491" lon="4.82189">
        <ele>229</ele>
        <time>2019-01-18T17:19:29Z</time>
      </trkpt>
      <trkpt lat="44.93495" lon="4.82178">
        <ele>230</ele>
        <time>2019-01-18T17:20:29Z</time>
      </trkpt>
      <trkpt lat="44.93502" lon="4.82169">
        <ele>232</ele>
        <time>2019-01-18T17:21:29Z</time>
      </trkpt>
      <trkpt lat="44.9353" lon="4.82156">
        <ele>238</ele>
        <time>2019-01-18T17:22:29Z</time>
      </trkpt>
      <trkpt lat="44.93543" lon="4.82146">
        <ele>240</ele>
        <time>2019-01-18T17:23:29Z</time>
      </trkpt>
      <trkpt lat="44.93553" lon="4.82136">
        <ele>242</ele>
        <time>2019-01-18T17:24:29Z</time>
      </trkpt>
      <trkpt lat="44.93563" lon="4.82123">
        <ele>243</ele>
        <time>2019-01-18T17:25:29Z</time>
      </trkpt>
      <trkpt lat="44.93569" lon="4.82111">
        <ele>244</ele>
        <time>2019-01-18T17:26:29Z</time>
      </trkpt>
      <trkpt lat="44.93575" lon="4.82093">
        <ele>243</ele>
        <time>2019-01-18T17:27:29Z</time>
      </trkpt>
      <trkpt lat="44.93594" lon="4.82013">
        <ele>248</ele>
        <time>2019-01-18T17:28:29Z</time>
      </trkpt>
      <trkpt lat="44.93595" lon="4.82">
        <ele>248</ele>
        <time>2019-01-18T17:29:29Z</time>
      </trkpt>
      <trkpt lat="44.93593" lon="4.81983">
        <ele>248</ele>
        <time>2019-01-18T17:30:29Z</time>
      </trkpt>
      <trkpt lat="44.93583" lon="4.81967">
        <ele>248</ele>
        <time>2019-01-18T17:31:29Z</time>
      </trkpt>
      <trkpt lat="44.93566" lon="4.8196">
        <ele>250</ele>
        <time>2019-01-18T17:32:29Z</time>
      </trkpt>
      <trkpt lat="44.93559" lon="4.8196">
        <ele>250</ele>
        <time>2019-01-18T17:33:29Z</time>
      </trkpt>
      <trkpt lat="44.93552" lon="4.81963">
        <ele>251</ele>
        <time>2019-01-18T17:34:29Z</time>
      </trkpt>
      <trkpt lat="44.93533" lon="4.81983">
        <ele>250</ele>
        <time>2019-01-18T17:35:29Z</time>
      </trkpt>
      <trkpt lat="44.93521" lon="4.81992">
        <ele>249</ele>
        <time>2019-01-18T17:36:29Z</time>
      </trkpt>
      <trkpt lat="44.9351" lon="4.81996">
        <ele>249</ele>
        <time>2019-01-18T17:37:29Z</time>
      </trkpt>
      <trkpt lat="44.93453" lon="4.82002">
        <ele>247</ele>
        <time>2019-01-18T17:38:29Z</time>
      </trkpt>
      <trkpt lat="44.93444" lon="4.81999">
        <ele>248</ele>
        <time>2019-01-18T17:39:29Z</time>
      </trkpt>
      <trkpt lat="44.93435" lon="4.81994">
        <ele>248</ele>
        <time>2019-01-18T17:40:29Z</time>
      </trkpt>
      <trkpt lat="44.93429" lon="4.81985">
        <ele>248</ele>
        <time>2019-01-18T17:41:29Z</time>
      </trkpt>
      <trkpt lat="44.93424" lon="4.81975">
        <ele>248</ele>
        <time>2019-01-18T17:42:29Z</time>
      </trkpt>
      <trkpt lat="44.93422" lon="4.81964">
        <ele>248</ele>
        <time>2019-01-18T17:43:29Z</time>
      </trkpt>
      <trkpt lat="44.93423" lon="4.81953">
        <ele>249</ele>
        <time>2019-01-18T17:44:29Z</time>
      </trkpt>
      <trkpt lat="44.93428" lon="4.81937">
        <ele>250</ele>
        <time>2019-01-18T17:45:29Z</time>
      </trkpt>
      <trkpt lat="44.93441" lon="4.81912">
        <ele>253</ele>
        <time>2019-01-18T17:46:29Z</time>
      </trkpt>
      <trkpt lat="44.93453" lon="4.81883">
        <ele>257</ele>
        <time>2019-01-18T17:47:29Z</time>
      </trkpt>
      <trkpt lat="44.93458" lon="4.81862">
        <ele>259</ele>
        <time>2019-01-18T17:48:29Z</time>
      </trkpt>
      <trkpt lat="44.93478" lon="4.81697">
        <ele>266</ele>
        <time>2019-01-18T17:49:29Z</time>
      </trkpt>
      <trkpt lat="44.93489" lon="4.81592">
        <ele>270</ele>
        <time>2019-01-18T17:50:29Z</time>
      </trkpt>
      <trkpt lat="44.93489" lon="4.81574">
        <ele>271</ele>
        <time>2019-01-18T17:51:29Z</time>
      </trkpt>
      <trkpt lat="44.93487" lon="4.81555">
        <ele>273</ele>
        <time>2019-01-18T17:52:29Z</time>
      </trkpt>
      <trkpt lat="44.93481" lon="4.8154">
        <ele>274</ele>
        <time>2019-01-18T17:53:29Z</time>
      </trkpt>
      <trkpt lat="44.9344" lon="4.81463">
        <ele>283</ele>
        <time>2019-01-18T17:54:29Z</time>
      </trkpt>
      <trkpt lat="44.93432" lon="4.81454">
        <ele>284</ele>
        <time>2019-01-18T17:55:29Z</time>
      </trkpt>
      <trkpt lat="44.93424" lon="4.81449">
        <ele>284</ele>
        <time>2019-01-18T17:56:29Z</time>
      </trkpt>
      <trkpt lat="44.93413" lon="4.81444">
        <ele>285</ele>
        <time>2019-01-18T17:57:29Z</time>
      </trkpt>
      <trkpt lat="44.93398" lon="4.81444">
        <ele>286</ele>
        <time>2019-01-18T17:58:29Z</time>
      </trkpt>
      <trkpt lat="44.93384" lon="4.8145">
        <ele>285</ele>
        <time>2019-01-18T17:59:29Z</time>
      </trkpt>
      <trkpt lat="44.93374" lon="4.81458">
        <ele>284</ele>
        <time>2019-01-18T18:00:29Z</time>
      </trkpt>
      <trkpt lat="44.93361" lon="4.81462">
        <ele>283</ele>
        <time>2019-01-18T18:01:29Z</time>
      </trkpt>
      <trkpt lat="44.93343" lon="4.81459">
        <ele>285</ele>
        <time>2019-01-18T18:02:29Z</time>
      </trkpt>
      <trkpt lat="44.93314" lon="4.81447">
        <ele>291</ele>
        <time>2019-01-18T18:03:29Z</time>
      </trkpt>
      <trkpt lat="44.93301" lon="4.81448">
        <ele>292</ele>
        <time>2019-01-18T18:04:29Z</time>
      </trkpt>
      <trkpt lat="44.93283" lon="4.81459">
        <ele>291</ele>
        <time>2019-01-18T18:05:29Z</time>
      </trkpt>
      <trkpt lat="44.93268" lon="4.8147">
        <ele>289</ele>
        <time>2019-01-18T18:06:29Z</time>
      </trkpt>
      <trkpt lat="44.93253" lon="4.81478">
        <ele>287</ele>
        <time>2019-01-18T18:07:29Z</time>
      </trkpt>
      <trkpt lat="44.93235" lon="4.8148">
        <ele>286</ele>
        <time>2019-01-18T18:08:29Z</time>
      </trkpt>
      <trkpt lat="44.93149" lon="4.81441">
        <ele>291</ele>
        <time>2019-01-18T18:09:29Z</time>
      </trkpt>
      <trkpt lat="44.93133" lon="4.81427">
        <ele>291</ele>
        <time>2019-01-18T18:10:29Z</time>
      </trkpt>
      <trkpt lat="44.93105" lon="4.8137">
        <ele>301</ele>
        <time>2019-01-18T18:11:29Z</time>
      </trkpt>
      <trkpt lat="44.93089" lon="4.81348">
        <ele>302</ele>
        <time>2019-01-18T18:12:29Z</time>
      </trkpt>
      <trkpt lat="44.93049" lon="4.81315">
        <ele>299</ele>
        <time>2019-01-18T18:13:29Z</time>
      </trkpt>
      <trkpt lat="44.9303" lon="4.81291">
        <ele>299</ele>
        <time>2019-01-18T18:14:29Z</time>
      </trkpt>
      <trkpt lat="44.93001" lon="4.81196">
        <ele>308</ele>
        <time>2019-01-18T18:15:29Z</time>
      </trkpt>
      <trkpt lat="44.9298" lon="4.81139">
        <ele>311</ele>
        <time>2019-01-18T18:16:29Z</time>
      </trkpt>
      <trkpt lat="44.9298" lon="4.81111">
        <ele>309</ele>
        <time>2019-01-18T18:17:29Z</time>
      </trkpt>
      <trkpt lat="44.92987" lon="4.8108">
        <ele>308</ele>
        <time>2019-01-18T18:18:29Z</time>
      </trkpt>
      <trkpt lat="44.93004" lon="4.8106">
        <ele>308</ele>
        <time>2019-01-18T18:19:29Z</time>
      </trkpt>
      <trkpt lat="44.93035" lon="4.81035">
        <ele>312</ele>
        <time>2019-01-18T18:20:29Z</time>
      </trkpt>
      <trkpt lat="44.93066" lon="4.80996">
        <ele>316</ele>
        <time>2019-01-18T18:21:29Z</time>
      </trkpt>
      <trkpt lat="44.93118" lon="4.80857">
        <ele>329</ele>
        <time>2019-01-18T18:22:29Z</time>
      </trkpt>
      <trkpt lat="44.9312" lon="4.8083">
        <ele>330</ele>
        <time>2019-01-18T18:23:29Z</time>
      </trkpt>
      <trkpt lat="44.93115" lon="4.80818">
        <ele>331</ele>
        <time>2019-01-18T18:24:29Z</time>
      </trkpt>
      <trkpt lat="44.93102" lon="4.8081">
        <ele>329</ele>
        <time>2019-01-18T18:25:29Z</time>
      </trkpt>
      <trkpt lat="44.93089" lon="4.80809">
        <ele>327</ele>
        <time>2019-01-18T18:26:29Z</time>
      </trkpt>
      <trkpt lat="44.93066" lon="4.80824">
        <ele>326</ele>
        <time>2019-01-18T18:27:29Z</time>
      </trkpt>
      <trkpt lat="44.9304" lon="4.80848">
        <ele>327</ele>
        <time>2019-01-18T18:28:29Z</time>
      </trkpt>
      <trkpt lat="44.92996" lon="4.80878">
        <ele>326</ele>
        <time>2019-01-18T18:29:29Z</time>
      </trkpt>
      <trkpt lat="44.9298" lon="4.80887">
        <ele>323</ele>
        <time>2019-01-18T18:30:29Z</time>
      </trkpt>
      <trkpt lat="44.92955" lon="4.80883">
        <ele>323</ele>
        <time>2019-01-18T18:31:29Z</time>
      </trkpt>
      <trkpt lat="44.929" lon="4.80863">
        <ele>324</ele>
        <time>2019-01-18T18:32:29Z</time>
      </trkpt>
      <trkpt lat="44.92882" lon="4.80847">
        <ele>323</ele>
        <time>2019-01-18T18:33:29Z</time>
      </trkpt>
      <trkpt lat="44.92868" lon="4.80821">
        <ele>323</ele>
        <time>2019-01-18T18:34:29Z</time>
      </trkpt>
      <trkpt lat="44.92864" lon="4.80809">
        <ele>324</ele>
        <time>2019-01-18T18:35:29Z</time>
      </trkpt>
      <trkpt lat="44.92861" lon="4.80794">
        <ele>325</ele>
        <time>2019-01-18T18:36:29Z</time>
      </trkpt>
      <trkpt lat="44.92865" lon="4.80741">
        <ele>333</ele>
        <time>2019-01-18T18:37:29Z</time>
      </trkpt>
      <trkpt lat="44.92861" lon="4.80704">
        <ele>335</ele>
        <time>2019-01-18T18:38:29Z</time>
      </trkpt>
      <trkpt lat="44.92853" lon="4.80664">
        <ele>334</ele>
        <time>2019-01-18T18:39:29Z</time>
      </trkpt>
      <trkpt lat="44.92854" lon="4.80642">
        <ele>335</ele>
        <time>2019-01-18T18:40:29Z</time>
      </trkpt>
      <trkpt lat="44.92863" lon="4.8061">
        <ele>340</ele>
        <time>2019-01-18T18:41:29Z</time>
      </trkpt>
      <trkpt lat="44.9287" lon="4.80567">
        <ele>347</ele>
        <time>2019-01-18T18:42:29Z</time>
      </trkpt>
      <trkpt lat="44.9287" lon="4.80534">
        <ele>351</ele>
        <time>2019-01-18T18:43:29Z</time>
      </trkpt>
      <trkpt lat="44.92866" lon="4.80514">
        <ele>351</ele>
        <time>2019-01-18T18:44:29Z</time>
      </trkpt>
      <trkpt lat="44.92843" lon="4.80472">
        <ele>340</ele>
        <time>2019-01-18T18:45:29Z</time>
      </trkpt>
      <trkpt lat="44.92841" lon="4.80447">
        <ele>342</ele>
        <time>2019-01-18T18:46:29Z</time>
      </trkpt>
      <trkpt lat="44.92845" lon="4.80406">
        <ele>346</ele>
        <time>2019-01-18T18:47:29Z</time>
      </trkpt>
      <trkpt lat="44.92852" lon="4.80364">
        <ele>348</ele>
        <time>2019-01-18T18:48:29Z</time>
      </trkpt>
      <trkpt lat="44.92874" lon="4.80311">
        <ele>357</ele>
        <time>2019-01-18T18:49:29Z</time>
      </trkpt>
      <trkpt lat="44.9288" lon="4.80282">
        <ele>359</ele>
        <time>2019-01-18T18:50:29Z</time>
      </trkpt>
      <trkpt lat="44.92882" lon="4.8023">
        <ele>357</ele>
        <time>2019-01-18T18:51:29Z</time>
      </trkpt>
      <trkpt lat="44.92886" lon="4.80181">
        <ele>355</ele>
        <time>2019-01-18T18:52:29Z</time>
      </trkpt>
      <trkpt lat="44.92897" lon="4.80149">
        <ele>358</ele>
        <time>2019-01-18T18:53:29Z</time>
      </trkpt>
      <trkpt lat="44.92938" lon="4.80109">
        <ele>366</ele>
        <time>2019-01-18T18:54:29Z</time>
      </trkpt>
      <trkpt lat="44.92949" lon="4.80092">
        <ele>365</ele>
        <time>2019-01-18T18:55:29Z</time>
      </trkpt>
      <trkpt lat="44.92948" lon="4.80073">
        <ele>366</ele>
        <time>2019-01-18T18:56:29Z</time>
      </trkpt>
      <trkpt lat="44.92937" lon="4.80056">
        <ele>368</ele>
        <time>2019-01-18T18:57:29Z</time>
      </trkpt>
      <trkpt lat="44.92924" lon="4.80048">
        <ele>369</ele>
        <time>2019-01-18T18:58:29Z</time>
      </trkpt>
      <trkpt lat="44.92898" lon="4.80044">
        <ele>365</ele>
        <time>2019-01-18T18:59:29Z</time>
      </trkpt>
      <trkpt lat="44.92881" lon="4.80036">
        <ele>364</ele>
        <time>2019-01-18T19:00:29Z</time>
      </trkpt>
      <trkpt lat="44.92853" lon="4.80006">
        <ele>368</ele>
        <time>2019-01-18T19:01:29Z</time>
      </trkpt>
      <trkpt lat="44.92805" lon="4.79981">
        <ele>362</ele>
        <time>2019-01-18T19:02:29Z</time>
      </trkpt>
      <trkpt lat="44.92791" lon="4.79964">
        <ele>362</ele>
        <time>2019-01-18T19:03:29Z</time>
      </trkpt>
      <trkpt lat="44.92787" lon="4.79945">
        <ele>365</ele>
        <time>2019-01-18T19:04:29Z</time>
      </trkpt>
      <trkpt lat="44.9279" lon="4.79928">
        <ele>368</ele>
        <time>2019-01-18T19:05:29Z</time>
      </trkpt>
      <trkpt lat="44.92804" lon="4.79921">
        <ele>370</ele>
        <time>2019-01-18T19:06:29Z</time>
      </trkpt>
      <trkpt lat="44.92837" lon="4.79934">
        <ele>372</ele>
        <time>2019-01-18T19:07:29Z</time>
      </trkpt>
      <trkpt lat="44.92859" lon="4.79931">
        <ele>378</ele>
        <time>2019-01-18T19:08:29Z</time>
      </trkpt>
      <trkpt lat="44.92869" lon="4.79924">
        <ele>381</ele>
        <time>2019-01-18T19:09:29Z</time>
      </trkpt>
      <trkpt lat="44.92876" lon="4.79916">
        <ele>384</ele>
        <time>2019-01-18T19:10:29Z</time>
      </trkpt>
      <trkpt lat="44.92882" lon="4.79894">
        <ele>384</ele>
        <time>2019-01-18T19:11:29Z</time>
      </trkpt>
      <trkpt lat="44.92902" lon="4.79784">
        <ele>388</ele>
        <time>2019-01-18T19:12:29Z</time>
      </trkpt>
      <trkpt lat="44.92902" lon="4.79755">
        <ele>389</ele>
        <time>2019-01-18T19:13:29Z</time>
      </trkpt>
      <trkpt lat="44.92897" lon="4.7973">
        <ele>390</ele>
        <time>2019-01-18T19:14:29Z</time>
      </trkpt>
      <trkpt lat="44.92874" lon="4.79681">
        <ele>385</ele>
        <time>2019-01-18T19:15:29Z</time>
      </trkpt>
      <trkpt lat="44.9286" lon="4.79537">
        <ele>389</ele>
        <time>2019-01-18T19:16:29Z</time>
      </trkpt>
      <trkpt lat="44.92866" lon="4.7951">
        <ele>390</ele>
        <time>2019-01-18T19:17:29Z</time>
      </trkpt>
      <trkpt lat="44.92881" lon="4.79486">
        <ele>391</ele>
        <time>2019-01-18T19:18:29Z</time>
      </trkpt>
      <trkpt lat="44.92906" lon="4.79455">
        <ele>391</ele>
        <time>2019-01-18T19:19:29Z</time>
      </trkpt>
      <trkpt lat="44.92929" lon="4.79457">
        <ele>396</ele>
        <time>2019-01-18T19:20:29Z</time>
      </trkpt>
      <trkpt lat="44.9295" lon="4.79467">
        <ele>400</ele>
        <time>2019-01-18T19:21:29Z</time>
      </trkpt>
      <trkpt lat="44.92978" lon="4.79489">
        <ele>407</ele>
        <time>2019-01-18T19:22:29Z</time>
      </trkpt>
      <trkpt lat="44.92995" lon="4.79491">
        <ele>409</ele>
        <time>2019-01-18T19:23:29Z</time>
      </trkpt>
      <trkpt lat="44.93004" lon="4.79486">
        <ele>410</ele>
        <time>2019-01-18T19:24:29Z</time>
      </trkpt>
      <trkpt lat="44.93015" lon="4.79477">
        <ele>412</ele>
        <time>2019-01-18T19:25:29Z</time>
      </trkpt>
      <trkpt lat="44.93026" lon="4.79446">
        <ele>412</ele>
        <time>2019-01-18T19:26:29Z</time>
      </trkpt>
      <trkpt lat="44.93032" lon="4.79415">
        <ele>410</ele>
        <time>2019-01-18T19:27:29Z</time>
      </trkpt>
      <trkpt lat="44.93031" lon="4.79372">
        <ele>404</ele>
        <time>2019-01-18T19:28:29Z</time>
      </trkpt>
      <trkpt lat="44.93035" lon="4.79356">
        <ele>404</ele>
        <time>2019-01-18T19:29:29Z</time>
      </trkpt>
      <trkpt lat="44.93042" lon="4.79342">
        <ele>405</ele>
        <time>2019-01-18T19:30:29Z</time>
      </trkpt>
      <trkpt lat="44.93086" lon="4.79302">
        <ele>409</ele>
        <time>2019-01-18T19:31:29Z</time>
      </trkpt>
      <trkpt lat="44.93101" lon="4.79293">
        <ele>407</ele>
        <time>2019-01-18T19:32:29Z</time>
      </trkpt>
      <trkpt lat="44.9312" lon="4.79296">
        <ele>409</ele>
        <time>2019-01-18T19:33:29Z</time>
      </trkpt>
      <trkpt lat="44.93142" lon="4.79309">
        <ele>414</ele>
        <time>2019-01-18T19:34:29Z</time>
      </trkpt>
      <trkpt lat="44.93157" lon="4.79315">
        <ele>417</ele>
        <time>2019-01-18T19:35:29Z</time>
      </trkpt>
      <trkpt lat="44.93187" lon="4.79318">
        <ele>414</ele>
        <time>2019-01-18T19:36:29Z</time>
      </trkpt>
      <trkpt lat="44.93197" lon="4.79325">
        <ele>414</ele>
        <time>2019-01-18T19:37:29Z</time>
      </trkpt>
      <trkpt lat="44.93206" lon="4.79339">
        <ele>416</ele>
        <time>2019-01-18T19:38:29Z</time>
      </trkpt>
      <trkpt lat="44.93236" lon="4.79399">
        <ele>429</ele>
        <time>2019-01-18T19:39:29Z</time>
      </trkpt>
      <trkpt lat="44.93246" lon="4.79412">
        <ele>431</ele>
        <time>2019-01-18T19:40:29Z</time>
      </trkpt>
      <trkpt lat="44.93319" lon="4.79446">
        <ele>431</ele>
        <time>2019-01-18T19:41:29Z</time>
      </trkpt>
      <trkpt lat="44.93339" lon="4.79452">
        <ele>430</ele>
        <time>2019-01-18T19:42:29Z</time>
      </trkpt>
      <trkpt lat="44.93359" lon="4.79466">
        <ele>432</ele>
        <time>2019-01-18T19:43:29Z</time>
      </trkpt>
      <trkpt lat="44.93471" lon="4.79573">
        <ele>450</ele>
        <time>2019-01-18T19:44:29Z</time>
      </trkpt>
      <trkpt lat="44.93498" lon="4.79588">
        <ele>449</ele>
        <time>2019-01-18T19:45:29Z</time>
      </trkpt>
      <trkpt lat="44.93519" lon="4.79588">
        <ele>453</ele>
        <time>2019-01-18T19:46:29Z</time>
      </trkpt>
      <trkpt lat="44.93532" lon="4.79573">
        <ele>453</ele>
        <time>2019-01-18T19:47:29Z</time>
      </trkpt>
      <trkpt lat="44.93541" lon="4.79537">
        <ele>452</ele>
        <time>2019-01-18T19:48:29Z</time>
      </trkpt>
      <trkpt lat="44.93548" lon="4.79446">
        <ele>452</ele>
        <time>2019-01-18T19:49:29Z</time>
      </trkpt>
      <trkpt lat="44.93545" lon="4.79415">
        <ele>451</ele>
        <time>2019-01-18T19:50:29Z</time>
      </trkpt>
      <trkpt lat="44.93531" lon="4.79389">
        <ele>448</ele>
        <time>2019-01-18T19:51:29Z</time>
      </trkpt>
      <trkpt lat="44.93503" lon="4.79316">
        <ele>446</ele>
        <time>2019-01-18T19:52:29Z</time>
      </trkpt>
      <trkpt lat="44.93498" lon="4.79284">
        <ele>446</ele>
        <time>2019-01-18T19:53:29Z</time>
      </trkpt>
      <trkpt lat="44.93517" lon="4.79202">
        <ele>451</ele>
        <time>2019-01-18T19:54:29Z</time>
      </trkpt>
      <trkpt lat="44.93524" lon="4.79193">
        <ele>452</ele>
        <time>2019-01-18T19:55:29Z</time>
      </trkpt>
      <trkpt lat="44.93551" lon="4.79179">
        <ele>456</ele>
        <time>2019-01-18T19:56:29Z</time>
      </trkpt>
      <trkpt lat="44.93588" lon="4.79167">
        <ele>462</ele>
        <time>2019-01-18T19:57:29Z</time>
      </trkpt>
      <trkpt lat="44.93626" lon="4.7912">
        <ele>460</ele>
        <time>2019-01-18T19:58:29Z</time>
      </trkpt>
      <trkpt lat="44.93637" lon="4.79115">
        <ele>461</ele>
        <time>2019-01-18T19:59:29Z</time>
      </trkpt>
      <trkpt lat="44.93654" lon="4.7912">
        <ele>465</ele>
        <time>2019-01-18T20:00:29Z</time>
      </trkpt>
      <trkpt lat="44.93674" lon="4.79135">
        <ele>470</ele>
        <time>2019-01-18T20:01:29Z</time>
      </trkpt>
      <trkpt lat="44.93694" lon="4.79142">
        <ele>473</ele>
        <time>2019-01-18T20:02:29Z</time>
      </trkpt>
      <trkpt lat="44.93713" lon="4.79142">
        <ele>475</ele>
        <time>2019-01-18T20:03:29Z</time>
      </trkpt>
      <trkpt lat="44.93733" lon="4.79116">
        <ele>475</ele>
        <time>2019-01-18T20:04:29Z</time>
      </trkpt>
      <trkpt lat="44.93758" lon="4.79026">
        <ele>481</ele>
        <time>2019-01-18T20:05:29Z</time>
      </trkpt>
      <trkpt lat="44.93757" lon="4.78994">
        <ele>482</ele>
        <time>2019-01-18T20:06:29Z</time>
      </trkpt>
      <trkpt lat="44.93748" lon="4.78973">
        <ele>483</ele>
        <time>2019-01-18T20:07:29Z</time>
      </trkpt>
      <trkpt lat="44.93714" lon="4.78907">
        <ele>480</ele>
        <time>2019-01-18T20:08:29Z</time>
      </trkpt>
      <trkpt lat="44.93707" lon="4.78836">
        <ele>485</ele>
        <time>2019-01-18T20:09:29Z</time>
      </trkpt>
      <trkpt lat="44.937" lon="4.78803">
        <ele>486</ele>
        <time>2019-01-18T20:10:29Z</time>
      </trkpt>
      <trkpt lat="44.93684" lon="4.78762">
        <ele>486</ele>
        <time>2019-01-18T20:11:29Z</time>
      </trkpt>
      <trkpt lat="44.93682" lon="4.78739">
        <ele>486</ele>
        <time>2019-01-18T20:12:29Z</time>
      </trkpt>
      <trkpt lat="44.93692" lon="4.78715">
        <ele>485</ele>
        <time>2019-01-18T20:13:29Z</time>
      </trkpt>
      <trkpt lat="44.93712" lon="4.78705">
        <ele>488</ele>
        <time>2019-01-18T20:14:29Z</time>
      </trkpt>
      <trkpt lat="44.93732" lon="4.78703">
        <ele>492</ele>
        <time>2019-01-18T20:15:29Z</time>
      </trkpt>
      <trkpt lat="44.93759" lon="4.78686">
        <ele>493</ele>
        <time>2019-01-18T20:16:29Z</time>
      </trkpt>
      <trkpt lat="44.93803" lon="4.78663">
        <ele>491</ele>
        <time>2019-01-18T20:17:29Z</time>
      </trkpt>
      <trkpt lat="44.93836" lon="4.7867">
        <ele>496</ele>
        <time>2019-01-18T20:18:29Z</time>
      </trkpt>
      <trkpt lat="44.93879" lon="4.78684">
        <ele>497</ele>
        <time>2019-01-18T20:19:29Z</time>
      </trkpt>
      <trkpt lat="44.93987" lon="4.78756">
        <ele>511</ele>
        <time>2019-01-18T20:20:29Z</time>
      </trkpt>
      <trkpt lat="44.94016" lon="4.78767">
        <ele>514</ele>
        <time>2019-01-18T20:21:29Z</time>
      </trkpt>
      <trkpt lat="44.94042" lon="4.78772">
        <ele>517</ele>
        <time>2019-01-18T20:22:29Z</time>
      </trkpt>
      <trkpt lat="44.94066" lon="4.78755">
        <ele>515</ele>
        <time>2019-01-18T20:23:29Z</time>
      </trkpt>
      <trkpt lat="44.94094" lon="4.78724">
        <ele>511</ele>
        <time>2019-01-18T20:24:29Z</time>
      </trkpt>
      <trkpt lat="44.94181" lon="4.78607">
        <ele>515</ele>
        <time>2019-01-18T20:25:29Z</time>
      </trkpt>
      <trkpt lat="44.94209" lon="4.78578">
        <ele>516</ele>
        <time>2019-01-18T20:26:29Z</time>
      </trkpt>
      <trkpt lat="44.9423" lon="4.78566">
        <ele>515</ele>
        <time>2019-01-18T20:27:29Z</time>
      </trkpt>
      <trkpt lat="44.94257" lon="4.78568">
        <ele>518</ele>
        <time>2019-01-18T20:28:29Z</time>
      </trkpt>
      <trkpt lat="44.9431" lon="4.78577">
        <ele>527</ele>
        <time>2019-01-18T20:29:29Z</time>
      </trkpt>
      <trkpt lat="44.94337" lon="4.78557">
        <ele>530</ele>
        <time>2019-01-18T20:30:29Z</time>
      </trkpt>
      <trkpt lat="44.94344" lon="4.78525">
        <ele>531</ele>
        <time>2019-01-18T20:31:29Z</time>
      </trkpt>
      <trkpt lat="44.94345" lon="4.78477">
        <ele>528</ele>
        <time>2019-01-18T20:32:29Z</time>
      </trkpt>
      <trkpt lat="44.94343" lon="4.78431">
        <ele>524</ele>
        <time>2019-01-18T20:33:29Z</time>
      </trkpt>
      <trkpt lat="44.94351" lon="4.78399">
        <ele>521</ele>
        <time>2019-01-18T20:34:29Z</time>
      </trkpt>
      <trkpt lat="44.94367" lon="4.78383">
        <ele>522</ele>
        <time>2019-01-18T20:35:29Z</time>
      </trkpt>
      <trkpt lat="44.94387" lon="4.78377">
        <ele>524</ele>
        <time>2019-01-18T20:36:29Z</time>
      </trkpt>
      <trkpt lat="44.94408" lon="4.78376">
        <ele>528</ele>
        <time>2019-01-18T20:37:29Z</time>
      </trkpt>
      <trkpt lat="44.94445" lon="4.78386">
        <ele>537</ele>
        <time>2019-01-18T20:38:29Z</time>
      </trkpt>
      <trkpt lat="44.94467" lon="4.78389">
        <ele>542</ele>
        <time>2019-01-18T20:39:29Z</time>
      </trkpt>
      <trkpt lat="44.94484" lon="4.78376">
        <ele>541</ele>
        <time>2019-01-18T20:40:29Z</time>
      </trkpt>
      <trkpt lat="44.94505" lon="4.78338">
        <ele>536</ele>
        <time>2019-01-18T20:41:29Z</time>
      </trkpt>
      <trkpt lat="44.94523" lon="4.78314">
        <ele>536</ele>
        <time>2019-01-18T20:42:29Z</time>
      </trkpt>
      <trkpt lat="44.94548" lon="4.78296">
        <ele>540</ele>
        <time>2019-01-18T20:43:29Z</time>
      </trkpt>
      <trkpt lat="44.94571" lon="4.78286">
        <ele>545</ele>
        <time>2019-01-18T20:44:29Z</time>
      </trkpt>
      <trkpt lat="44.94581" lon="4.7827">
        <ele>546</ele>
        <time>2019-01-18T20:45:29Z</time>
      </trkpt>
      <trkpt lat="44.94584" lon="4.78255">
        <ele>545</ele>
        <time>2019-01-18T20:46:29Z</time>
      </trkpt>
      <trkpt lat="44.94585" lon="4.78241">
        <ele>546</ele>
        <time>2019-01-18T20:47:29Z</time>
      </trkpt>
      <trkpt lat="44.94582" lon="4.78225">
        <ele>548</ele>
        <time>2019-01-18T20:48:29Z</time>
      </trkpt>
      <trkpt lat="44.94568" lon="4.78201">
        <ele>549</ele>
        <time>2019-01-18T20:49:29Z</time>
      </trkpt>
      <trkpt lat="44.94554" lon="4.78187">
        <ele>547</ele>
        <time>2019-01-18T20:50:29Z</time>
      </trkpt>
      <trkpt lat="44.94514" lon="4.78159">
        <ele>541</ele>
        <time>2019-01-18T20:51:29Z</time>
      </trkpt>
      <trkpt lat="44.94491" lon="4.78136">
        <ele>537</ele>
        <time>2019-01-18T20:52:29Z</time>
      </trkpt>
      <trkpt lat="44.94479" lon="4.78113">
        <ele>537</ele>
        <time>2019-01-18T20:53:29Z</time>
      </trkpt>
      <trkpt lat="44.94476" lon="4.78099">
        <ele>538</ele>
        <time>2019-01-18T20:54:29Z</time>
      </trkpt>
      <trkpt lat="44.94475" lon="4.78081">
        <ele>540</ele>
        <time>2019-01-18T20:55:29Z</time>
      </trkpt>
      <trkpt lat="44.94481" lon="4.78061">
        <ele>540</ele>
        <time>2019-01-18T20:56:29Z</time>
      </trkpt>
      <trkpt lat="44.94509" lon="4.78022">
        <ele>544</ele>
        <time>2019-01-18T20:57:29Z</time>
      </trkpt>
      <trkpt lat="44.94523" lon="4.77994">
        <ele>546</ele>
        <time>2019-01-18T20:58:29Z</time>
      </trkpt>
      <trkpt lat="44.94533" lon="4.7796">
        <ele>550</ele>
        <time>2019-01-18T20:59:29Z</time>
      </trkpt>
      <trkpt lat="44.94541" lon="4.77924">
        <ele>552</ele>
        <time>2019-01-18T21:00:29Z</time>
      </trkpt>
      <trkpt lat="44.9454" lon="4.77898">
        <ele>556</ele>
        <time>2019-01-18T21:01:29Z</time>
      </trkpt>
      <trkpt lat="44.94533" lon="4.77878">
        <ele>558</ele>
        <time>2019-01-18T21:02:29Z</time>
      </trkpt>
      <trkpt lat="44.9452" lon="4.77865">
        <ele>557</ele>
        <time>2019-01-18T21:03:29Z</time>
      </trkpt>
      <trkpt lat="44.94494" lon="4.77852">
        <ele>552</ele>
        <time>2019-01-18T21:04:29Z</time>
      </trkpt>
      <trkpt lat="44.94481" lon="4.77838">
        <ele>551</ele>
        <time>2019-01-18T21:05:29Z</time>
      </trkpt>
      <trkpt lat="44.94474" lon="4.77817">
        <ele>552</ele>
        <time>2019-01-18T21:06:29Z</time>
      </trkpt>
      <trkpt lat="44.94456" lon="4.77707">
        <ele>552</ele>
        <time>2019-01-18T21:07:29Z</time>
      </trkpt>
      <trkpt lat="44.94458" lon="4.77684">
        <ele>552</ele>
        <time>2019-01-18T21:08:29Z</time>
      </trkpt>
      <trkpt lat="44.94485" lon="4.77629">
        <ele>562</ele>
        <time>2019-01-18T21:09:29Z</time>
      </trkpt>
      <trkpt lat="44.94487" lon="4.77616">
        <ele>563</ele>
        <time>2019-01-18T21:10:29Z</time>
      </trkpt>
      <trkpt lat="44.94487" lon="4.77602">
        <ele>563</ele>
        <time>2019-01-18T21:11:29Z</time>
      </trkpt>
      <trkpt lat="44.94484" lon="4.7759">
        <ele>562</ele>
        <time>2019-01-18T21:12:29Z</time>
      </trkpt>
      <trkpt lat="44.94479" lon="4.77578">
        <ele>562</ele>
        <time>2019-01-18T21:13:29Z</time>
      </trkpt>
      <trkpt lat="44.94418" lon="4.77496">
        <ele>566</ele>
        <time>2019-01-18T21:14:29Z</time>
      </trkpt>
      <trkpt lat="44.94401" lon="4.77483">
        <ele>569</ele>
        <time>2019-01-18T21:15:29Z</time>
      </trkpt>
      <trkpt lat="44.94374" lon="4.77472">
        <ele>571</ele>
        <time>2019-01-18T21:16:29Z</time>
      </trkpt>
      <trkpt lat="44.94355" lon="4.77467">
        <ele>571</ele>
        <time>2019-01-18T21:17:29Z</time>
      </trkpt>
      <trkpt lat="44.94337" lon="4.77464">
        <ele>570</ele>
        <time>2019-01-18T21:18:29Z</time>
      </trkpt>
      <trkpt lat="44.94269" lon="4.77477">
        <ele>570</ele>
        <time>2019-01-18T21:19:29Z</time>
      </trkpt>
      <trkpt lat="44.94236" lon="4.77471">
        <ele>572</ele>
        <time>2019-01-18T21:20:29Z</time>
      </trkpt>
      <trkpt lat="44.94167" lon="4.77441">
        <ele>571</ele>
        <time>2019-01-18T21:21:29Z</time>
      </trkpt>
      <trkpt lat="44.94152" lon="4.77423">
        <ele>573</ele>
        <time>2019-01-18T21:22:29Z</time>
      </trkpt>
      <trkpt lat="44.94142" lon="4.77395">
        <ele>574</ele>
        <time>2019-01-18T21:23:29Z</time>
      </trkpt>
      <trkpt lat="44.94142" lon="4.77313">
        <ele>583</ele>
        <time>2019-01-18T21:24:29Z</time>
      </trkpt>
      <trkpt lat="44.94133" lon="4.77287">
        <ele>584</ele>
        <time>2019-01-18T21:25:29Z</time>
      </trkpt>
      <trkpt lat="44.94121" lon="4.77271">
        <ele>584</ele>
        <time>2019-01-18T21:26:29Z</time>
      </trkpt>
      <trkpt lat="44.94077" lon="4.77238">
        <ele>578</ele>
        <time>2019-01-18T21:27:29Z</time>
      </trkpt>
      <trkpt lat="44.94051" lon="4.77212">
        <ele>576</ele>
        <time>2019-01-18T21:28:29Z</time>
      </trkpt>
      <trkpt lat="44.94038" lon="4.77188">
        <ele>577</ele>
        <time>2019-01-18T21:29:29Z</time>
      </trkpt>
      <trkpt lat="44.94034" lon="4.77168">
        <ele>580</ele>
        <time>2019-01-18T21:30:29Z</time>
      </trkpt>
      <trkpt lat="44.94035" lon="4.77146">
        <ele>578</ele>
        <time>2019-01-18T21:31:29Z</time>
      </trkpt>
      <trkpt lat="44.94043" lon="4.77122">
        <ele>577</ele>
        <time>2019-01-18T21:32:29Z</time>
      </trkpt>
      <trkpt lat="44.94061" lon="4.77106">
        <ele>578</ele>
        <time>2019-01-18T21:33:29Z</time>
      </trkpt>
      <trkpt lat="44.94084" lon="4.77094">
        <ele>580</ele>
        <time>2019-01-18T21:34:29Z</time>
      </trkpt>
      <trkpt lat="44.94114" lon="4.77075">
        <ele>582</ele>
        <time>2019-01-18T21:35:29Z</time>
      </trkpt>
      <trkpt lat="44.94124" lon="4.77065">
        <ele>581</ele>
        <time>2019-01-18T21:36:29Z</time>
      </trkpt>
      <trkpt lat="44.94133" lon="4.77052">
        <ele>581</ele>
        <time>2019-01-18T21:37:29Z</time>
      </trkpt>
      <trkpt lat="44.94145" lon="4.77024">
        <ele>579</ele>
        <time>2019-01-18T21:38:29Z</time>
      </trkpt>
      <trkpt lat="44.94148" lon="4.77012">
        <ele>578</ele>
        <time>2019-01-18T21:39:29Z</time>
      </trkpt>
      <trkpt lat="44.94149" lon="4.76991">
        <ele>577</ele>
        <time>2019-01-18T21:40:29Z</time>
      </trkpt>
      <trkpt lat="44.94141" lon="4.7694">
        <ele>575</ele>
        <time>2019-01-18T21:41:29Z</time>
      </trkpt>
      <trkpt lat="44.94141" lon="4.76917">
        <ele>575</ele>
        <time>2019-01-18T21:42:29Z</time>
      </trkpt>
      <trkpt lat="44.94159" lon="4.76756">
        <ele>574</ele>
        <time>2019-01-18T21:43:29Z</time>
      </trkpt>
      <trkpt lat="44.94159" lon="4.76723">
        <ele>575</ele>
        <time>2019-01-18T21:44:29Z</time>
      </trkpt>
      <trkpt lat="44.94156" lon="4.76682">
        <ele>576</ele>
        <time>2019-01-18T21:45:29Z</time>
      </trkpt>
      <trkpt lat="44.94132" lon="4.7652">
        <ele>579</ele>
        <time>2019-01-18T21:46:29Z</time>
      </trkpt>
      <trkpt lat="44.94122" lon="4.7649">
        <ele>579</ele>
        <time>2019-01-18T21:47:29Z</time>
      </trkpt>
      <trkpt lat="44.94109" lon="4.76466">
        <ele>579</ele>
        <time>2019-01-18T21:48:29Z</time>
      </trkpt>
      <trkpt lat="44.94092" lon="4.76438">
        <ele>578</ele>
        <time>2019-01-18T21:49:29Z</time>
      </trkpt>
      <trkpt lat="44.94072" lon="4.76415">
        <ele>577</ele>
        <time>2019-01-18T21:50:29Z</time>
      </trkpt>
      <trkpt lat="44.94011" lon="4.76365">
        <ele>579</ele>
        <time>2019-01-18T21:51:29Z</time>
      </trkpt>
      <trkpt lat="44.93995" lon="4.76346">
        <ele>581</ele>
        <time>2019-01-18T21:52:29Z</time>
      </trkpt>
      <trkpt lat="44.93953" lon="4.76291">
        <ele>585</ele>
        <time>2019-01-18T21:53:29Z</time>
      </trkpt>
      <trkpt lat="44.93937" lon="4.76282">
        <ele>584</ele>
        <time>2019-01-18T21:54:29Z</time>
      </trkpt>
      <trkpt lat="44.93898" lon="4.76277">
        <ele>578</ele>
        <time>2019-01-18T21:55:29Z</time>
      </trkpt>
      <trkpt lat="44.93885" lon="4.76268">
        <ele>577</ele>
        <time>2019-01-18T21:56:29Z</time>
      </trkpt>
      <trkpt lat="44.93872" lon="4.76254">
        <ele>577</ele>
        <time>2019-01-18T21:57:29Z</time>
      </trkpt>
      <trkpt lat="44.93862" lon="4.76238">
        <ele>577</ele>
        <time>2019-01-18T21:58:29Z</time>
      </trkpt>
      <trkpt lat="44.93853" lon="4.76213">
        <ele>578</ele>
        <time>2019-01-18T21:59:29Z</time>
      </trkpt>
      <trkpt lat="44.93843" lon="4.76123">
        <ele>583</ele>
        <time>2019-01-18T22:00:29Z</time>
      </trkpt>
      <trkpt lat="44.93823" lon="4.76041">
        <ele>581</ele>
        <time>2019-01-18T22:01:29Z</time>
      </trkpt>
      <trkpt lat="44.93821" lon="4.76025">
        <ele>580</ele>
        <time>2019-01-18T22:02:29Z</time>
      </trkpt>
      <trkpt lat="44.93822" lon="4.76008">
        <ele>580</ele>
        <time>2019-01-18T22:03:29Z</time>
      </trkpt>
      <trkpt lat="44.93831" lon="4.75952">
        <ele>582</ele>
        <time>2019-01-18T22:04:29Z</time>
      </trkpt>
      <trkpt lat="44.93835" lon="4.75871">
        <ele>583</ele>
        <time>2019-01-18T22:05:29Z</time>
      </trkpt>
      <trkpt lat="44.93828" lon="4.75869">
        <ele>582</ele>
        <time>2019-01-18T22:06:29Z</time>
      </trkpt>
      <trkpt lat="44.93817" lon="4.75862">
        <ele>580</ele>
        <time>2019-01-18T22:07:29Z</time>
      </trkpt>
      <trkpt lat="44.93806" lon="4.75848">
        <ele>578</ele>
        <time>2019-01-18T22:08:29Z</time>
      </trkpt>
      <trkpt lat="44.93756" lon="4.7572">
        <ele>582</ele>
        <time>2019-01-18T22:09:29Z</time>
      </trkpt>
      <trkpt lat="44.9373" lon="4.75669">
        <ele>586</ele>
        <time>2019-01-18T22:10:29Z</time>
      </trkpt>
      <trkpt lat="44.93707" lon="4.75643">
        <ele>588</ele>
        <time>2019-01-18T22:11:29Z</time>
      </trkpt>
      <trkpt lat="44.93668" lon="4.75616">
        <ele>589</ele>
        <time>2019-01-18T22:12:29Z</time>
      </trkpt>
      <trkpt lat="44.93639" lon="4.75582">
        <ele>591</ele>
        <time>2019-01-18T22:13:29Z</time>
      </trkpt>
      <trkpt lat="44.93605" lon="4.7551">
        <ele>594</ele>
        <time>2019-01-18T22:14:29Z</time>
      </trkpt>
      <trkpt lat="44.9356" lon="4.7545">
        <ele>596</ele>
        <time>2019-01-18T22:15:29Z</time>
      </trkpt>
      <trkpt lat="44.9354" lon="4.75427">
        <ele>597</ele>
        <time>2019-01-18T22:16:29Z</time>
      </trkpt>
      <trkpt lat="44.93515" lon="4.75411">
        <ele>596</ele>
        <time>2019-01-18T22:17:29Z</time>
      </trkpt>
      <trkpt lat="44.93496" lon="4.75403">
        <ele>595</ele>
        <time>2019-01-18T22:18:29Z</time>
      </trkpt>
      <trkpt lat="44.93477" lon="4.75402">
        <ele>597</ele>
        <time>2019-01-18T22:19:29Z</time>
      </trkpt>
      <trkpt lat="44.93417" lon="4.75417">
        <ele>602</ele>
        <time>2019-01-18T22:20:29Z</time>
      </trkpt>
      <trkpt lat="44.93394" lon="4.75417">
        <ele>600</ele>
        <time>2019-01-18T22:21:29Z</time>
      </trkpt>
      <trkpt lat="44.93359" lon="4.75407">
        <ele>598</ele>
        <time>2019-01-18T22:22:29Z</time>
      </trkpt>
      <trkpt lat="44.93221" lon="4.75351">
        <ele>595</ele>
        <time>2019-01-18T22:23:29Z</time>
      </trkpt>
      <trkpt lat="44.93178" lon="4.75336">
        <ele>594</ele>
        <time>2019-01-18T22:24:29Z</time>
      </trkpt>
      <trkpt lat="44.93152" lon="4.7531">
        <ele>595</ele>
        <time>2019-01-18T22:25:29Z</time>
      </trkpt>
      <trkpt lat="44.93133" lon="4.75274">
        <ele>601</ele>
        <time>2019-01-18T22:26:29Z</time>
      </trkpt>
      <trkpt lat="44.93091" lon="4.75221">
        <ele>604</ele>
        <time>2019-01-18T22:27:29Z</time>
      </trkpt>
      <trkpt lat="44.93076" lon="4.75191">
        <ele>606</ele>
        <time>2019-01-18T22:28:29Z</time>
      </trkpt>
      <trkpt lat="44.93062" lon="4.75143">
        <ele>606</ele>
        <time>2019-01-18T22:29:29Z</time>
      </trkpt>
      <trkpt lat="44.93058" lon="4.75072">
        <ele>603</ele>
        <time>2019-01-18T22:30:29Z</time>
      </trkpt>
      <trkpt lat="44.93062" lon="4.74837">
        <ele>605</ele>
        <time>2019-01-18T22:31:29Z</time>
      </trkpt>
      <trkpt lat="44.93076" lon="4.74779">
        <ele>607</ele>
        <time>2019-01-18T22:32:29Z</time>
      </trkpt>
      <trkpt lat="44.93079" lon="4.74754">
        <ele>607</ele>
        <time>2019-01-18T22:33:29Z</time>
      </trkpt>
      <trkpt lat="44.93076" lon="4.74738">
        <ele>607</ele>
        <time>2019-01-18T22:34:29Z</time>
      </trkpt>
      <trkpt lat="44.93071" lon="4.74724">
        <ele>606</ele>
        <time>2019-01-18T22:35:29Z</time>
      </trkpt>
      <trkpt lat="44.93055" lon="4.74685">
        <ele>603</ele>
        <time>2019-01-18T22:36:29Z</time>
      </trkpt>
      <trkpt lat="44.93039" lon="4.7461">
        <ele>608</ele>
        <time>2019-01-18T22:37:29Z</time>
      </trkpt>
      <trkpt lat="44.93027" lon="4.7457">
        <ele>611</ele>
        <time>2019-01-18T22:38:29Z</time>
      </trkpt>
      <trkpt lat="44.92991" lon="4.74538">
        <ele>608</ele>
        <time>2019-01-18T22:39:29Z</time>
      </trkpt>
      <trkpt lat="44.92924" lon="4.74513">
        <ele>602</ele>
        <time>2019-01-18T22:40:29Z</time>
      </trkpt>
      <trkpt lat="44.92893" lon="4.74494">
        <ele>600</ele>
        <time>2019-01-18T22:41:29Z</time>
      </trkpt>
      <trkpt lat="44.92865" lon="4.74469">
        <ele>597</ele>
        <time>2019-01-18T22:42:29Z</time>
      </trkpt>
      <trkpt lat="44.92826" lon="4.74394">
        <ele>600</ele>
        <time>2019-01-18T22:43:29Z</time>
      </trkpt>
      <trkpt lat="44.9277" lon="4.74301">
        <ele>599</ele>
        <time>2019-01-18T22:44:29Z</time>
      </trkpt>
      <trkpt lat="44.92724" lon="4.74238">
        <ele>600</ele>
        <time>2019-01-18T22:45:29Z</time>
      </trkpt>
      <trkpt lat="44.92694" lon="4.74188">
        <ele>602</ele>
        <time>2019-01-18T22:46:29Z</time>
      </trkpt>
      <trkpt lat="44.92633" lon="4.7406">
        <ele>600</ele>
        <time>2019-01-18T22:47:29Z</time>
      </trkpt>
      <trkpt lat="44.92594" lon="4.74003">
        <ele>601</ele>
        <time>2019-01-18T22:48:29Z</time>
      </trkpt>
      <trkpt lat="44.92581" lon="4.73965">
        <ele>604</ele>
        <time>2019-01-18T22:49:29Z</time>
      </trkpt>
      <trkpt lat="44.92577" lon="4.73937">
        <ele>606</ele>
        <time>2019-01-18T22:50:29Z</time>
      </trkpt>
      <trkpt lat="44.92577" lon="4.73914">
        <ele>608</ele>
        <time>2019-01-18T22:51:29Z</time>
      </trkpt>
      <trkpt lat="44.92587" lon="4.73878">
        <ele>611</ele>
        <time>2019-01-18T22:52:29Z</time>
      </trkpt>
      <trkpt lat="44.92601" lon="4.73842">
        <ele>613</ele>
        <time>2019-01-18T22:53:29Z</time>
      </trkpt>
      <trkpt lat="44.92618" lon="4.73789">
        <ele>612</ele>
        <time>2019-01-18T22:54:29Z</time>
      </trkpt>
      <trkpt lat="44.92623" lon="4.73746">
        <ele>612</ele>
        <time>2019-01-18T22:55:29Z</time>
      </trkpt>
      <trkpt lat="44.92605" lon="4.73589">
        <ele>613</ele>
        <time>2019-01-18T22:56:29Z</time>
      </trkpt>
      <trkpt lat="44.92601" lon="4.73518">
        <ele>614</ele>
        <time>2019-01-18T22:57:29Z</time>
      </trkpt>
      <trkpt lat="44.92601" lon="4.73479">
        <ele>615</ele>
        <time>2019-01-18T22:58:29Z</time>
      </trkpt>
      <trkpt lat="44.92604" lon="4.73454">
        <ele>615</ele>
        <time>2019-01-18T22:59:29Z</time>
      </trkpt>
      <trkpt lat="44.92605" lon="4.73411">
        <ele>615</ele>
        <time>2019-01-18T23:00:29Z</time>
      </trkpt>
      <trkpt lat="44.92597" lon="4.73387">
        <ele>615</ele>
        <time>2019-01-18T23:01:29Z</time>
      </trkpt>
      <trkpt lat="44.92473" lon="4.73212">
        <ele>619</ele>
        <time>2019-01-18T23:02:29Z</time>
      </trkpt>
      <trkpt lat="44.92407" lon="4.73171">
        <ele>622</ele>
        <time>2019-01-18T23:03:29Z</time>
      </trkpt>
      <trkpt lat="44.92379" lon="4.73135">
        <ele>624</ele>
        <time>2019-01-18T23:04:29Z</time>
      </trkpt>
      <trkpt lat="44.92359" lon="4.73093">
        <ele>624</ele>
        <time>2019-01-18T23:05:29Z</time>
      </trkpt>
      <trkpt lat="44.92346" lon="4.73052">
        <ele>625</ele>
        <time>2019-01-18T23:06:29Z</time>
      </trkpt>
      <trkpt lat="44.92336" lon="4.73002">
        <ele>624</ele>
        <time>2019-01-18T23:07:29Z</time>
      </trkpt>
      <trkpt lat="44.92327" lon="4.72967">
        <ele>623</ele>
        <time>2019-01-18T23:08:29Z</time>
      </trkpt>
      <trkpt lat="44.923" lon="4.72948">
        <ele>624</ele>
        <time>2019-01-18T23:09:29Z</time>
      </trkpt>
      <trkpt lat="44.92233" lon="4.72929">
        <ele>629</ele>
        <time>2019-01-18T23:10:29Z</time>
      </trkpt>
      <trkpt lat="44.92215" lon="4.72918">
        <ele>632</ele>
        <time>2019-01-18T23:11:29Z</time>
      </trkpt>
      <trkpt lat="44.92205" lon="4.72895">
        <ele>634</ele>
        <time>2019-01-18T23:12:29Z</time>
      </trkpt>
      <trkpt lat="44.922" lon="4.72857">
        <ele>636</ele>
        <time>2019-01-18T23:13:29Z</time>
      </trkpt>
      <trkpt lat="44.92201" lon="4.72822">
        <ele>637</ele>
        <time>2019-01-18T23:14:29Z</time>
      </trkpt>
      <trkpt lat="44.92204" lon="4.72805">
        <ele>638</ele>
        <time>2019-01-18T23:15:29Z</time>
      </trkpt>
      <trkpt lat="44.92214" lon="4.72785">
        <ele>638</ele>
        <time>2019-01-18T23:16:29Z</time>
      </trkpt>
      <trkpt lat="44.92247" lon="4.72766">
        <ele>633</ele>
        <time>2019-01-18T23:17:29Z</time>
      </trkpt>
      <trkpt lat="44.92278" lon="4.72718">
        <ele>631</ele>
        <time>2019-01-18T23:18:29Z</time>
      </trkpt>
      <trkpt lat="44.92305" lon="4.72643">
        <ele>628</ele>
        <time>2019-01-18T23:19:29Z</time>
      </trkpt>
      <trkpt lat="44.92306" lon="4.72628">
        <ele>627</ele>
        <time>2019-01-18T23:20:29Z</time>
      </trkpt>
      <trkpt lat="44.92301" lon="4.72606">
        <ele>627</ele>
        <time>2019-01-18T23:21:29Z</time>
      </trkpt>
      <trkpt lat="44.92289" lon="4.72586">
        <ele>627</ele>
        <time>2019-01-18T23:22:29Z</time>
      </trkpt>
      <trkpt lat="44.92281" lon="4.72578">
        <ele>627</ele>
        <time>2019-01-18T23:23:29Z</time>
      </trkpt>
      <trkpt lat="44.92268" lon="4.72571">
        <ele>627</ele>
        <time>2019-01-18T23:24:29Z</time>
      </trkpt>
      <trkpt lat="44.92251" lon="4.72573">
        <ele>628</ele>
        <time>2019-01-18T23:25:29Z</time>
      </trkpt>
      <trkpt lat="44.92226" lon="4.72583">
        <ele>633</ele>
        <time>2019-01-18T23:26:29Z</time>
      </trkpt>
      <trkpt lat="44.92199" lon="4.72587">
        <ele>636</ele>
        <time>2019-01-18T23:27:29Z</time>
      </trkpt>
      <trkpt lat="44.92186" lon="4.72578">
        <ele>636</ele>
        <time>2019-01-18T23:28:29Z</time>
      </trkpt>
      <trkpt lat="44.92176" lon="4.72564">
        <ele>637</ele>
        <time>2019-01-18T23:29:29Z</time>
      </trkpt>
      <trkpt lat="44.9217" lon="4.72552">
        <ele>637</ele>
        <time>2019-01-18T23:30:29Z</time>
      </trkpt>
      <trkpt lat="44.92166" lon="4.72519">
        <ele>635</ele>
        <time>2019-01-18T23:31:29Z</time>
      </trkpt>
      <trkpt lat="44.92174" lon="4.72476">
        <ele>631</ele>
        <time>2019-01-18T23:32:29Z</time>
      </trkpt>
      <trkpt lat="44.92175" lon="4.72451">
        <ele>629</ele>
        <time>2019-01-18T23:33:29Z</time>
      </trkpt>
      <trkpt lat="44.92167" lon="4.72417">
        <ele>628</ele>
        <time>2019-01-18T23:34:29Z</time>
      </trkpt>
      <trkpt lat="44.92155" lon="4.72403">
        <ele>627</ele>
        <time>2019-01-18T23:35:29Z</time>
      </trkpt>
      <trkpt lat="44.92127" lon="4.72389">
        <ele>628</ele>
        <time>2019-01-18T23:36:29Z</time>
      </trkpt>
      <trkpt lat="44.92106" lon="4.7237">
        <ele>627</ele>
        <time>2019-01-18T23:37:29Z</time>
      </trkpt>
      <trkpt lat="44.92087" lon="4.72339">
        <ele>625</ele>
        <time>2019-01-18T23:38:29Z</time>
      </trkpt>
      <trkpt lat="44.92074" lon="4.72295">
        <ele>625</ele>
        <time>2019-01-18T23:39:29Z</time>
      </trkpt>
      <trkpt lat="44.92071" lon="4.72266">
        <ele>625</ele>
        <time>2019-01-18T23:40:29Z</time>
      </trkpt>
      <trkpt lat="44.92071" lon="4.72239">
        <ele>624</ele>
        <time>2019-01-18T23:41:29Z</time>
      </trkpt>
      <trkpt lat="44.92074" lon="4.72194">
        <ele>621</ele>
        <time>2019-01-18T23:42:29Z</time>
      </trkpt>
      <trkpt lat="44.92072" lon="4.72165">
        <ele>621</ele>
        <time>2019-01-18T23:43:29Z</time>
      </trkpt>
      <trkpt lat="44.9206" lon="4.72137">
        <ele>620</ele>
        <time>2019-01-18T23:44:29Z</time>
      </trkpt>
      <trkpt lat="44.92034" lon="4.72104">
        <ele>621</ele>
        <time>2019-01-18T23:45:29Z</time>
      </trkpt>
      <trkpt lat="44.91989" lon="4.72022">
        <ele>617</ele>
        <time>2019-01-18T23:46:29Z</time>
      </trkpt>
      <trkpt lat="44.91962" lon="4.71955">
        <ele>616</ele>
        <time>2019-01-18T23:47:29Z</time>
      </trkpt>
      <trkpt lat="44.91949" lon="4.71876">
        <ele>615</ele>
        <time>2019-01-18T23:48:29Z</time>
      </trkpt>
      <trkpt lat="44.91943" lon="4.71847">
        <ele>614</ele>
        <time>2019-01-18T23:49:29Z</time>
      </trkpt>
      <trkpt lat="44.91929" lon="4.71819">
        <ele>613</ele>
        <time>2019-01-18T23:50:29Z</time>
      </trkpt>
      <trkpt lat="44.91905" lon="4.718">
        <ele>612</ele>
        <time>2019-01-18T23:51:29Z</time>
      </trkpt>
      <trkpt lat="44.91881" lon="4.71786">
        <ele>611</ele>
        <time>2019-01-18T23:52:29Z</time>
      </trkpt>
      <trkpt lat="44.91829" lon="4.71767">
        <ele>609</ele>
        <time>2019-01-18T23:53:29Z</time>
      </trkpt>
      <trkpt lat="44.91796" lon="4.71745">
        <ele>608</ele>
        <time>2019-01-18T23:54:29Z</time>
      </trkpt>
      <trkpt lat="44.91724" lon="4.71692">
        <ele>607</ele>
        <time>2019-01-18T23:55:29Z</time>
      </trkpt>
      <trkpt lat="44.91664" lon="4.71612">
        <ele>604</ele>
        <time>2019-01-18T23:56:29Z</time>
      </trkpt>
      <trkpt lat="44.91647" lon="4.7158">
        <ele>603</ele>
        <time>2019-01-18T23:57:29Z</time>
      </trkpt>
      <trkpt lat="44.91638" lon="4.71536">
        <ele>603</ele>
        <time>2019-01-18T23:58:29Z</time>
      </trkpt>
      <trkpt lat="44.91626" lon="4.71396">
        <ele>600</ele>
        <time>2019-01-18T23:59:29Z</time>
      </trkpt>
      <trkpt lat="44.91602" lon="4.71325">
        <ele>597</ele>
        <time>2019-01-19T00:00:29Z</time>
      </trkpt>
      <trkpt lat="44.91447" lon="4.7103">
        <ele>594</ele>
        <time>2019-01-19T00:01:29Z</time>
      </trkpt>
      <trkpt lat="44.91404" lon="4.70961">
        <ele>593</ele>
        <time>2019-01-19T00:02:29Z</time>
      </trkpt>
      <trkpt lat="44.91381" lon="4.70934">
        <ele>592</ele>
        <time>2019-01-19T00:03:29Z</time>
      </trkpt>
      <trkpt lat="44.91349" lon="4.70909">
        <ele>592</ele>
        <time>2019-01-19T00:04:29Z</time>
      </trkpt>
      <trkpt lat="44.91326" lon="4.70897">
        <ele>592</ele>
        <time>2019-01-19T00:05:29Z</time>
      </trkpt>
      <trkpt lat="44.91279" lon="4.7089">
        <ele>593</ele>
        <time>2019-01-19T00:06:29Z</time>
      </trkpt>
      <trkpt lat="44.91244" lon="4.70878">
        <ele>593</ele>
        <time>2019-01-19T00:07:29Z</time>
      </trkpt>
      <trkpt lat="44.91236" lon="4.70861">
        <ele>591</ele>
        <time>2019-01-19T00:08:29Z</time>
      </trkpt>
      <trkpt lat="44.91231" lon="4.70845">
        <ele>591</ele>
        <time>2019-01-19T00:09:29Z</time>
      </trkpt>
      <trkpt lat="44.91228" lon="4.70825">
        <ele>591</ele>
        <time>2019-01-19T00:10:29Z</time>
      </trkpt>
      <trkpt lat="44.9123" lon="4.70807">
        <ele>591</ele>
        <time>2019-01-19T00:11:29Z</time>
      </trkpt>
      <trkpt lat="44.91252" lon="4.70763">
        <ele>590</ele>
        <time>2019-01-19T00:12:29Z</time>
      </trkpt>
      <trkpt lat="44.9126" lon="4.70734">
        <ele>590</ele>
        <time>2019-01-19T00:13:29Z</time>
      </trkpt>
      <trkpt lat="44.9125" lon="4.70611">
        <ele>594</ele>
        <time>2019-01-19T00:14:29Z</time>
      </trkpt>
      <trkpt lat="44.91233" lon="4.70564">
        <ele>594</ele>
        <time>2019-01-19T00:15:29Z</time>
      </trkpt>
      <trkpt lat="44.91217" lon="4.70543">
        <ele>594</ele>
        <time>2019-01-19T00:16:29Z</time>
      </trkpt>
      <trkpt lat="44.91126" lon="4.70481">
        <ele>597</ele>
        <time>2019-01-19T00:17:29Z</time>
      </trkpt>
      <trkpt lat="44.91112" lon="4.70456">
        <ele>598</ele>
        <time>2019-01-19T00:18:29Z</time>
      </trkpt>
      <trkpt lat="44.91101" lon="4.70375">
        <ele>598</ele>
        <time>2019-01-19T00:19:29Z</time>
      </trkpt>
      <trkpt lat="44.91042" lon="4.70276">
        <ele>601</ele>
        <time>2019-01-19T00:20:29Z</time>
      </trkpt>
      <trkpt lat="44.90993" lon="4.70209">
        <ele>601</ele>
        <time>2019-01-19T00:21:29Z</time>
      </trkpt>
      <trkpt lat="44.90938" lon="4.7015">
        <ele>604</ele>
        <time>2019-01-19T00:22:29Z</time>
      </trkpt>
      <trkpt lat="44.90928" lon="4.70092">
        <ele>604</ele>
        <time>2019-01-19T00:23:29Z</time>
      </trkpt>
      <trkpt lat="44.90922" lon="4.70063">
        <ele>603</ele>
        <time>2019-01-19T00:24:29Z</time>
      </trkpt>
      <trkpt lat="44.90892" lon="4.70006">
        <ele>603</ele>
        <time>2019-01-19T00:25:29Z</time>
      </trkpt>
      <trkpt lat="44.90864" lon="4.69974">
        <ele>603</ele>
        <time>2019-01-19T00:26:29Z</time>
      </trkpt>
      <trkpt lat="44.90833" lon="4.69954">
        <ele>604</ele>
        <time>2019-01-19T00:27:29Z</time>
      </trkpt>
      <trkpt lat="44.90741" lon="4.69946">
        <ele>608</ele>
        <time>2019-01-19T00:28:29Z</time>
      </trkpt>
      <trkpt lat="44.90657" lon="4.69941">
        <ele>612</ele>
        <time>2019-01-19T00:29:29Z</time>
      </trkpt>
      <trkpt lat="44.9064" lon="4.69936">
        <ele>613</ele>
        <time>2019-01-19T00:30:29Z</time>
      </trkpt>
      <trkpt lat="44.90628" lon="4.69928">
        <ele>613</ele>
        <time>2019-01-19T00:31:29Z</time>
      </trkpt>
      <trkpt lat="44.90619" lon="4.69919">
        <ele>612</ele>
        <time>2019-01-19T00:32:29Z</time>
      </trkpt>
      <trkpt lat="44.9061" lon="4.69904">
        <ele>613</ele>
        <time>2019-01-19T00:33:29Z</time>
      </trkpt>
      <trkpt lat="44.90606" lon="4.69887">
        <ele>613</ele>
        <time>2019-01-19T00:34:29Z</time>
      </trkpt>
      <trkpt lat="44.90603" lon="4.69861">
        <ele>614</ele>
        <time>2019-01-19T00:35:29Z</time>
      </trkpt>
      <trkpt lat="44.90606" lon="4.69839">
        <ele>614</ele>
        <time>2019-01-19T00:36:29Z</time>
      </trkpt>
      <trkpt lat="44.90611" lon="4.69823">
        <ele>614</ele>
        <time>2019-01-19T00:37:29Z</time>
      </trkpt>
      <trkpt lat="44.90618" lon="4.69809">
        <ele>614</ele>
        <time>2019-01-19T00:38:29Z</time>
      </trkpt>
      <trkpt lat="44.90628" lon="4.69798">
        <ele>615</ele>
        <time>2019-01-19T00:39:29Z</time>
      </trkpt>
      <trkpt lat="44.90642" lon="4.69788">
        <ele>615</ele>
        <time>2019-01-19T00:40:29Z</time>
      </trkpt>
      <trkpt lat="44.90684" lon="4.69789">
        <ele>613</ele>
        <time>2019-01-19T00:41:29Z</time>
      </trkpt>
      <trkpt lat="44.90707" lon="4.69782">
        <ele>613</ele>
        <time>2019-01-19T00:42:29Z</time>
      </trkpt>
      <trkpt lat="44.90719" lon="4.69771">
        <ele>613</ele>
        <time>2019-01-19T00:43:29Z</time>
      </trkpt>
      <trkpt lat="44.90727" lon="4.69754">
        <ele>613</ele>
        <time>2019-01-19T00:44:29Z</time>
      </trkpt>
      <trkpt lat="44.90723" lon="4.69665">
        <ele>619</ele>
        <time>2019-01-19T00:45:29Z</time>
      </trkpt>
      <trkpt lat="44.90739" lon="4.69595">
        <ele>622</ele>
        <time>2019-01-19T00:46:29Z</time>
      </trkpt>
      <trkpt lat="44.90752" lon="4.69509">
        <ele>625</ele>
        <time>2019-01-19T00:47:29Z</time>
      </trkpt>
      <trkpt lat="44.90727" lon="4.69337">
        <ele>633</ele>
        <time>2019-01-19T00:48:29Z</time>
      </trkpt>
      <trkpt lat="44.90726" lon="4.69247">
        <ele>634</ele>
        <time>2019-01-19T00:49:29Z</time>
      </trkpt>
      <trkpt lat="44.90739" lon="4.69048">
        <ele>639</ele>
        <time>2019-01-19T00:50:29Z</time>
      </trkpt>
      <trkpt lat="44.90709" lon="4.68854">
        <ele>645</ele>
        <time>2019-01-19T00:51:29Z</time>
      </trkpt>
      <trkpt lat="44.90715" lon="4.68818">
        <ele>646</ele>
        <time>2019-01-19T00:52:29Z</time>
      </trkpt>
      <trkpt lat="44.90729" lon="4.68789">
        <ele>648</ele>
        <time>2019-01-19T00:53:29Z</time>
      </trkpt>
      <trkpt lat="44.90743" lon="4.68776">
        <ele>649</ele>
        <time>2019-01-19T00:54:29Z</time>
      </trkpt>
      <trkpt lat="44.90809" lon="4.68765">
        <ele>649</ele>
        <time>2019-01-19T00:55:29Z</time>
      </trkpt>
      <trkpt lat="44.9083" lon="4.68746">
        <ele>651</ele>
        <time>2019-01-19T00:56:29Z</time>
      </trkpt>
      <trkpt lat="44.90846" lon="4.68714">
        <ele>652</ele>
        <time>2019-01-19T00:57:29Z</time>
      </trkpt>
      <trkpt lat="44.90868" lon="4.68591">
        <ele>657</ele>
        <time>2019-01-19T00:58:29Z</time>
      </trkpt>
      <trkpt lat="44.90884" lon="4.68552">
        <ele>663</ele>
        <time>2019-01-19T00:59:29Z</time>
      </trkpt>
      <trkpt lat="44.90902" lon="4.68526">
        <ele>668</ele>
        <time>2019-01-19T01:00:29Z</time>
      </trkpt>
      <trkpt lat="44.90935" lon="4.6851">
        <ele>669</ele>
        <time>2019-01-19T01:01:29Z</time>
      </trkpt>
      <trkpt lat="44.90992" lon="4.68473">
        <ele>670</ele>
        <time>2019-01-19T01:02:29Z</time>
      </trkpt>
      <trkpt lat="44.91013" lon="4.68447">
        <ele>669</ele>
        <time>2019-01-19T01:03:29Z</time>
      </trkpt>
      <trkpt lat="44.91022" lon="4.684">
        <ele>670</ele>
        <time>2019-01-19T01:04:29Z</time>
      </trkpt>
      <trkpt lat="44.91019" lon="4.6831">
        <ele>673</ele>
        <time>2019-01-19T01:05:29Z</time>
      </trkpt>
      <trkpt lat="44.91004" lon="4.68259">
        <ele>675</ele>
        <time>2019-01-19T01:06:29Z</time>
      </trkpt>
      <trkpt lat="44.90892" lon="4.68018">
        <ele>681</ele>
        <time>2019-01-19T01:07:29Z</time>
      </trkpt>
      <trkpt lat="44.90878" lon="4.68">
        <ele>681</ele>
        <time>2019-01-19T01:08:29Z</time>
      </trkpt>
      <trkpt lat="44.90858" lon="4.6798">
        <ele>683</ele>
        <time>2019-01-19T01:09:29Z</time>
      </trkpt>
      <trkpt lat="44.90845" lon="4.67971">
        <ele>683</ele>
        <time>2019-01-19T01:10:29Z</time>
      </trkpt>
      <trkpt lat="44.90829" lon="4.67968">
        <ele>683</ele>
        <time>2019-01-19T01:11:29Z</time>
      </trkpt>
      <trkpt lat="44.90758" lon="4.67921">
        <ele>680</ele>
        <time>2019-01-19T01:12:29Z</time>
      </trkpt>
      <trkpt lat="44.90519" lon="4.67565">
        <ele>674</ele>
        <time>2019-01-19T01:13:29Z</time>
      </trkpt>
      <trkpt lat="44.90489" lon="4.67506">
        <ele>670</ele>
        <time>2019-01-19T01:14:29Z</time>
      </trkpt>
      <trkpt lat="44.90474" lon="4.67466">
        <ele>666</ele>
        <time>2019-01-19T01:15:29Z</time>
      </trkpt>
      <trkpt lat="44.90488" lon="4.67399">
        <ele>669</ele>
        <time>2019-01-19T01:16:29Z</time>
      </trkpt>
      <trkpt lat="44.90518" lon="4.67345">
        <ele>669</ele>
        <time>2019-01-19T01:17:29Z</time>
      </trkpt>
      <trkpt lat="44.90557" lon="4.67305">
        <ele>667</ele>
        <time>2019-01-19T01:18:29Z</time>
      </trkpt>
      <trkpt lat="44.90601" lon="4.6728">
        <ele>667</ele>
        <time>2019-01-19T01:19:29Z</time>
      </trkpt>
      <trkpt lat="44.90622" lon="4.67263">
        <ele>666</ele>
        <time>2019-01-19T01:20:29Z</time>
      </trkpt>
      <trkpt lat="44.90635" lon="4.67239">
        <ele>664</ele>
        <time>2019-01-19T01:21:29Z</time>
      </trkpt>
      <trkpt lat="44.90645" lon="4.67215">
        <ele>662</ele>
        <time>2019-01-19T01:22:29Z</time>
      </trkpt>
      <trkpt lat="44.90652" lon="4.67192">
        <ele>661</ele>
        <time>2019-01-19T01:23:29Z</time>
      </trkpt>
      <trkpt lat="44.90654" lon="4.67159">
        <ele>658</ele>
        <time>2019-01-19T01:24:29Z</time>
      </trkpt>
      <trkpt lat="44.90643" lon="4.67122">
        <ele>655</ele>
        <time>2019-01-19T01:25:29Z</time>
      </trkpt>
      <trkpt lat="44.90629" lon="4.67093">
        <ele>651</ele>
        <time>2019-01-19T01:26:29Z</time>
      </trkpt>
      <trkpt lat="44.90595" lon="4.66962">
        <ele>648</ele>
        <time>2019-01-19T01:27:29Z</time>
      </trkpt>
      <trkpt lat="44.90573" lon="4.6689">
        <ele>647</ele>
        <time>2019-01-19T01:28:29Z</time>
      </trkpt>
      <trkpt lat="44.90573" lon="4.66852">
        <ele>647</ele>
        <time>2019-01-19T01:29:29Z</time>
      </trkpt>
      <trkpt lat="44.90594" lon="4.66789">
        <ele>645</ele>
        <time>2019-01-19T01:30:29Z</time>
      </trkpt>
      <trkpt lat="44.90619" lon="4.66758">
        <ele>645</ele>
        <time>2019-01-19T01:31:29Z</time>
      </trkpt>
      <trkpt lat="44.90714" lon="4.66684">
        <ele>641</ele>
        <time>2019-01-19T01:32:29Z</time>
      </trkpt>
      <trkpt lat="44.90805" lon="4.66587">
        <ele>629</ele>
        <time>2019-01-19T01:33:29Z</time>
      </trkpt>
      <trkpt lat="44.90829" lon="4.66576">
        <ele>630</ele>
        <time>2019-01-19T01:34:29Z</time>
      </trkpt>
      <trkpt lat="44.90852" lon="4.66575">
        <ele>631</ele>
        <time>2019-01-19T01:35:29Z</time>
      </trkpt>
      <trkpt lat="44.90896" lon="4.66584">
        <ele>634</ele>
        <time>2019-01-19T01:36:29Z</time>
      </trkpt>
      <trkpt lat="44.90915" lon="4.66582">
        <ele>634</ele>
        <time>2019-01-19T01:37:29Z</time>
      </trkpt>
      <trkpt lat="44.9094" lon="4.66567">
        <ele>633</ele>
        <time>2019-01-19T01:38:29Z</time>
      </trkpt>
      <trkpt lat="44.91005" lon="4.66479">
        <ele>623</ele>
        <time>2019-01-19T01:39:29Z</time>
      </trkpt>
      <trkpt lat="44.9104" lon="4.66455">
        <ele>624</ele>
        <time>2019-01-19T01:40:29Z</time>
      </trkpt>
      <trkpt lat="44.9106" lon="4.66444">
        <ele>625</ele>
        <time>2019-01-19T01:41:29Z</time>
      </trkpt>
      <trkpt lat="44.9107" lon="4.66432">
        <ele>625</ele>
        <time>2019-01-19T01:42:29Z</time>
      </trkpt>
      <trkpt lat="44.91075" lon="4.66417">
        <ele>625</ele>
        <time>2019-01-19T01:43:29Z</time>
      </trkpt>
      <trkpt lat="44.91076" lon="4.66398">
        <ele>626</ele>
        <time>2019-01-19T01:44:29Z</time>
      </trkpt>
      <trkpt lat="44.91072" lon="4.66378">
        <ele>627</ele>
        <time>2019-01-19T01:45:29Z</time>
      </trkpt>
      <trkpt lat="44.91064" lon="4.66364">
        <ele>626</ele>
        <time>2019-01-19T01:46:29Z</time>
      </trkpt>
      <trkpt lat="44.91018" lon="4.66303">
        <ele>620</ele>
        <time>2019-01-19T01:47:29Z</time>
      </trkpt>
      <trkpt lat="44.9098" lon="4.66269">
        <ele>616</ele>
        <time>2019-01-19T01:48:29Z</time>
      </trkpt>
      <trkpt lat="44.90945" lon="4.66251">
        <ele>613</ele>
        <time>2019-01-19T01:49:29Z</time>
      </trkpt>
      <trkpt lat="44.90929" lon="4.66231">
        <ele>612</ele>
        <time>2019-01-19T01:50:29Z</time>
      </trkpt>
      <trkpt lat="44.90923" lon="4.66198">
        <ele>613</ele>
        <time>2019-01-19T01:51:29Z</time>
      </trkpt>
      <trkpt lat="44.90943" lon="4.66076">
        <ele>613</ele>
        <time>2019-01-19T01:52:29Z</time>
      </trkpt>
      <trkpt lat="44.90947" lon="4.66043">
        <ele>613</ele>
        <time>2019-01-19T01:53:29Z</time>
      </trkpt>
      <trkpt lat="44.90936" lon="4.66006">
        <ele>611</ele>
        <time>2019-01-19T01:54:29Z</time>
      </trkpt>
      <trkpt lat="44.90911" lon="4.65984">
        <ele>606</ele>
        <time>2019-01-19T01:55:29Z</time>
      </trkpt>
      <trkpt lat="44.90902" lon="4.6596">
        <ele>605</ele>
        <time>2019-01-19T01:56:29Z</time>
      </trkpt>
      <trkpt lat="44.90902" lon="4.65933">
        <ele>605</ele>
        <time>2019-01-19T01:57:29Z</time>
      </trkpt>
      <trkpt lat="44.90933" lon="4.65826">
        <ele>608</ele>
        <time>2019-01-19T01:58:29Z</time>
      </trkpt>
      <trkpt lat="44.90943" lon="4.65799">
        <ele>610</ele>
        <time>2019-01-19T01:59:29Z</time>
      </trkpt>
      <trkpt lat="44.90956" lon="4.65705">
        <ele>609</ele>
        <time>2019-01-19T02:00:29Z</time>
      </trkpt>
      <trkpt lat="44.9095" lon="4.65607">
        <ele>601</ele>
        <time>2019-01-19T02:01:29Z</time>
      </trkpt>
      <trkpt lat="44.90942" lon="4.65535">
        <ele>596</ele>
        <time>2019-01-19T02:02:29Z</time>
      </trkpt>
      <trkpt lat="44.90943" lon="4.65493">
        <ele>594</ele>
        <time>2019-01-19T02:03:29Z</time>
      </trkpt>
      <trkpt lat="44.90952" lon="4.65464">
        <ele>594</ele>
        <time>2019-01-19T02:04:29Z</time>
      </trkpt>
      <trkpt lat="44.90969" lon="4.65428">
        <ele>593</ele>
        <time>2019-01-19T02:05:29Z</time>
      </trkpt>
      <trkpt lat="44.90989" lon="4.65403">
        <ele>593</ele>
        <time>2019-01-19T02:06:29Z</time>
      </trkpt>
      <trkpt lat="44.91" lon="4.65382">
        <ele>593</ele>
        <time>2019-01-19T02:07:29Z</time>
      </trkpt>
      <trkpt lat="44.91005" lon="4.65332">
        <ele>591</ele>
        <time>2019-01-19T02:08:29Z</time>
      </trkpt>
      <trkpt lat="44.90999" lon="4.65285">
        <ele>590</ele>
        <time>2019-01-19T02:09:29Z</time>
      </trkpt>
      <trkpt lat="44.9098" lon="4.65237">
        <ele>589</ele>
        <time>2019-01-19T02:10:29Z</time>
      </trkpt>
      <trkpt lat="44.90927" lon="4.65197">
        <ele>587</ele>
        <time>2019-01-19T02:11:29Z</time>
      </trkpt>
      <trkpt lat="44.90851" lon="4.65183">
        <ele>586</ele>
        <time>2019-01-19T02:12:29Z</time>
      </trkpt>
      <trkpt lat="44.90773" lon="4.65148">
        <ele>586</ele>
        <time>2019-01-19T02:13:29Z</time>
      </trkpt>
      <trkpt lat="44.90505" lon="4.65042">
        <ele>585</ele>
        <time>2019-01-19T02:14:29Z</time>
      </trkpt>
      <trkpt lat="44.90398" lon="4.6499">
        <ele>583</ele>
        <time>2019-01-19T02:15:29Z</time>
      </trkpt>
      <trkpt lat="44.90017" lon="4.64847">
        <ele>585</ele>
        <time>2019-01-19T02:16:29Z</time>
      </trkpt>
      <trkpt lat="44.89897" lon="4.64799">
        <ele>585</ele>
        <time>2019-01-19T02:17:29Z</time>
      </trkpt>
      <trkpt lat="44.89802" lon="4.64761">
        <ele>586</ele>
        <time>2019-01-19T02:18:29Z</time>
      </trkpt>
      <trkpt lat="44.89764" lon="4.64735">
        <ele>586</ele>
        <time>2019-01-19T02:19:29Z</time>
      </trkpt>
      <trkpt lat="44.89748" lon="4.64717">
        <ele>585</ele>
        <time>2019-01-19T02:20:29Z</time>
      </trkpt>
      <trkpt lat="44.89697" lon="4.64644">
        <ele>585</ele>
        <time>2019-01-19T02:21:29Z</time>
      </trkpt>
      <trkpt lat="44.89689" lon="4.64629">
        <ele>586</ele>
        <time>2019-01-19T02:22:29Z</time>
      </trkpt>
      <trkpt lat="44.89663" lon="4.64569">
        <ele>587</ele>
        <time>2019-01-19T02:23:29Z</time>
      </trkpt>
      <trkpt lat="44.89645" lon="4.64512">
        <ele>589</ele>
        <time>2019-01-19T02:24:29Z</time>
      </trkpt>
      <trkpt lat="44.89643" lon="4.64494">
        <ele>589</ele>
        <time>2019-01-19T02:25:29Z</time>
      </trkpt>
      <trkpt lat="44.89639" lon="4.64475">
        <ele>590</ele>
        <time>2019-01-19T02:26:29Z</time>
      </trkpt>
      <trkpt lat="44.89677" lon="4.64441">
        <ele>589</ele>
        <time>2019-01-19T02:27:29Z</time>
      </trkpt>
      <trkpt lat="44.89679" lon="4.64419">
        <ele>589</ele>
        <time>2019-01-19T02:28:29Z</time>
      </trkpt>
      <trkpt lat="44.89701" lon="4.64303">
        <ele>583</ele>
        <time>2019-01-19T02:29:29Z</time>
      </trkpt>
      <trkpt lat="44.89712" lon="4.64191">
        <ele>576</ele>
        <time>2019-01-19T02:30:29Z</time>
      </trkpt>
      <trkpt lat="44.89719" lon="4.64147">
        <ele>573</ele>
        <time>2019-01-19T02:31:29Z</time>
      </trkpt>
      <trkpt lat="44.89731" lon="4.64112">
        <ele>572</ele>
        <time>2019-01-19T02:32:29Z</time>
      </trkpt>
      <trkpt lat="44.89763" lon="4.64066">
        <ele>570</ele>
        <time>2019-01-19T02:33:29Z</time>
      </trkpt>
      <trkpt lat="44.89793" lon="4.64028">
        <ele>568</ele>
        <time>2019-01-19T02:34:29Z</time>
      </trkpt>
      <trkpt lat="44.89844" lon="4.63982">
        <ele>565</ele>
        <time>2019-01-19T02:35:29Z</time>
      </trkpt>
      <trkpt lat="44.89876" lon="4.63959">
        <ele>564</ele>
        <time>2019-01-19T02:36:29Z</time>
      </trkpt>
      <trkpt lat="44.89891" lon="4.63934">
        <ele>563</ele>
        <time>2019-01-19T02:37:29Z</time>
      </trkpt>
      <trkpt lat="44.89894" lon="4.63908">
        <ele>562</ele>
        <time>2019-01-19T02:38:29Z</time>
      </trkpt>
      <trkpt lat="44.89886" lon="4.63885">
        <ele>560</ele>
        <time>2019-01-19T02:39:29Z</time>
      </trkpt>
      <trkpt lat="44.89868" lon="4.6387">
        <ele>559</ele>
        <time>2019-01-19T02:40:29Z</time>
      </trkpt>
      <trkpt lat="44.89827" lon="4.63854">
        <ele>558</ele>
        <time>2019-01-19T02:41:29Z</time>
      </trkpt>
      <trkpt lat="44.89821" lon="4.6385">
        <ele>558</ele>
        <time>2019-01-19T02:42:29Z</time>
      </trkpt>
      <trkpt lat="44.89821" lon="4.63831">
        <ele>555</ele>
        <time>2019-01-19T02:43:29Z</time>
      </trkpt>
      <trkpt lat="44.89832" lon="4.63823">
        <ele>555</ele>
        <time>2019-01-19T02:44:29Z</time>
      </trkpt>
      <trkpt lat="44.89849" lon="4.63815">
        <ele>554</ele>
        <time>2019-01-19T02:45:29Z</time>
      </trkpt>
      <trkpt lat="44.89864" lon="4.63803">
        <ele>552</ele>
        <time>2019-01-19T02:46:29Z</time>
      </trkpt>
      <trkpt lat="44.89884" lon="4.63778">
        <ele>550</ele>
        <time>2019-01-19T02:47:29Z</time>
      </trkpt>
      <trkpt lat="44.89931" lon="4.63704">
        <ele>543</ele>
        <time>2019-01-19T02:48:29Z</time>
      </trkpt>
      <trkpt lat="44.89948" lon="4.6367">
        <ele>540</ele>
        <time>2019-01-19T02:49:29Z</time>
      </trkpt>
      <trkpt lat="44.89959" lon="4.63639">
        <ele>538</ele>
        <time>2019-01-19T02:50:29Z</time>
      </trkpt>
      <trkpt lat="44.89983" lon="4.63556">
        <ele>533</ele>
        <time>2019-01-19T02:51:29Z</time>
      </trkpt>
      <trkpt lat="44.89992" lon="4.63511">
        <ele>531</ele>
        <time>2019-01-19T02:52:29Z</time>
      </trkpt>
      <trkpt lat="44.90005" lon="4.6347">
        <ele>531</ele>
        <time>2019-01-19T02:53:29Z</time>
      </trkpt>
      <trkpt lat="44.90028" lon="4.63451">
        <ele>531</ele>
        <time>2019-01-19T02:54:29Z</time>
      </trkpt>
      <trkpt lat="44.9012" lon="4.63417">
        <ele>528</ele>
        <time>2019-01-19T02:55:29Z</time>
      </trkpt>
      <trkpt lat="44.90172" lon="4.6343">
        <ele>528</ele>
        <time>2019-01-19T02:56:29Z</time>
      </trkpt>
      <trkpt lat="44.90194" lon="4.63397">
        <ele>529</ele>
        <time>2019-01-19T02:57:29Z</time>
      </trkpt>
      <trkpt lat="44.90215" lon="4.63377">
        <ele>530</ele>
        <time>2019-01-19T02:58:29Z</time>
      </trkpt>
      <trkpt lat="44.90241" lon="4.63373">
        <ele>531</ele>
        <time>2019-01-19T02:59:29Z</time>
      </trkpt>
      <trkpt lat="44.90249" lon="4.63357">
        <ele>531</ele>
        <time>2019-01-19T03:00:29Z</time>
      </trkpt>
      <trkpt lat="44.90274" lon="4.63244">
        <ele>539</ele>
        <time>2019-01-19T03:01:29Z</time>
      </trkpt>
      <trkpt lat="44.90306" lon="4.6313">
        <ele>545</ele>
        <time>2019-01-19T03:02:29Z</time>
      </trkpt>
      <trkpt lat="44.90345" lon="4.63024">
        <ele>547</ele>
        <time>2019-01-19T03:03:29Z</time>
      </trkpt>
      <trkpt lat="44.90381" lon="4.62943">
        <ele>549</ele>
        <time>2019-01-19T03:04:29Z</time>
      </trkpt>
      <trkpt lat="44.90439" lon="4.62859">
        <ele>555</ele>
        <time>2019-01-19T03:05:29Z</time>
      </trkpt>
      <trkpt lat="44.90467" lon="4.62823">
        <ele>559</ele>
        <time>2019-01-19T03:06:29Z</time>
      </trkpt>
      <trkpt lat="44.90484" lon="4.62792">
        <ele>560</ele>
        <time>2019-01-19T03:07:29Z</time>
      </trkpt>
      <trkpt lat="44.90471" lon="4.62747">
        <ele>559</ele>
        <time>2019-01-19T03:08:29Z</time>
      </trkpt>
      <trkpt lat="44.9046" lon="4.627">
        <ele>559</ele>
        <time>2019-01-19T03:09:29Z</time>
      </trkpt>
      <trkpt lat="44.90467" lon="4.62671">
        <ele>560</ele>
        <time>2019-01-19T03:10:29Z</time>
      </trkpt>
      <trkpt lat="44.90492" lon="4.62597">
        <ele>564</ele>
        <time>2019-01-19T03:11:29Z</time>
      </trkpt>
      <trkpt lat="44.90493" lon="4.62532">
        <ele>568</ele>
        <time>2019-01-19T03:12:29Z</time>
      </trkpt>
      <trkpt lat="44.90497" lon="4.62487">
        <ele>571</ele>
        <time>2019-01-19T03:13:29Z</time>
      </trkpt>
      <trkpt lat="44.90522" lon="4.62414">
        <ele>577</ele>
        <time>2019-01-19T03:14:29Z</time>
      </trkpt>
      <trkpt lat="44.90531" lon="4.62328">
        <ele>578</ele>
        <time>2019-01-19T03:15:29Z</time>
      </trkpt>
      <trkpt lat="44.90539" lon="4.62271">
        <ele>579</ele>
        <time>2019-01-19T03:16:29Z</time>
      </trkpt>
      <trkpt lat="44.90554" lon="4.62235">
        <ele>580</ele>
        <time>2019-01-19T03:17:29Z</time>
      </trkpt>
      <trkpt lat="44.90616" lon="4.62166">
        <ele>582</ele>
        <time>2019-01-19T03:18:29Z</time>
      </trkpt>
      <trkpt lat="44.90681" lon="4.62057">
        <ele>586</ele>
        <time>2019-01-19T03:19:29Z</time>
      </trkpt>
      <trkpt lat="44.9069" lon="4.62028">
        <ele>587</ele>
        <time>2019-01-19T03:20:29Z</time>
      </trkpt>
      <trkpt lat="44.9071" lon="4.61922">
        <ele>596</ele>
        <time>2019-01-19T03:21:29Z</time>
      </trkpt>
      <trkpt lat="44.90719" lon="4.61858">
        <ele>595</ele>
        <time>2019-01-19T03:22:29Z</time>
      </trkpt>
      <trkpt lat="44.90763" lon="4.61776">
        <ele>595</ele>
        <time>2019-01-19T03:23:29Z</time>
      </trkpt>
      <trkpt lat="44.90779" lon="4.61729">
        <ele>592</ele>
        <time>2019-01-19T03:24:29Z</time>
      </trkpt>
      <trkpt lat="44.90792" lon="4.61708">
        <ele>592</ele>
        <time>2019-01-19T03:25:29Z</time>
      </trkpt>
      <trkpt lat="44.90837" lon="4.61664">
        <ele>593</ele>
        <time>2019-01-19T03:26:29Z</time>
      </trkpt>
      <trkpt lat="44.90869" lon="4.61611">
        <ele>591</ele>
        <time>2019-01-19T03:27:29Z</time>
      </trkpt>
      <trkpt lat="44.9088" lon="4.61552">
        <ele>589</ele>
        <time>2019-01-19T03:28:29Z</time>
      </trkpt>
      <trkpt lat="44.90882" lon="4.61491">
        <ele>588</ele>
        <time>2019-01-19T03:29:29Z</time>
      </trkpt>
      <trkpt lat="44.90868" lon="4.61444">
        <ele>588</ele>
        <time>2019-01-19T03:30:29Z</time>
      </trkpt>
      <trkpt lat="44.90864" lon="4.61411">
        <ele>588</ele>
        <time>2019-01-19T03:31:29Z</time>
      </trkpt>
      <trkpt lat="44.90886" lon="4.61343">
        <ele>586</ele>
        <time>2019-01-19T03:32:29Z</time>
      </trkpt>
      <trkpt lat="44.90992" lon="4.61272">
        <ele>589</ele>
        <time>2019-01-19T03:33:29Z</time>
      </trkpt>
      <trkpt lat="44.91023" lon="4.61259">
        <ele>589</ele>
        <time>2019-01-19T03:34:29Z</time>
      </trkpt>
      <trkpt lat="44.9105" lon="4.6125">
        <ele>588</ele>
        <time>2019-01-19T03:35:29Z</time>
      </trkpt>
      <trkpt lat="44.91078" lon="4.61257">
        <ele>591</ele>
        <time>2019-01-19T03:36:29Z</time>
      </trkpt>
      <trkpt lat="44.91107" lon="4.61272">
        <ele>594</ele>
        <time>2019-01-19T03:37:29Z</time>
      </trkpt>
      <trkpt lat="44.9113" lon="4.61288">
        <ele>597</ele>
        <time>2019-01-19T03:38:29Z</time>
      </trkpt>
      <trkpt lat="44.91163" lon="4.61296">
        <ele>599</ele>
        <time>2019-01-19T03:39:29Z</time>
      </trkpt>
      <trkpt lat="44.91195" lon="4.61283">
        <ele>596</ele>
        <time>2019-01-19T03:40:29Z</time>
      </trkpt>
      <trkpt lat="44.91242" lon="4.61252">
        <ele>592</ele>
        <time>2019-01-19T03:41:29Z</time>
      </trkpt>
      <trkpt lat="44.91267" lon="4.61233">
        <ele>589</ele>
        <time>2019-01-19T03:42:29Z</time>
      </trkpt>
      <trkpt lat="44.91285" lon="4.61207">
        <ele>585</ele>
        <time>2019-01-19T03:43:29Z</time>
      </trkpt>
      <trkpt lat="44.91318" lon="4.61145">
        <ele>577</ele>
        <time>2019-01-19T03:44:29Z</time>
      </trkpt>
      <trkpt lat="44.91329" lon="4.61132">
        <ele>576</ele>
        <time>2019-01-19T03:45:29Z</time>
      </trkpt>
      <trkpt lat="44.9134" lon="4.61124">
        <ele>575</ele>
        <time>2019-01-19T03:46:29Z</time>
      </trkpt>
      <trkpt lat="44.91369" lon="4.61119">
        <ele>575</ele>
        <time>2019-01-19T03:47:29Z</time>
      </trkpt>
      <trkpt lat="44.91446" lon="4.6111">
        <ele>576</ele>
        <time>2019-01-19T03:48:29Z</time>
      </trkpt>
      <trkpt lat="44.91458" lon="4.611">
        <ele>576</ele>
        <time>2019-01-19T03:49:29Z</time>
      </trkpt>
      <trkpt lat="44.91465" lon="4.61077">
        <ele>576</ele>
        <time>2019-01-19T03:50:29Z</time>
      </trkpt>
      <trkpt lat="44.91429" lon="4.60995">
        <ele>572</ele>
        <time>2019-01-19T03:51:29Z</time>
      </trkpt>
      <trkpt lat="44.91403" lon="4.60931">
        <ele>570</ele>
        <time>2019-01-19T03:52:29Z</time>
      </trkpt>
      <trkpt lat="44.91384" lon="4.60903">
        <ele>569</ele>
        <time>2019-01-19T03:53:29Z</time>
      </trkpt>
      <trkpt lat="44.91374" lon="4.60879">
        <ele>568</ele>
        <time>2019-01-19T03:54:29Z</time>
      </trkpt>
      <trkpt lat="44.91373" lon="4.60859">
        <ele>568</ele>
        <time>2019-01-19T03:55:29Z</time>
      </trkpt>
      <trkpt lat="44.9138" lon="4.60824">
        <ele>568</ele>
        <time>2019-01-19T03:56:29Z</time>
      </trkpt>
      <trkpt lat="44.91406" lon="4.60753">
        <ele>566</ele>
        <time>2019-01-19T03:57:29Z</time>
      </trkpt>
      <trkpt lat="44.91419" lon="4.60724">
        <ele>566</ele>
        <time>2019-01-19T03:58:29Z</time>
      </trkpt>
      <trkpt lat="44.91435" lon="4.60677">
        <ele>566</ele>
        <time>2019-01-19T03:59:29Z</time>
      </trkpt>
      <trkpt lat="44.91433" lon="4.60651">
        <ele>566</ele>
        <time>2019-01-19T04:00:29Z</time>
      </trkpt>
      <trkpt lat="44.91427" lon="4.60631">
        <ele>567</ele>
        <time>2019-01-19T04:01:29Z</time>
      </trkpt>
      <trkpt lat="44.91401" lon="4.60598">
        <ele>570</ele>
        <time>2019-01-19T04:02:29Z</time>
      </trkpt>
      <trkpt lat="44.91396" lon="4.60578">
        <ele>571</ele>
        <time>2019-01-19T04:03:29Z</time>
      </trkpt>
      <trkpt lat="44.91395" lon="4.60566">
        <ele>573</ele>
        <time>2019-01-19T04:04:29Z</time>
      </trkpt>
      <trkpt lat="44.91398" lon="4.60557">
        <ele>574</ele>
        <time>2019-01-19T04:05:29Z</time>
      </trkpt>
      <trkpt lat="44.91406" lon="4.60548">
        <ele>575</ele>
        <time>2019-01-19T04:06:29Z</time>
      </trkpt>
      <trkpt lat="44.9148" lon="4.60524">
        <ele>576</ele>
        <time>2019-01-19T04:07:29Z</time>
      </trkpt>
      <trkpt lat="44.91496" lon="4.60509">
        <ele>578</ele>
        <time>2019-01-19T04:08:29Z</time>
      </trkpt>
      <trkpt lat="44.91514" lon="4.60474">
        <ele>581</ele>
        <time>2019-01-19T04:09:29Z</time>
      </trkpt>
      <trkpt lat="44.91542" lon="4.60431">
        <ele>585</ele>
        <time>2019-01-19T04:10:29Z</time>
      </trkpt>
      <trkpt lat="44.91547" lon="4.60416">
        <ele>587</ele>
        <time>2019-01-19T04:11:29Z</time>
      </trkpt>
      <trkpt lat="44.91539" lon="4.60396">
        <ele>588</ele>
        <time>2019-01-19T04:12:29Z</time>
      </trkpt>
      <trkpt lat="44.91507" lon="4.6038">
        <ele>591</ele>
        <time>2019-01-19T04:13:29Z</time>
      </trkpt>
      <trkpt lat="44.9145" lon="4.60322">
        <ele>597</ele>
        <time>2019-01-19T04:14:29Z</time>
      </trkpt>
      <trkpt lat="44.91433" lon="4.603">
        <ele>599</ele>
        <time>2019-01-19T04:15:29Z</time>
      </trkpt>
      <trkpt lat="44.9141" lon="4.60272">
        <ele>600</ele>
        <time>2019-01-19T04:16:29Z</time>
      </trkpt>
      <trkpt lat="44.91388" lon="4.60239">
        <ele>602</ele>
        <time>2019-01-19T04:17:29Z</time>
      </trkpt>
      <trkpt lat="44.91366" lon="4.60213">
        <ele>604</ele>
        <time>2019-01-19T04:18:29Z</time>
      </trkpt>
      <trkpt lat="44.91345" lon="4.60178">
        <ele>607</ele>
        <time>2019-01-19T04:19:29Z</time>
      </trkpt>
      <trkpt lat="44.91346" lon="4.6016">
        <ele>609</ele>
        <time>2019-01-19T04:20:29Z</time>
      </trkpt>
      <trkpt lat="44.91352" lon="4.60147">
        <ele>609</ele>
        <time>2019-01-19T04:21:29Z</time>
      </trkpt>
      <trkpt lat="44.91371" lon="4.60137">
        <ele>611</ele>
        <time>2019-01-19T04:22:29Z</time>
      </trkpt>
      <trkpt lat="44.91405" lon="4.60114">
        <ele>616</ele>
        <time>2019-01-19T04:23:29Z</time>
      </trkpt>
      <trkpt lat="44.91442" lon="4.60079">
        <ele>620</ele>
        <time>2019-01-19T04:24:29Z</time>
      </trkpt>
      <trkpt lat="44.91462" lon="4.60054">
        <ele>621</ele>
        <time>2019-01-19T04:25:29Z</time>
      </trkpt>
      <trkpt lat="44.91478" lon="4.60009">
        <ele>626</ele>
        <time>2019-01-19T04:26:29Z</time>
      </trkpt>
      <trkpt lat="44.9149" lon="4.59946">
        <ele>630</ele>
        <time>2019-01-19T04:27:29Z</time>
      </trkpt>
      <trkpt lat="44.91538" lon="4.59778">
        <ele>641</ele>
        <time>2019-01-19T04:28:29Z</time>
      </trkpt>
      <trkpt lat="44.91552" lon="4.59715">
        <ele>642</ele>
        <time>2019-01-19T04:29:29Z</time>
      </trkpt>
      <trkpt lat="44.9156" lon="4.59694">
        <ele>642</ele>
        <time>2019-01-19T04:30:29Z</time>
      </trkpt>
      <trkpt lat="44.91574" lon="4.5968">
        <ele>645</ele>
        <time>2019-01-19T04:31:29Z</time>
      </trkpt>
      <trkpt lat="44.91606" lon="4.59671">
        <ele>653</ele>
        <time>2019-01-19T04:32:29Z</time>
      </trkpt>
      <trkpt lat="44.91636" lon="4.5965">
        <ele>658</ele>
        <time>2019-01-19T04:33:29Z</time>
      </trkpt>
      <trkpt lat="44.91674" lon="4.59606">
        <ele>664</ele>
        <time>2019-01-19T04:34:29Z</time>
      </trkpt>
      <trkpt lat="44.9169" lon="4.59578">
        <ele>666</ele>
        <time>2019-01-19T04:35:29Z</time>
      </trkpt>
      <trkpt lat="44.91747" lon="4.59419">
        <ele>676</ele>
        <time>2019-01-19T04:36:29Z</time>
      </trkpt>
      <trkpt lat="44.91791" lon="4.59353">
        <ele>684</ele>
        <time>2019-01-19T04:37:29Z</time>
      </trkpt>
      <trkpt lat="44.91815" lon="4.59312">
        <ele>689</ele>
        <time>2019-01-19T04:38:29Z</time>
      </trkpt>
      <trkpt lat="44.91842" lon="4.59239">
        <ele>691</ele>
        <time>2019-01-19T04:39:29Z</time>
      </trkpt>
      <trkpt lat="44.91852" lon="4.59225">
        <ele>691</ele>
        <time>2019-01-19T04:40:29Z</time>
      </trkpt>
      <trkpt lat="44.91883" lon="4.59195">
        <ele>692</ele>
        <time>2019-01-19T04:41:29Z</time>
      </trkpt>
      <trkpt lat="44.91908" lon="4.59176">
        <ele>693</ele>
        <time>2019-01-19T04:42:29Z</time>
      </trkpt>
      <trkpt lat="44.91927" lon="4.59176">
        <ele>695</ele>
        <time>2019-01-19T04:43:29Z</time>
      </trkpt>
      <trkpt lat="44.91993" lon="4.59206">
        <ele>704</ele>
        <time>2019-01-19T04:44:29Z</time>
      </trkpt>
      <trkpt lat="44.9201" lon="4.59218">
        <ele>708</ele>
        <time>2019-01-19T04:45:29Z</time>
      </trkpt>
      <trkpt lat="44.92031" lon="4.59219">
        <ele>711</ele>
        <time>2019-01-19T04:46:29Z</time>
      </trkpt>
      <trkpt lat="44.92049" lon="4.59214">
        <ele>712</ele>
        <time>2019-01-19T04:47:29Z</time>
      </trkpt>
      <trkpt lat="44.92099" lon="4.59184">
        <ele>714</ele>
        <time>2019-01-19T04:48:29Z</time>
      </trkpt>
      <trkpt lat="44.92155" lon="4.59158">
        <ele>720</ele>
        <time>2019-01-19T04:49:29Z</time>
      </trkpt>
      <trkpt lat="44.92289" lon="4.59038">
        <ele>727</ele>
        <time>2019-01-19T04:50:29Z</time>
      </trkpt>
      <trkpt lat="44.92366" lon="4.58983">
        <ele>728</ele>
        <time>2019-01-19T04:51:29Z</time>
      </trkpt>
      <trkpt lat="44.92377" lon="4.58973">
        <ele>728</ele>
        <time>2019-01-19T04:52:29Z</time>
      </trkpt>
      <trkpt lat="44.92411" lon="4.58937">
        <ele>728</ele>
        <time>2019-01-19T04:53:29Z</time>
      </trkpt>
      <trkpt lat="44.92426" lon="4.58914">
        <ele>728</ele>
        <time>2019-01-19T04:54:29Z</time>
      </trkpt>
      <trkpt lat="44.92439" lon="4.58879">
        <ele>730</ele>
        <time>2019-01-19T04:55:29Z</time>
      </trkpt>
      <trkpt lat="44.92453" lon="4.58807">
        <ele>733</ele>
        <time>2019-01-19T04:56:29Z</time>
      </trkpt>
      <trkpt lat="44.92458" lon="4.58771">
        <ele>734</ele>
        <time>2019-01-19T04:57:29Z</time>
      </trkpt>
      <trkpt lat="44.92464" lon="4.58748">
        <ele>734</ele>
        <time>2019-01-19T04:58:29Z</time>
      </trkpt>
      <trkpt lat="44.9248" lon="4.58727">
        <ele>732</ele>
        <time>2019-01-19T04:59:29Z</time>
      </trkpt>
      <trkpt lat="44.92502" lon="4.58715">
        <ele>732</ele>
        <time>2019-01-19T05:00:29Z</time>
      </trkpt>
      <trkpt lat="44.92546" lon="4.58718">
        <ele>736</ele>
        <time>2019-01-19T05:01:29Z</time>
      </trkpt>
      <trkpt lat="44.92575" lon="4.58717">
        <ele>738</ele>
        <time>2019-01-19T05:02:29Z</time>
      </trkpt>
      <trkpt lat="44.92586" lon="4.58707">
        <ele>739</ele>
        <time>2019-01-19T05:03:29Z</time>
      </trkpt>
      <trkpt lat="44.92596" lon="4.58689">
        <ele>740</ele>
        <time>2019-01-19T05:04:29Z</time>
      </trkpt>
      <trkpt lat="44.92619" lon="4.58584">
        <ele>751</ele>
        <time>2019-01-19T05:05:29Z</time>
      </trkpt>
      <trkpt lat="44.92633" lon="4.58535">
        <ele>754</ele>
        <time>2019-01-19T05:06:29Z</time>
      </trkpt>
      <trkpt lat="44.92645" lon="4.58483">
        <ele>759</ele>
        <time>2019-01-19T05:07:29Z</time>
      </trkpt>
      <trkpt lat="44.92649" lon="4.58424">
        <ele>762</ele>
        <time>2019-01-19T05:08:29Z</time>
      </trkpt>
      <trkpt lat="44.92654" lon="4.58389">
        <ele>762</ele>
        <time>2019-01-19T05:09:29Z</time>
      </trkpt>
      <trkpt lat="44.92666" lon="4.58342">
        <ele>765</ele>
        <time>2019-01-19T05:10:29Z</time>
      </trkpt>
      <trkpt lat="44.92673" lon="4.5833">
        <ele>765</ele>
        <time>2019-01-19T05:11:29Z</time>
      </trkpt>
      <trkpt lat="44.92689" lon="4.58318">
        <ele>764</ele>
        <time>2019-01-19T05:12:29Z</time>
      </trkpt>
      <trkpt lat="44.92701" lon="4.5832">
        <ele>765</ele>
        <time>2019-01-19T05:13:29Z</time>
      </trkpt>
      <trkpt lat="44.92722" lon="4.58342">
        <ele>768</ele>
        <time>2019-01-19T05:14:29Z</time>
      </trkpt>
      <trkpt lat="44.92739" lon="4.58364">
        <ele>771</ele>
        <time>2019-01-19T05:15:29Z</time>
      </trkpt>
      <trkpt lat="44.92777" lon="4.5837">
        <ele>772</ele>
        <time>2019-01-19T05:16:29Z</time>
      </trkpt>
      <trkpt lat="44.92816" lon="4.58356">
        <ele>772</ele>
        <time>2019-01-19T05:17:29Z</time>
      </trkpt>
      <trkpt lat="44.92864" lon="4.58315">
        <ele>774</ele>
        <time>2019-01-19T05:18:29Z</time>
      </trkpt>
      <trkpt lat="44.92901" lon="4.58237">
        <ele>784</ele>
        <time>2019-01-19T05:19:29Z</time>
      </trkpt>
      <trkpt lat="44.92927" lon="4.58206">
        <ele>787</ele>
        <time>2019-01-19T05:20:29Z</time>
      </trkpt>
      <trkpt lat="44.92943" lon="4.58205">
        <ele>788</ele>
        <time>2019-01-19T05:21:29Z</time>
      </trkpt>
      <trkpt lat="44.92966" lon="4.58216">
        <ele>788</ele>
        <time>2019-01-19T05:22:29Z</time>
      </trkpt>
      <trkpt lat="44.92977" lon="4.58215">
        <ele>789</ele>
        <time>2019-01-19T05:23:29Z</time>
      </trkpt>
      <trkpt lat="44.92987" lon="4.58212">
        <ele>789</ele>
        <time>2019-01-19T05:24:29Z</time>
      </trkpt>
      <trkpt lat="44.93003" lon="4.58191">
        <ele>790</ele>
        <time>2019-01-19T05:25:29Z</time>
      </trkpt>
      <trkpt lat="44.93016" lon="4.58169">
        <ele>789</ele>
        <time>2019-01-19T05:26:29Z</time>
      </trkpt>
      <trkpt lat="44.93027" lon="4.58138">
        <ele>788</ele>
        <time>2019-01-19T05:27:29Z</time>
      </trkpt>
      <trkpt lat="44.93042" lon="4.58085">
        <ele>786</ele>
        <time>2019-01-19T05:28:29Z</time>
      </trkpt>
      <trkpt lat="44.93055" lon="4.58014">
        <ele>787</ele>
        <time>2019-01-19T05:29:29Z</time>
      </trkpt>
      <trkpt lat="44.93067" lon="4.57984">
        <ele>786</ele>
        <time>2019-01-19T05:30:29Z</time>
      </trkpt>
      <trkpt lat="44.93091" lon="4.57956">
        <ele>784</ele>
        <time>2019-01-19T05:31:29Z</time>
      </trkpt>
      <trkpt lat="44.93116" lon="4.57944">
        <ele>783</ele>
        <time>2019-01-19T05:32:29Z</time>
      </trkpt>
      <trkpt lat="44.93181" lon="4.57895">
        <ele>783</ele>
        <time>2019-01-19T05:33:29Z</time>
      </trkpt>
      <trkpt lat="44.93205" lon="4.57846">
        <ele>785</ele>
        <time>2019-01-19T05:34:29Z</time>
      </trkpt>
      <trkpt lat="44.93233" lon="4.57805">
        <ele>782</ele>
        <time>2019-01-19T05:35:29Z</time>
      </trkpt>
      <trkpt lat="44.93265" lon="4.57784">
        <ele>779</ele>
        <time>2019-01-19T05:36:29Z</time>
      </trkpt>
      <trkpt lat="44.9332" lon="4.57778">
        <ele>781</ele>
        <time>2019-01-19T05:37:29Z</time>
      </trkpt>
      <trkpt lat="44.93351" lon="4.57782">
        <ele>782</ele>
        <time>2019-01-19T05:38:29Z</time>
      </trkpt>
      <trkpt lat="44.9338" lon="4.57771">
        <ele>781</ele>
        <time>2019-01-19T05:39:29Z</time>
      </trkpt>
      <trkpt lat="44.9339" lon="4.5776">
        <ele>780</ele>
        <time>2019-01-19T05:40:29Z</time>
      </trkpt>
      <trkpt lat="44.93396" lon="4.57743">
        <ele>780</ele>
        <time>2019-01-19T05:41:29Z</time>
      </trkpt>
      <trkpt lat="44.934" lon="4.57703">
        <ele>779</ele>
        <time>2019-01-19T05:42:29Z</time>
      </trkpt>
      <trkpt lat="44.93419" lon="4.57667">
        <ele>780</ele>
        <time>2019-01-19T05:43:29Z</time>
      </trkpt>
      <trkpt lat="44.93451" lon="4.57636">
        <ele>779</ele>
        <time>2019-01-19T05:44:29Z</time>
      </trkpt>
      <trkpt lat="44.93464" lon="4.5761">
        <ele>778</ele>
        <time>2019-01-19T05:45:29Z</time>
      </trkpt>
      <trkpt lat="44.93468" lon="4.57583">
        <ele>778</ele>
        <time>2019-01-19T05:46:29Z</time>
      </trkpt>
      <trkpt lat="44.93488" lon="4.57524">
        <ele>780</ele>
        <time>2019-01-19T05:47:29Z</time>
      </trkpt>
      <trkpt lat="44.93505" lon="4.57485">
        <ele>781</ele>
        <time>2019-01-19T05:48:29Z</time>
      </trkpt>
      <trkpt lat="44.93534" lon="4.57461">
        <ele>778</ele>
        <time>2019-01-19T05:49:29Z</time>
      </trkpt>
      <trkpt lat="44.9358" lon="4.57449">
        <ele>774</ele>
        <time>2019-01-19T05:50:29Z</time>
      </trkpt>
      <trkpt lat="44.93617" lon="4.57434">
        <ele>776</ele>
        <time>2019-01-19T05:51:29Z</time>
      </trkpt>
      <trkpt lat="44.93642" lon="4.57418">
        <ele>775</ele>
        <time>2019-01-19T05:52:29Z</time>
      </trkpt>
      <trkpt lat="44.93675" lon="4.57389">
        <ele>775</ele>
        <time>2019-01-19T05:53:29Z</time>
      </trkpt>
      <trkpt lat="44.93694" lon="4.57366">
        <ele>777</ele>
        <time>2019-01-19T05:54:29Z</time>
      </trkpt>
      <trkpt lat="44.93705" lon="4.57334">
        <ele>776</ele>
        <time>2019-01-19T05:55:29Z</time>
      </trkpt>
      <trkpt lat="44.93712" lon="4.57299">
        <ele>777</ele>
        <time>2019-01-19T05:56:29Z</time>
      </trkpt>
      <trkpt lat="44.93714" lon="4.57252">
        <ele>777</ele>
        <time>2019-01-19T05:57:29Z</time>
      </trkpt>
      <trkpt lat="44.93718" lon="4.57108">
        <ele>772</ele>
        <time>2019-01-19T05:58:29Z</time>
      </trkpt>
      <trkpt lat="44.93721" lon="4.57087">
        <ele>771</ele>
        <time>2019-01-19T05:59:29Z</time>
      </trkpt>
      <trkpt lat="44.93726" lon="4.57068">
        <ele>770</ele>
        <time>2019-01-19T06:00:29Z</time>
      </trkpt>
      <trkpt lat="44.93765" lon="4.57">
        <ele>767</ele>
        <time>2019-01-19T06:01:29Z</time>
      </trkpt>
      <trkpt lat="44.93776" lon="4.56972">
        <ele>765</ele>
        <time>2019-01-19T06:02:29Z</time>
      </trkpt>
      <trkpt lat="44.93784" lon="4.56941">
        <ele>762</ele>
        <time>2019-01-19T06:03:29Z</time>
      </trkpt>
      <trkpt lat="44.9381" lon="4.56776">
        <ele>768</ele>
        <time>2019-01-19T06:04:29Z</time>
      </trkpt>
      <trkpt lat="44.93818" lon="4.56704">
        <ele>771</ele>
        <time>2019-01-19T06:05:29Z</time>
      </trkpt>
      <trkpt lat="44.93823" lon="4.56681">
        <ele>772</ele>
        <time>2019-01-19T06:06:29Z</time>
      </trkpt>
      <trkpt lat="44.93844" lon="4.5663">
        <ele>772</ele>
        <time>2019-01-19T06:07:29Z</time>
      </trkpt>
      <trkpt lat="44.9385" lon="4.56604">
        <ele>773</ele>
        <time>2019-01-19T06:08:29Z</time>
      </trkpt>
      <trkpt lat="44.9385" lon="4.56585">
        <ele>774</ele>
        <time>2019-01-19T06:09:29Z</time>
      </trkpt>
      <trkpt lat="44.93847" lon="4.56566">
        <ele>774</ele>
        <time>2019-01-19T06:10:29Z</time>
      </trkpt>
      <trkpt lat="44.93814" lon="4.56486">
        <ele>780</ele>
        <time>2019-01-19T06:11:29Z</time>
      </trkpt>
      <trkpt lat="44.93797" lon="4.56433">
        <ele>785</ele>
        <time>2019-01-19T06:12:29Z</time>
      </trkpt>
      <trkpt lat="44.93793" lon="4.56383">
        <ele>788</ele>
        <time>2019-01-19T06:13:29Z</time>
      </trkpt>
      <trkpt lat="44.93792" lon="4.56331">
        <ele>790</ele>
        <time>2019-01-19T06:14:29Z</time>
      </trkpt>
      <trkpt lat="44.93784" lon="4.56299">
        <ele>789</ele>
        <time>2019-01-19T06:15:29Z</time>
      </trkpt>
      <trkpt lat="44.93759" lon="4.56251">
        <ele>792</ele>
        <time>2019-01-19T06:16:29Z</time>
      </trkpt>
      <trkpt lat="44.93721" lon="4.56209">
        <ele>792</ele>
        <time>2019-01-19T06:17:29Z</time>
      </trkpt>
      <trkpt lat="44.93645" lon="4.56108">
        <ele>794</ele>
        <time>2019-01-19T06:18:29Z</time>
      </trkpt>
      <trkpt lat="44.93625" lon="4.56074">
        <ele>795</ele>
        <time>2019-01-19T06:19:29Z</time>
      </trkpt>
      <trkpt lat="44.93599" lon="4.56004">
        <ele>797</ele>
        <time>2019-01-19T06:20:29Z</time>
      </trkpt>
      <trkpt lat="44.93531" lon="4.55809">
        <ele>802</ele>
        <time>2019-01-19T06:21:29Z</time>
      </trkpt>
      <trkpt lat="44.935" lon="4.55673">
        <ele>812</ele>
        <time>2019-01-19T06:22:29Z</time>
      </trkpt>
      <trkpt lat="44.93471" lon="4.55517">
        <ele>814</ele>
        <time>2019-01-19T06:23:29Z</time>
      </trkpt>
      <trkpt lat="44.93456" lon="4.55412">
        <ele>818</ele>
        <time>2019-01-19T06:24:29Z</time>
      </trkpt>
      <trkpt lat="44.93448" lon="4.5539">
        <ele>821</ele>
        <time>2019-01-19T06:25:29Z</time>
      </trkpt>
      <trkpt lat="44.93417" lon="4.55332">
        <ele>825</ele>
        <time>2019-01-19T06:26:29Z</time>
      </trkpt>
      <trkpt lat="44.93381" lon="4.55242">
        <ele>837</ele>
        <time>2019-01-19T06:27:29Z</time>
      </trkpt>
      <trkpt lat="44.93364" lon="4.55203">
        <ele>837</ele>
        <time>2019-01-19T06:28:29Z</time>
      </trkpt>
      <trkpt lat="44.93358" lon="4.55194">
        <ele>837</ele>
        <time>2019-01-19T06:29:29Z</time>
      </trkpt>
      <trkpt lat="44.93316" lon="4.55154">
        <ele>835</ele>
        <time>2019-01-19T06:30:29Z</time>
      </trkpt>
      <trkpt lat="44.93272" lon="4.55099">
        <ele>833</ele>
        <time>2019-01-19T06:31:29Z</time>
      </trkpt>
      <trkpt lat="44.9324" lon="4.55073">
        <ele>830</ele>
        <time>2019-01-19T06:32:29Z</time>
      </trkpt>
      <trkpt lat="44.93215" lon="4.55064">
        <ele>828</ele>
        <time>2019-01-19T06:33:29Z</time>
      </trkpt>
      <trkpt lat="44.93206" lon="4.55054">
        <ele>827</ele>
        <time>2019-01-19T06:34:29Z</time>
      </trkpt>
      <trkpt lat="44.93204" lon="4.55029">
        <ele>826</ele>
        <time>2019-01-19T06:35:29Z</time>
      </trkpt>
      <trkpt lat="44.93212" lon="4.54954">
        <ele>821</ele>
        <time>2019-01-19T06:36:29Z</time>
      </trkpt>
      <trkpt lat="44.93224" lon="4.54884">
        <ele>817</ele>
        <time>2019-01-19T06:37:29Z</time>
      </trkpt>
      <trkpt lat="44.93236" lon="4.54851">
        <ele>815</ele>
        <time>2019-01-19T06:38:29Z</time>
      </trkpt>
      <trkpt lat="44.93236" lon="4.54817">
        <ele>813</ele>
        <time>2019-01-19T06:39:29Z</time>
      </trkpt>
      <trkpt lat="44.9325" lon="4.54786">
        <ele>811</ele>
        <time>2019-01-19T06:40:29Z</time>
      </trkpt>
      <trkpt lat="44.93266" lon="4.54758">
        <ele>809</ele>
        <time>2019-01-19T06:41:29Z</time>
      </trkpt>
      <trkpt lat="44.93267" lon="4.54743">
        <ele>808</ele>
        <time>2019-01-19T06:42:29Z</time>
      </trkpt>
      <trkpt lat="44.93258" lon="4.54685">
        <ele>803</ele>
        <time>2019-01-19T06:43:29Z</time>
      </trkpt>
      <trkpt lat="44.93242" lon="4.54614">
        <ele>798</ele>
        <time>2019-01-19T06:44:29Z</time>
      </trkpt>
      <trkpt lat="44.932" lon="4.54492">
        <ele>792</ele>
        <time>2019-01-19T06:45:29Z</time>
      </trkpt>
      <trkpt lat="44.93177" lon="4.54409">
        <ele>795</ele>
        <time>2019-01-19T06:46:29Z</time>
      </trkpt>
      <trkpt lat="44.93178" lon="4.54366">
        <ele>798</ele>
        <time>2019-01-19T06:47:29Z</time>
      </trkpt>
      <trkpt lat="44.93195" lon="4.54239">
        <ele>805</ele>
        <time>2019-01-19T06:48:29Z</time>
      </trkpt>
      <trkpt lat="44.932" lon="4.5421">
        <ele>806</ele>
        <time>2019-01-19T06:49:29Z</time>
      </trkpt>
      <trkpt lat="44.93188" lon="4.54157">
        <ele>809</ele>
        <time>2019-01-19T06:50:29Z</time>
      </trkpt>
      <trkpt lat="44.93144" lon="4.54114">
        <ele>817</ele>
        <time>2019-01-19T06:51:29Z</time>
      </trkpt>
      <trkpt lat="44.93135" lon="4.54079">
        <ele>819</ele>
        <time>2019-01-19T06:52:29Z</time>
      </trkpt>
      <trkpt lat="44.9314" lon="4.54011">
        <ele>822</ele>
        <time>2019-01-19T06:53:29Z</time>
      </trkpt>
      <trkpt lat="44.93112" lon="4.5391">
        <ele>824</ele>
        <time>2019-01-19T06:54:29Z</time>
      </trkpt>
      <trkpt lat="44.93093" lon="4.53872">
        <ele>826</ele>
        <time>2019-01-19T06:55:29Z</time>
      </trkpt>
      <trkpt lat="44.93079" lon="4.53852">
        <ele>829</ele>
        <time>2019-01-19T06:56:29Z</time>
      </trkpt>
      <trkpt lat="44.93069" lon="4.53836">
        <ele>830</ele>
        <time>2019-01-19T06:57:29Z</time>
      </trkpt>
      <trkpt lat="44.93064" lon="4.53813">
        <ele>832</ele>
        <time>2019-01-19T06:58:29Z</time>
      </trkpt>
      <trkpt lat="44.93063" lon="4.5379">
        <ele>833</ele>
        <time>2019-01-19T06:59:29Z</time>
      </trkpt>
      <trkpt lat="44.9307" lon="4.53729">
        <ele>833</ele>
        <time>2019-01-19T07:00:29Z</time>
      </trkpt>
      <trkpt lat="44.93069" lon="4.53701">
        <ele>832</ele>
        <time>2019-01-19T07:01:29Z</time>
      </trkpt>
      <trkpt lat="44.93066" lon="4.53675">
        <ele>832</ele>
        <time>2019-01-19T07:02:29Z</time>
      </trkpt>
      <trkpt lat="44.93044" lon="4.53609">
        <ele>840</ele>
        <time>2019-01-19T07:03:29Z</time>
      </trkpt>
      <trkpt lat="44.93043" lon="4.53592">
        <ele>840</ele>
        <time>2019-01-19T07:04:29Z</time>
      </trkpt>
      <trkpt lat="44.93046" lon="4.53576">
        <ele>840</ele>
        <time>2019-01-19T07:05:29Z</time>
      </trkpt>
      <trkpt lat="44.93056" lon="4.53541">
        <ele>839</ele>
        <time>2019-01-19T07:06:29Z</time>
      </trkpt>
      <trkpt lat="44.93058" lon="4.53525">
        <ele>840</ele>
        <time>2019-01-19T07:07:29Z</time>
      </trkpt>
      <trkpt lat="44.93056" lon="4.53507">
        <ele>842</ele>
        <time>2019-01-19T07:08:29Z</time>
      </trkpt>
      <trkpt lat="44.93047" lon="4.53478">
        <ele>843</ele>
        <time>2019-01-19T07:09:29Z</time>
      </trkpt>
      <trkpt lat="44.93033" lon="4.53446">
        <ele>845</ele>
        <time>2019-01-19T07:10:29Z</time>
      </trkpt>
      <trkpt lat="44.93031" lon="4.53429">
        <ele>844</ele>
        <time>2019-01-19T07:11:29Z</time>
      </trkpt>
      <trkpt lat="44.93032" lon="4.53409">
        <ele>843</ele>
        <time>2019-01-19T07:12:29Z</time>
      </trkpt>
      <trkpt lat="44.93041" lon="4.53358">
        <ele>840</ele>
        <time>2019-01-19T07:13:29Z</time>
      </trkpt>
      <trkpt lat="44.93039" lon="4.53339">
        <ele>840</ele>
        <time>2019-01-19T07:14:29Z</time>
      </trkpt>
      <trkpt lat="44.93022" lon="4.53286">
        <ele>845</ele>
        <time>2019-01-19T07:15:29Z</time>
      </trkpt>
      <trkpt lat="44.93014" lon="4.53244">
        <ele>846</ele>
        <time>2019-01-19T07:16:29Z</time>
      </trkpt>
      <trkpt lat="44.93013" lon="4.5321">
        <ele>846</ele>
        <time>2019-01-19T07:17:29Z</time>
      </trkpt>
      <trkpt lat="44.93014" lon="4.53164">
        <ele>844</ele>
        <time>2019-01-19T07:18:29Z</time>
      </trkpt>
      <trkpt lat="44.93009" lon="4.53119">
        <ele>845</ele>
        <time>2019-01-19T07:19:29Z</time>
      </trkpt>
      <trkpt lat="44.92999" lon="4.53086">
        <ele>845</ele>
        <time>2019-01-19T07:20:29Z</time>
      </trkpt>
      <trkpt lat="44.92982" lon="4.53047">
        <ele>843</ele>
        <time>2019-01-19T07:21:29Z</time>
      </trkpt>
      <trkpt lat="44.92886" lon="4.52899">
        <ele>840</ele>
        <time>2019-01-19T07:22:29Z</time>
      </trkpt>
      <trkpt lat="44.92858" lon="4.52825">
        <ele>843</ele>
        <time>2019-01-19T07:23:29Z</time>
      </trkpt>
      <trkpt lat="44.92824" lon="4.52751">
        <ele>845</ele>
        <time>2019-01-19T07:24:29Z</time>
      </trkpt>
      <trkpt lat="44.92793" lon="4.52702">
        <ele>841</ele>
        <time>2019-01-19T07:25:29Z</time>
      </trkpt>
      <trkpt lat="44.92709" lon="4.52605">
        <ele>833</ele>
        <time>2019-01-19T07:26:29Z</time>
      </trkpt>
      <trkpt lat="44.92691" lon="4.52577">
        <ele>832</ele>
        <time>2019-01-19T07:27:29Z</time>
      </trkpt>
      <trkpt lat="44.92684" lon="4.52525">
        <ele>829</ele>
        <time>2019-01-19T07:28:29Z</time>
      </trkpt>
      <trkpt lat="44.92689" lon="4.52477">
        <ele>827</ele>
        <time>2019-01-19T07:29:29Z</time>
      </trkpt>
      <trkpt lat="44.92729" lon="4.5241">
        <ele>828</ele>
        <time>2019-01-19T07:30:29Z</time>
      </trkpt>
      <trkpt lat="44.92758" lon="4.52338">
        <ele>822</ele>
        <time>2019-01-19T07:31:29Z</time>
      </trkpt>
      <trkpt lat="44.92771" lon="4.52311">
        <ele>820</ele>
        <time>2019-01-19T07:32:29Z</time>
      </trkpt>
      <trkpt lat="44.92786" lon="4.52292">
        <ele>819</ele>
        <time>2019-01-19T07:33:29Z</time>
      </trkpt>
      <trkpt lat="44.92811" lon="4.52285">
        <ele>820</ele>
        <time>2019-01-19T07:34:29Z</time>
      </trkpt>
      <trkpt lat="44.9285" lon="4.5227">
        <ele>821</ele>
        <time>2019-01-19T07:35:29Z</time>
      </trkpt>
      <trkpt lat="44.92859" lon="4.52254">
        <ele>819</ele>
        <time>2019-01-19T07:36:29Z</time>
      </trkpt>
      <trkpt lat="44.9286" lon="4.52181">
        <ele>812</ele>
        <time>2019-01-19T07:37:29Z</time>
      </trkpt>
      <trkpt lat="44.9287" lon="4.52076">
        <ele>807</ele>
        <time>2019-01-19T07:38:29Z</time>
      </trkpt>
      <trkpt lat="44.92862" lon="4.5195">
        <ele>810</ele>
        <time>2019-01-19T07:39:29Z</time>
      </trkpt>
      <trkpt lat="44.92861" lon="4.51917">
        <ele>811</ele>
        <time>2019-01-19T07:40:29Z</time>
      </trkpt>
      <trkpt lat="44.92853" lon="4.51853">
        <ele>813</ele>
        <time>2019-01-19T07:41:29Z</time>
      </trkpt>
      <trkpt lat="44.9282" lon="4.51779">
        <ele>818</ele>
        <time>2019-01-19T07:42:29Z</time>
      </trkpt>
      <trkpt lat="44.9279" lon="4.51743">
        <ele>818</ele>
        <time>2019-01-19T07:43:29Z</time>
      </trkpt>
      <trkpt lat="44.9278" lon="4.51733">
        <ele>818</ele>
        <time>2019-01-19T07:44:29Z</time>
      </trkpt>
      <trkpt lat="44.92763" lon="4.51711">
        <ele>819</ele>
        <time>2019-01-19T07:45:29Z</time>
      </trkpt>
      <trkpt lat="44.92757" lon="4.51667">
        <ele>823</ele>
        <time>2019-01-19T07:46:29Z</time>
      </trkpt>
      <trkpt lat="44.92765" lon="4.5159">
        <ele>827</ele>
        <time>2019-01-19T07:47:29Z</time>
      </trkpt>
      <trkpt lat="44.92772" lon="4.51498">
        <ele>824</ele>
        <time>2019-01-19T07:48:29Z</time>
      </trkpt>
      <trkpt lat="44.92768" lon="4.5143">
        <ele>823</ele>
        <time>2019-01-19T07:49:29Z</time>
      </trkpt>
      <trkpt lat="44.92724" lon="4.5133">
        <ele>820</ele>
        <time>2019-01-19T07:50:29Z</time>
      </trkpt>
      <trkpt lat="44.92703" lon="4.51295">
        <ele>817</ele>
        <time>2019-01-19T07:51:29Z</time>
      </trkpt>
      <trkpt lat="44.92698" lon="4.51232">
        <ele>817</ele>
        <time>2019-01-19T07:52:29Z</time>
      </trkpt>
      <trkpt lat="44.92696" lon="4.51191">
        <ele>821</ele>
        <time>2019-01-19T07:53:29Z</time>
      </trkpt>
      <trkpt lat="44.92704" lon="4.51131">
        <ele>828</ele>
        <time>2019-01-19T07:54:29Z</time>
      </trkpt>
      <trkpt lat="44.92824" lon="4.51037">
        <ele>832</ele>
        <time>2019-01-19T07:55:29Z</time>
      </trkpt>
      <trkpt lat="44.9287" lon="4.51003">
        <ele>837</ele>
        <time>2019-01-19T07:56:29Z</time>
      </trkpt>
      <trkpt lat="44.92901" lon="4.50937">
        <ele>844</ele>
        <time>2019-01-19T07:57:29Z</time>
      </trkpt>
      <trkpt lat="44.92909" lon="4.50856">
        <ele>848</ele>
        <time>2019-01-19T07:58:29Z</time>
      </trkpt>
      <trkpt lat="44.92912" lon="4.50767">
        <ele>847</ele>
        <time>2019-01-19T07:59:29Z</time>
      </trkpt>
      <trkpt lat="44.92895" lon="4.50634">
        <ele>839</ele>
        <time>2019-01-19T08:00:29Z</time>
      </trkpt>
      <trkpt lat="44.92873" lon="4.50491">
        <ele>836</ele>
        <time>2019-01-19T08:01:29Z</time>
      </trkpt>
      <trkpt lat="44.92866" lon="4.50384">
        <ele>838</ele>
        <time>2019-01-19T08:02:29Z</time>
      </trkpt>
      <trkpt lat="44.92877" lon="4.50363">
        <ele>838</ele>
        <time>2019-01-19T08:03:29Z</time>
      </trkpt>
      <trkpt lat="44.92894" lon="4.50339">
        <ele>837</ele>
        <time>2019-01-19T08:04:29Z</time>
      </trkpt>
      <trkpt lat="44.9292" lon="4.50319">
        <ele>835</ele>
        <time>2019-01-19T08:05:29Z</time>
      </trkpt>
      <trkpt lat="44.92953" lon="4.50286">
        <ele>826</ele>
        <time>2019-01-19T08:06:29Z</time>
      </trkpt>
      <trkpt lat="44.9299" lon="4.50238">
        <ele>817</ele>
        <time>2019-01-19T08:07:29Z</time>
      </trkpt>
      <trkpt lat="44.92992" lon="4.50219">
        <ele>817</ele>
        <time>2019-01-19T08:08:29Z</time>
      </trkpt>
      <trkpt lat="44.92999" lon="4.50057">
        <ele>813</ele>
        <time>2019-01-19T08:09:29Z</time>
      </trkpt>
      <trkpt lat="44.92996" lon="4.50034">
        <ele>812</ele>
        <time>2019-01-19T08:10:29Z</time>
      </trkpt>
      <trkpt lat="44.92942" lon="4.49839">
        <ele>797</ele>
        <time>2019-01-19T08:11:29Z</time>
      </trkpt>
      <trkpt lat="44.92909" lon="4.49793">
        <ele>795</ele>
        <time>2019-01-19T08:12:29Z</time>
      </trkpt>
      <trkpt lat="44.92885" lon="4.49764">
        <ele>788</ele>
        <time>2019-01-19T08:13:29Z</time>
      </trkpt>
      <trkpt lat="44.92858" lon="4.49754">
        <ele>786</ele>
        <time>2019-01-19T08:14:29Z</time>
      </trkpt>
      <trkpt lat="44.92811" lon="4.4977">
        <ele>794</ele>
        <time>2019-01-19T08:15:29Z</time>
      </trkpt>
      <trkpt lat="44.92797" lon="4.49766">
        <ele>795</ele>
        <time>2019-01-19T08:16:29Z</time>
      </trkpt>
      <trkpt lat="44.92782" lon="4.49757">
        <ele>795</ele>
        <time>2019-01-19T08:17:29Z</time>
      </trkpt>
      <trkpt lat="44.92763" lon="4.49725">
        <ele>793</ele>
        <time>2019-01-19T08:18:29Z</time>
      </trkpt>
      <trkpt lat="44.9276" lon="4.49682">
        <ele>787</ele>
        <time>2019-01-19T08:19:29Z</time>
      </trkpt>
      <trkpt lat="44.92751" lon="4.49618">
        <ele>782</ele>
        <time>2019-01-19T08:20:29Z</time>
      </trkpt>
      <trkpt lat="44.92765" lon="4.49545">
        <ele>768</ele>
        <time>2019-01-19T08:21:29Z</time>
      </trkpt>
      <trkpt lat="44.92765" lon="4.49523">
        <ele>765</ele>
        <time>2019-01-19T08:22:29Z</time>
      </trkpt>
      <trkpt lat="44.92757" lon="4.49504">
        <ele>765</ele>
        <time>2019-01-19T08:23:29Z</time>
      </trkpt>
      <trkpt lat="44.92719" lon="4.49457">
        <ele>765</ele>
        <time>2019-01-19T08:24:29Z</time>
      </trkpt>
      <trkpt lat="44.9269" lon="4.49414">
        <ele>763</ele>
        <time>2019-01-19T08:25:29Z</time>
      </trkpt>
      <trkpt lat="44.92634" lon="4.49272">
        <ele>757</ele>
        <time>2019-01-19T08:26:29Z</time>
      </trkpt>
      <trkpt lat="44.9263" lon="4.49219">
        <ele>753</ele>
        <time>2019-01-19T08:27:29Z</time>
      </trkpt>
      <trkpt lat="44.92655" lon="4.49109">
        <ele>747</ele>
        <time>2019-01-19T08:28:29Z</time>
      </trkpt>
      <trkpt lat="44.92661" lon="4.49097">
        <ele>746</ele>
        <time>2019-01-19T08:29:29Z</time>
      </trkpt>
      <trkpt lat="44.92674" lon="4.49084">
        <ele>744</ele>
        <time>2019-01-19T08:30:29Z</time>
      </trkpt>
      <trkpt lat="44.92693" lon="4.49082">
        <ele>741</ele>
        <time>2019-01-19T08:31:29Z</time>
      </trkpt>
      <trkpt lat="44.92743" lon="4.49088">
        <ele>733</ele>
        <time>2019-01-19T08:32:29Z</time>
      </trkpt>
      <trkpt lat="44.92828" lon="4.49111">
        <ele>719</ele>
        <time>2019-01-19T08:33:29Z</time>
      </trkpt>
      <trkpt lat="44.92838" lon="4.49111">
        <ele>717</ele>
        <time>2019-01-19T08:34:29Z</time>
      </trkpt>
      <trkpt lat="44.92846" lon="4.49108">
        <ele>715</ele>
        <time>2019-01-19T08:35:29Z</time>
      </trkpt>
      <trkpt lat="44.92853" lon="4.49103">
        <ele>714</ele>
        <time>2019-01-19T08:36:29Z</time>
      </trkpt>
      <trkpt lat="44.92862" lon="4.49084">
        <ele>714</ele>
        <time>2019-01-19T08:37:29Z</time>
      </trkpt>
      <trkpt lat="44.92867" lon="4.49069">
        <ele>714</ele>
        <time>2019-01-19T08:38:29Z</time>
      </trkpt>
      <trkpt lat="44.92883" lon="4.48965">
        <ele>718</ele>
        <time>2019-01-19T08:39:29Z</time>
      </trkpt>
      <trkpt lat="44.92886" lon="4.48952">
        <ele>718</ele>
        <time>2019-01-19T08:40:29Z</time>
      </trkpt>
      <trkpt lat="44.92893" lon="4.48941">
        <ele>717</ele>
        <time>2019-01-19T08:41:29Z</time>
      </trkpt>
      <trkpt lat="44.92901" lon="4.48933">
        <ele>715</ele>
        <time>2019-01-19T08:42:29Z</time>
      </trkpt>
      <trkpt lat="44.92908" lon="4.4893">
        <ele>713</ele>
        <time>2019-01-19T08:43:29Z</time>
      </trkpt>
      <trkpt lat="44.92916" lon="4.4893">
        <ele>711</ele>
        <time>2019-01-19T08:44:29Z</time>
      </trkpt>
      <trkpt lat="44.92926" lon="4.48934">
        <ele>710</ele>
        <time>2019-01-19T08:45:29Z</time>
      </trkpt>
      <trkpt lat="44.92978" lon="4.48966">
        <ele>701</ele>
        <time>2019-01-19T08:46:29Z</time>
      </trkpt>
      <trkpt lat="44.92995" lon="4.48972">
        <ele>698</ele>
        <time>2019-01-19T08:47:29Z</time>
      </trkpt>
      <trkpt lat="44.93011" lon="4.48973">
        <ele>695</ele>
        <time>2019-01-19T08:48:29Z</time>
      </trkpt>
      <trkpt lat="44.93033" lon="4.48966">
        <ele>693</ele>
        <time>2019-01-19T08:49:29Z</time>
      </trkpt>
      <trkpt lat="44.93049" lon="4.48956">
        <ele>693</ele>
        <time>2019-01-19T08:50:29Z</time>
      </trkpt>
      <trkpt lat="44.93117" lon="4.48905">
        <ele>689</ele>
        <time>2019-01-19T08:51:29Z</time>
      </trkpt>
      <trkpt lat="44.93134" lon="4.48897">
        <ele>687</ele>
        <time>2019-01-19T08:52:29Z</time>
      </trkpt>
      <trkpt lat="44.93146" lon="4.48894">
        <ele>685</ele>
        <time>2019-01-19T08:53:29Z</time>
      </trkpt>
      <trkpt lat="44.93191" lon="4.48893">
        <ele>677</ele>
        <time>2019-01-19T08:54:29Z</time>
      </trkpt>
      <trkpt lat="44.93221" lon="4.48889">
        <ele>674</ele>
        <time>2019-01-19T08:55:29Z</time>
      </trkpt>
      <trkpt lat="44.93236" lon="4.48881">
        <ele>673</ele>
        <time>2019-01-19T08:56:29Z</time>
      </trkpt>
      <trkpt lat="44.93247" lon="4.48868">
        <ele>673</ele>
        <time>2019-01-19T08:57:29Z</time>
      </trkpt>
      <trkpt lat="44.93258" lon="4.48842">
        <ele>675</ele>
        <time>2019-01-19T08:58:29Z</time>
      </trkpt>
      <trkpt lat="44.93278" lon="4.48757">
        <ele>672</ele>
        <time>2019-01-19T08:59:29Z</time>
      </trkpt>
      <trkpt lat="44.9328" lon="4.4872">
        <ele>672</ele>
        <time>2019-01-19T09:00:29Z</time>
      </trkpt>
      <trkpt lat="44.93284" lon="4.48703">
        <ele>672</ele>
        <time>2019-01-19T09:01:29Z</time>
      </trkpt>
      <trkpt lat="44.93288" lon="4.48697">
        <ele>672</ele>
        <time>2019-01-19T09:02:29Z</time>
      </trkpt>
      <trkpt lat="44.93284" lon="4.48687">
        <ele>672</ele>
        <time>2019-01-19T09:03:29Z</time>
      </trkpt>
      <trkpt lat="44.93281" lon="4.48673">
        <ele>672</ele>
        <time>2019-01-19T09:04:29Z</time>
      </trkpt>
      <trkpt lat="44.93286" lon="4.48664">
        <ele>672</ele>
        <time>2019-01-19T09:05:29Z</time>
      </trkpt>
      <trkpt lat="44.93288" lon="4.48657">
        <ele>672</ele>
        <time>2019-01-19T09:06:29Z</time>
      </trkpt>
      <trkpt lat="44.93297" lon="4.48554">
        <ele>677</ele>
        <time>2019-01-19T09:07:29Z</time>
      </trkpt>
      <trkpt lat="44.93293" lon="4.48524">
        <ele>678</ele>
        <time>2019-01-19T09:08:29Z</time>
      </trkpt>
      <trkpt lat="44.93262" lon="4.48449">
        <ele>673</ele>
        <time>2019-01-19T09:09:29Z</time>
      </trkpt>
      <trkpt lat="44.93263" lon="4.48432">
        <ele>675</ele>
        <time>2019-01-19T09:10:29Z</time>
      </trkpt>
      <trkpt lat="44.93271" lon="4.48418">
        <ele>678</ele>
        <time>2019-01-19T09:11:29Z</time>
      </trkpt>
      <trkpt lat="44.93308" lon="4.48389">
        <ele>688</ele>
        <time>2019-01-19T09:12:29Z</time>
      </trkpt>
      <trkpt lat="44.9332" lon="4.48386">
        <ele>692</ele>
        <time>2019-01-19T09:13:29Z</time>
      </trkpt>
      <trkpt lat="44.93323" lon="4.48388">
        <ele>693</ele>
        <time>2019-01-19T09:14:29Z</time>
      </trkpt>
      <trkpt lat="44.93323" lon="4.48392">
        <ele>693</ele>
        <time>2019-01-19T09:15:29Z</time>
      </trkpt>
      <trkpt lat="44.93322" lon="4.48401">
        <ele>693</ele>
        <time>2019-01-19T09:16:29Z</time>
      </trkpt>
      <trkpt lat="44.93307" lon="4.48417">
        <ele>689</ele>
        <time>2019-01-19T09:17:29Z</time>
      </trkpt>
      <trkpt lat="44.93298" lon="4.48434">
        <ele>685</ele>
        <time>2019-01-19T09:18:29Z</time>
      </trkpt>
      <trkpt lat="44.93299" lon="4.48445">
        <ele>685</ele>
        <time>2019-01-19T09:19:29Z</time>
      </trkpt>
      <trkpt lat="44.93356" lon="4.48527">
        <ele>693</ele>
        <time>2019-01-19T09:20:29Z</time>
      </trkpt>
      <trkpt lat="44.93373" lon="4.48536">
        <ele>695</ele>
        <time>2019-01-19T09:21:29Z</time>
      </trkpt>
      <trkpt lat="44.93396" lon="4.4853">
        <ele>700</ele>
        <time>2019-01-19T09:22:29Z</time>
      </trkpt>
      <trkpt lat="44.93492" lon="4.48492">
        <ele>714</ele>
        <time>2019-01-19T09:23:29Z</time>
      </trkpt>
      <trkpt lat="44.93541" lon="4.4849">
        <ele>718</ele>
        <time>2019-01-19T09:24:29Z</time>
      </trkpt>
      <trkpt lat="44.93561" lon="4.48491">
        <ele>719</ele>
        <time>2019-01-19T09:25:29Z</time>
      </trkpt>
      <trkpt lat="44.93582" lon="4.48486">
        <ele>722</ele>
        <time>2019-01-19T09:26:29Z</time>
      </trkpt>
      <trkpt lat="44.93612" lon="4.48455">
        <ele>733</ele>
        <time>2019-01-19T09:27:29Z</time>
      </trkpt>
      <trkpt lat="44.93622" lon="4.48451">
        <ele>735</ele>
        <time>2019-01-19T09:28:29Z</time>
      </trkpt>
      <trkpt lat="44.93629" lon="4.48452">
        <ele>736</ele>
        <time>2019-01-19T09:29:29Z</time>
      </trkpt>
      <trkpt lat="44.93636" lon="4.48456">
        <ele>736</ele>
        <time>2019-01-19T09:30:29Z</time>
      </trkpt>
      <trkpt lat="44.93647" lon="4.48466">
        <ele>735</ele>
        <time>2019-01-19T09:31:29Z</time>
      </trkpt>
      <trkpt lat="44.93672" lon="4.48504">
        <ele>730</ele>
        <time>2019-01-19T09:32:29Z</time>
      </trkpt>
      <trkpt lat="44.93742" lon="4.48592">
        <ele>735</ele>
        <time>2019-01-19T09:33:29Z</time>
      </trkpt>
      <trkpt lat="44.93757" lon="4.48618">
        <ele>737</ele>
        <time>2019-01-19T09:34:29Z</time>
      </trkpt>
      <trkpt lat="44.93759" lon="4.48633">
        <ele>736</ele>
        <time>2019-01-19T09:35:29Z</time>
      </trkpt>
      <trkpt lat="44.93758" lon="4.48675">
        <ele>732</ele>
        <time>2019-01-19T09:36:29Z</time>
      </trkpt>
      <trkpt lat="44.93761" lon="4.48708">
        <ele>728</ele>
        <time>2019-01-19T09:37:29Z</time>
      </trkpt>
      <trkpt lat="44.93768" lon="4.48723">
        <ele>727</ele>
        <time>2019-01-19T09:38:29Z</time>
      </trkpt>
      <trkpt lat="44.93791" lon="4.48738">
        <ele>730</ele>
        <time>2019-01-19T09:39:29Z</time>
      </trkpt>
      <trkpt lat="44.93832" lon="4.48749">
        <ele>738</ele>
        <time>2019-01-19T09:40:29Z</time>
      </trkpt>
      <trkpt lat="44.93854" lon="4.48744">
        <ele>737</ele>
        <time>2019-01-19T09:41:29Z</time>
      </trkpt>
      <trkpt lat="44.93875" lon="4.48732">
        <ele>738</ele>
        <time>2019-01-19T09:42:29Z</time>
      </trkpt>
      <trkpt lat="44.93888" lon="4.48711">
        <ele>740</ele>
        <time>2019-01-19T09:43:29Z</time>
      </trkpt>
      <trkpt lat="44.93916" lon="4.48632">
        <ele>751</ele>
        <time>2019-01-19T09:44:29Z</time>
      </trkpt>
      <trkpt lat="44.93939" lon="4.48514">
        <ele>758</ele>
        <time>2019-01-19T09:45:29Z</time>
      </trkpt>
      <trkpt lat="44.93973" lon="4.48391">
        <ele>764</ele>
        <time>2019-01-19T09:46:29Z</time>
      </trkpt>
      <trkpt lat="44.93999" lon="4.48176">
        <ele>779</ele>
        <time>2019-01-19T09:47:29Z</time>
      </trkpt>
      <trkpt lat="44.9402" lon="4.48087">
        <ele>780</ele>
        <time>2019-01-19T09:48:29Z</time>
      </trkpt>
      <trkpt lat="44.94018" lon="4.48024">
        <ele>785</ele>
        <time>2019-01-19T09:49:29Z</time>
      </trkpt>
      <trkpt lat="44.9402" lon="4.47911">
        <ele>792</ele>
        <time>2019-01-19T09:50:29Z</time>
      </trkpt>
      <trkpt lat="44.94014" lon="4.47803">
        <ele>805</ele>
        <time>2019-01-19T09:51:29Z</time>
      </trkpt>
      <trkpt lat="44.94024" lon="4.47671">
        <ele>817</ele>
        <time>2019-01-19T09:52:29Z</time>
      </trkpt>
      <trkpt lat="44.94041" lon="4.47549">
        <ele>822</ele>
        <time>2019-01-19T09:53:29Z</time>
      </trkpt>
      <trkpt lat="44.94052" lon="4.47441">
        <ele>832</ele>
        <time>2019-01-19T09:54:29Z</time>
      </trkpt>
      <trkpt lat="44.94064" lon="4.47412">
        <ele>834</ele>
        <time>2019-01-19T09:55:29Z</time>
      </trkpt>
      <trkpt lat="44.94089" lon="4.47382">
        <ele>833</ele>
        <time>2019-01-19T09:56:29Z</time>
      </trkpt>
      <trkpt lat="44.94107" lon="4.47356">
        <ele>833</ele>
        <time>2019-01-19T09:57:29Z</time>
      </trkpt>
      <trkpt lat="44.94114" lon="4.47339">
        <ele>834</ele>
        <time>2019-01-19T09:58:29Z</time>
      </trkpt>
      <trkpt lat="44.94129" lon="4.47242">
        <ele>842</ele>
        <time>2019-01-19T09:59:29Z</time>
      </trkpt>
      <trkpt lat="44.9414" lon="4.47201">
        <ele>846</ele>
        <time>2019-01-19T10:00:29Z</time>
      </trkpt>
      <trkpt lat="44.9415" lon="4.47173">
        <ele>848</ele>
        <time>2019-01-19T10:01:29Z</time>
      </trkpt>
      <trkpt lat="44.94161" lon="4.47147">
        <ele>850</ele>
        <time>2019-01-19T10:02:29Z</time>
      </trkpt>
      <trkpt lat="44.9417" lon="4.47131">
        <ele>852</ele>
        <time>2019-01-19T10:03:29Z</time>
      </trkpt>
      <trkpt lat="44.94179" lon="4.47119">
        <ele>854</ele>
        <time>2019-01-19T10:04:29Z</time>
      </trkpt>
      <trkpt lat="44.94195" lon="4.47112">
        <ele>855</ele>
        <time>2019-01-19T10:05:29Z</time>
      </trkpt>
      <trkpt lat="44.94218" lon="4.47107">
        <ele>856</ele>
        <time>2019-01-19T10:06:29Z</time>
      </trkpt>
      <trkpt lat="44.94261" lon="4.47109">
        <ele>854</ele>
        <time>2019-01-19T10:07:29Z</time>
      </trkpt>
      <trkpt lat="44.94293" lon="4.47124">
        <ele>851</ele>
        <time>2019-01-19T10:08:29Z</time>
      </trkpt>
      <trkpt lat="44.9431" lon="4.4713">
        <ele>851</ele>
        <time>2019-01-19T10:09:29Z</time>
      </trkpt>
      <trkpt lat="44.94324" lon="4.47132">
        <ele>851</ele>
        <time>2019-01-19T10:10:29Z</time>
      </trkpt>
      <trkpt lat="44.94344" lon="4.47125">
        <ele>852</ele>
        <time>2019-01-19T10:11:29Z</time>
      </trkpt>
      <trkpt lat="44.94361" lon="4.47099">
        <ele>855</ele>
        <time>2019-01-19T10:12:29Z</time>
      </trkpt>
      <trkpt lat="44.94382" lon="4.47041">
        <ele>861</ele>
        <time>2019-01-19T10:13:29Z</time>
      </trkpt>
      <trkpt lat="44.94393" lon="4.46994">
        <ele>865</ele>
        <time>2019-01-19T10:14:29Z</time>
      </trkpt>
      <trkpt lat="44.9441" lon="4.46934">
        <ele>865</ele>
        <time>2019-01-19T10:15:29Z</time>
      </trkpt>
      <trkpt lat="44.94423" lon="4.46916">
        <ele>867</ele>
        <time>2019-01-19T10:16:29Z</time>
      </trkpt>
      <trkpt lat="44.94444" lon="4.4691">
        <ele>868</ele>
        <time>2019-01-19T10:17:29Z</time>
      </trkpt>
      <trkpt lat="44.9449" lon="4.4692">
        <ele>873</ele>
        <time>2019-01-19T10:18:29Z</time>
      </trkpt>
      <trkpt lat="44.94572" lon="4.46947">
        <ele>887</ele>
        <time>2019-01-19T10:19:29Z</time>
      </trkpt>
      <trkpt lat="44.9461" lon="4.46966">
        <ele>892</ele>
        <time>2019-01-19T10:20:29Z</time>
      </trkpt>
      <trkpt lat="44.94667" lon="4.46966">
        <ele>904</ele>
        <time>2019-01-19T10:21:29Z</time>
      </trkpt>
      <trkpt lat="44.94713" lon="4.46919">
        <ele>912</ele>
        <time>2019-01-19T10:22:29Z</time>
      </trkpt>
      <trkpt lat="44.94817" lon="4.46805">
        <ele>917</ele>
        <time>2019-01-19T10:23:29Z</time>
      </trkpt>
      <trkpt lat="44.94869" lon="4.46758">
        <ele>926</ele>
        <time>2019-01-19T10:24:29Z</time>
      </trkpt>
      <trkpt lat="44.94919" lon="4.46728">
        <ele>929</ele>
        <time>2019-01-19T10:25:29Z</time>
      </trkpt>
      <trkpt lat="44.9499" lon="4.46643">
        <ele>937</ele>
        <time>2019-01-19T10:26:29Z</time>
      </trkpt>
      <trkpt lat="44.95058" lon="4.46558">
        <ele>951</ele>
        <time>2019-01-19T10:27:29Z</time>
      </trkpt>
      <trkpt lat="44.95085" lon="4.46499">
        <ele>956</ele>
        <time>2019-01-19T10:28:29Z</time>
      </trkpt>
      <trkpt lat="44.95131" lon="4.46411">
        <ele>961</ele>
        <time>2019-01-19T10:29:29Z</time>
      </trkpt>
      <trkpt lat="44.95192" lon="4.46328">
        <ele>973</ele>
        <time>2019-01-19T10:30:29Z</time>
      </trkpt>
      <trkpt lat="44.95238" lon="4.46259">
        <ele>974</ele>
        <time>2019-01-19T10:31:29Z</time>
      </trkpt>
      <trkpt lat="44.95253" lon="4.46249">
        <ele>978</ele>
        <time>2019-01-19T10:32:29Z</time>
      </trkpt>
      <trkpt lat="44.95332" lon="4.46212">
        <ele>994</ele>
        <time>2019-01-19T10:33:29Z</time>
      </trkpt>
      <trkpt lat="44.95365" lon="4.46191">
        <ele>994</ele>
        <time>2019-01-19T10:34:29Z</time>
      </trkpt>
      <trkpt lat="44.95406" lon="4.46151">
        <ele>995</ele>
        <time>2019-01-19T10:35:29Z</time>
      </trkpt>
      <trkpt lat="44.95441" lon="4.46098">
        <ele>996</ele>
        <time>2019-01-19T10:36:29Z</time>
      </trkpt>
      <trkpt lat="44.95497" lon="4.45985">
        <ele>996</ele>
        <time>2019-01-19T10:37:29Z</time>
      </trkpt>
      <trkpt lat="44.95529" lon="4.45913">
        <ele>996</ele>
        <time>2019-01-19T10:38:29Z</time>
      </trkpt>
      <trkpt lat="44.95575" lon="4.45789">
        <ele>1003</ele>
        <time>2019-01-19T10:39:29Z</time>
      </trkpt>
      <trkpt lat="44.95606" lon="4.45689">
        <ele>1010</ele>
        <time>2019-01-19T10:40:29Z</time>
      </trkpt>
      <trkpt lat="44.95621" lon="4.45562">
        <ele>1017</ele>
        <time>2019-01-19T10:41:29Z</time>
      </trkpt>
      <trkpt lat="44.95625" lon="4.45537">
        <ele>1019</ele>
        <time>2019-01-19T10:42:29Z</time>
      </trkpt>
      <trkpt lat="44.95651" lon="4.45437">
        <ele>1025</ele>
        <time>2019-01-19T10:43:29Z</time>
      </trkpt>
      <trkpt lat="44.95673" lon="4.45326">
        <ele>1023</ele>
        <time>2019-01-19T10:44:29Z</time>
      </trkpt>
      <trkpt lat="44.95704" lon="4.45219">
        <ele>1027</ele>
        <time>2019-01-19T10:45:29Z</time>
      </trkpt>
      <trkpt lat="44.95746" lon="4.45129">
        <ele>1038</ele>
        <time>2019-01-19T10:46:29Z</time>
      </trkpt>
      <trkpt lat="44.95859" lon="4.44941">
        <ele>1051</ele>
        <time>2019-01-19T10:47:29Z</time>
      </trkpt>
      <trkpt lat="44.95911" lon="4.44839">
        <ele>1057</ele>
        <time>2019-01-19T10:48:29Z</time>
      </trkpt>
      <trkpt lat="44.95919" lon="4.44822">
        <ele>1056</ele>
        <time>2019-01-19T10:49:29Z</time>
      </trkpt>
      <trkpt lat="44.95945" lon="4.44785">
        <ele>1055</ele>
        <time>2019-01-19T10:50:29Z</time>
      </trkpt>
      <trkpt lat="44.95968" lon="4.44777">
        <ele>1058</ele>
        <time>2019-01-19T10:51:29Z</time>
      </trkpt>
      <trkpt lat="44.95991" lon="4.44778">
        <ele>1064</ele>
        <time>2019-01-19T10:52:29Z</time>
      </trkpt>
      <trkpt lat="44.96038" lon="4.44799">
        <ele>1070</ele>
        <time>2019-01-19T10:53:29Z</time>
      </trkpt>
      <trkpt lat="44.96052" lon="4.44804">
        <ele>1071</ele>
        <time>2019-01-19T10:54:29Z</time>
      </trkpt>
      <trkpt lat="44.96071" lon="4.44805">
        <ele>1071</ele>
        <time>2019-01-19T10:55:29Z</time>
      </trkpt>
      <trkpt lat="44.96086" lon="4.44799">
        <ele>1072</ele>
        <time>2019-01-19T10:56:29Z</time>
      </trkpt>
      <trkpt lat="44.96097" lon="4.44791">
        <ele>1073</ele>
        <time>2019-01-19T10:57:29Z</time>
      </trkpt>
      <trkpt lat="44.96135" lon="4.44758">
        <ele>1078</ele>
        <time>2019-01-19T10:58:29Z</time>
      </trkpt>
      <trkpt lat="44.96244" lon="4.44622">
        <ele>1090</ele>
        <time>2019-01-19T10:59:29Z</time>
      </trkpt>
      <trkpt lat="44.96288" lon="4.44599">
        <ele>1099</ele>
        <time>2019-01-19T11:00:29Z</time>
      </trkpt>
      <trkpt lat="44.9636" lon="4.44524">
        <ele>1107</ele>
        <time>2019-01-19T11:01:29Z</time>
      </trkpt>
      <trkpt lat="44.96392" lon="4.44504">
        <ele>1111</ele>
        <time>2019-01-19T11:02:29Z</time>
      </trkpt>
      <trkpt lat="44.96415" lon="4.4448">
        <ele>1113</ele>
        <time>2019-01-19T11:03:29Z</time>
      </trkpt>
      <trkpt lat="44.96429" lon="4.44438">
        <ele>1113</ele>
        <time>2019-01-19T11:04:29Z</time>
      </trkpt>
      <trkpt lat="44.96433" lon="4.44403">
        <ele>1110</ele>
        <time>2019-01-19T11:05:29Z</time>
      </trkpt>
      <trkpt lat="44.96462" lon="4.44323">
        <ele>1112</ele>
        <time>2019-01-19T11:06:29Z</time>
      </trkpt>
      <trkpt lat="44.96521" lon="4.44232">
        <ele>1116</ele>
        <time>2019-01-19T11:07:29Z</time>
      </trkpt>
      <trkpt lat="44.96558" lon="4.44186">
        <ele>1121</ele>
        <time>2019-01-19T11:08:29Z</time>
      </trkpt>
      <trkpt lat="44.96617" lon="4.44134">
        <ele>1129</ele>
        <time>2019-01-19T11:09:29Z</time>
      </trkpt>
      <trkpt lat="44.96676" lon="4.44073">
        <ele>1133</ele>
        <time>2019-01-19T11:10:29Z</time>
      </trkpt>
      <trkpt lat="44.96729" lon="4.44032">
        <ele>1130</ele>
        <time>2019-01-19T11:11:29Z</time>
      </trkpt>
      <trkpt lat="44.96777" lon="4.4401">
        <ele>1128</ele>
        <time>2019-01-19T11:12:29Z</time>
      </trkpt>
      <trkpt lat="44.96813" lon="4.43987">
        <ele>1126</ele>
        <time>2019-01-19T11:13:29Z</time>
      </trkpt>
      <trkpt lat="44.96873" lon="4.43953">
        <ele>1123</ele>
        <time>2019-01-19T11:14:29Z</time>
      </trkpt>
      <trkpt lat="44.96905" lon="4.43945">
        <ele>1121</ele>
        <time>2019-01-19T11:15:29Z</time>
      </trkpt>
      <trkpt lat="44.96933" lon="4.43934">
        <ele>1122</ele>
        <time>2019-01-19T11:16:29Z</time>
      </trkpt>
      <trkpt lat="44.9696" lon="4.43895">
        <ele>1122</ele>
        <time>2019-01-19T11:17:29Z</time>
      </trkpt>
      <trkpt lat="44.96971" lon="4.43862">
        <ele>1120</ele>
        <time>2019-01-19T11:18:29Z</time>
      </trkpt>
      <trkpt lat="44.96988" lon="4.43755">
        <ele>1113</ele>
        <time>2019-01-19T11:19:29Z</time>
      </trkpt>
      <trkpt lat="44.96998" lon="4.4373">
        <ele>1113</ele>
        <time>2019-01-19T11:20:29Z</time>
      </trkpt>
      <trkpt lat="44.97024" lon="4.43674">
        <ele>1114</ele>
        <time>2019-01-19T11:21:29Z</time>
      </trkpt>
      <trkpt lat="44.97069" lon="4.43611">
        <ele>1114</ele>
        <time>2019-01-19T11:22:29Z</time>
      </trkpt>
      <trkpt lat="44.97128" lon="4.43552">
        <ele>1110</ele>
        <time>2019-01-19T11:23:29Z</time>
      </trkpt>
      <trkpt lat="44.97194" lon="4.43513">
        <ele>1105</ele>
        <time>2019-01-19T11:24:29Z</time>
      </trkpt>
      <trkpt lat="44.97208" lon="4.43509">
        <ele>1104</ele>
        <time>2019-01-19T11:25:29Z</time>
      </trkpt>
      <trkpt lat="44.97321" lon="4.43511">
        <ele>1099</ele>
        <time>2019-01-19T11:26:29Z</time>
      </trkpt>
      <trkpt lat="44.97387" lon="4.43559">
        <ele>1091</ele>
        <time>2019-01-19T11:27:29Z</time>
      </trkpt>
      <trkpt lat="44.97399" lon="4.43574">
        <ele>1088</ele>
        <time>2019-01-19T11:28:29Z</time>
      </trkpt>
      <trkpt lat="44.97463" lon="4.43613">
        <ele>1080</ele>
        <time>2019-01-19T11:29:29Z</time>
      </trkpt>
      <trkpt lat="44.97541" lon="4.43623">
        <ele>1072</ele>
        <time>2019-01-19T11:30:29Z</time>
      </trkpt>
      <trkpt lat="44.97677" lon="4.4366">
        <ele>1067</ele>
        <time>2019-01-19T11:31:29Z</time>
      </trkpt>
      <trkpt lat="44.97713" lon="4.43664">
        <ele>1069</ele>
        <time>2019-01-19T11:32:29Z</time>
      </trkpt>
      <trkpt lat="44.97746" lon="4.43657">
        <ele>1070</ele>
        <time>2019-01-19T11:33:29Z</time>
      </trkpt>
      <trkpt lat="44.97761" lon="4.43648">
        <ele>1071</ele>
        <time>2019-01-19T11:34:29Z</time>
      </trkpt>
      <trkpt lat="44.97775" lon="4.43631">
        <ele>1074</ele>
        <time>2019-01-19T11:35:29Z</time>
      </trkpt>
      <trkpt lat="44.97785" lon="4.43608">
        <ele>1076</ele>
        <time>2019-01-19T11:36:29Z</time>
      </trkpt>
      <trkpt lat="44.97802" lon="4.43543">
        <ele>1079</ele>
        <time>2019-01-19T11:37:29Z</time>
      </trkpt>
      <trkpt lat="44.97807" lon="4.43531">
        <ele>1079</ele>
        <time>2019-01-19T11:38:29Z</time>
      </trkpt>
      <trkpt lat="44.97832" lon="4.43484">
        <ele>1081</ele>
        <time>2019-01-19T11:39:29Z</time>
      </trkpt>
      <trkpt lat="44.97915" lon="4.43376">
        <ele>1075</ele>
        <time>2019-01-19T11:40:29Z</time>
      </trkpt>
      <trkpt lat="44.97972" lon="4.4331">
        <ele>1073</ele>
        <time>2019-01-19T11:41:29Z</time>
      </trkpt>
      <trkpt lat="44.98011" lon="4.43273">
        <ele>1075</ele>
        <time>2019-01-19T11:42:29Z</time>
      </trkpt>
      <trkpt lat="44.98047" lon="4.43247">
        <ele>1073</ele>
        <time>2019-01-19T11:43:29Z</time>
      </trkpt>
      <trkpt lat="44.98082" lon="4.43199">
        <ele>1075</ele>
        <time>2019-01-19T11:44:29Z</time>
      </trkpt>
      <trkpt lat="44.98144" lon="4.43145">
        <ele>1069</ele>
        <time>2019-01-19T11:45:29Z</time>
      </trkpt>
      <trkpt lat="44.98176" lon="4.43128">
        <ele>1065</ele>
        <time>2019-01-19T11:46:29Z</time>
      </trkpt>
      <trkpt lat="44.98181" lon="4.43123">
        <ele>1065</ele>
        <time>2019-01-19T11:47:29Z</time>
      </trkpt>
      <trkpt lat="44.9823" lon="4.43065">
        <ele>1063</ele>
        <time>2019-01-19T11:48:29Z</time>
      </trkpt>
      <trkpt lat="44.98362" lon="4.42889">
        <ele>1059</ele>
        <time>2019-01-19T11:49:29Z</time>
      </trkpt>
      <trkpt lat="44.9838" lon="4.42853">
        <ele>1059</ele>
        <time>2019-01-19T11:50:29Z</time>
      </trkpt>
      <trkpt lat="44.98408" lon="4.4278">
        <ele>1058</ele>
        <time>2019-01-19T11:51:29Z</time>
      </trkpt>
      <trkpt lat="44.98436" lon="4.42699">
        <ele>1058</ele>
        <time>2019-01-19T11:52:29Z</time>
      </trkpt>
      <trkpt lat="44.98451" lon="4.42639">
        <ele>1060</ele>
        <time>2019-01-19T11:53:29Z</time>
      </trkpt>
      <trkpt lat="44.98459" lon="4.42581">
        <ele>1062</ele>
        <time>2019-01-19T11:54:29Z</time>
      </trkpt>
      <trkpt lat="44.98462" lon="4.42542">
        <ele>1063</ele>
        <time>2019-01-19T11:55:29Z</time>
      </trkpt>
      <trkpt lat="44.98514" lon="4.42342">
        <ele>1061</ele>
        <time>2019-01-19T11:56:29Z</time>
      </trkpt>
      <trkpt lat="44.9853" lon="4.42304">
        <ele>1060</ele>
        <time>2019-01-19T11:57:29Z</time>
      </trkpt>
      <trkpt lat="44.98544" lon="4.42277">
        <ele>1060</ele>
        <time>2019-01-19T11:58:29Z</time>
      </trkpt>
      <trkpt lat="44.98574" lon="4.42236">
        <ele>1059</ele>
        <time>2019-01-19T11:59:29Z</time>
      </trkpt>
      <trkpt lat="44.98687" lon="4.42101">
        <ele>1059</ele>
        <time>2019-01-19T12:00:29Z</time>
      </trkpt>
      <trkpt lat="44.98757" lon="4.42021">
        <ele>1056</ele>
        <time>2019-01-19T12:01:29Z</time>
      </trkpt>
      <trkpt lat="44.98823" lon="4.41959">
        <ele>1056</ele>
        <time>2019-01-19T12:02:29Z</time>
      </trkpt>
      <trkpt lat="44.98957" lon="4.41846">
        <ele>1048</ele>
        <time>2019-01-19T12:03:29Z</time>
      </trkpt>
      <trkpt lat="44.98988" lon="4.41818">
        <ele>1047</ele>
        <time>2019-01-19T12:04:29Z</time>
      </trkpt>
      <trkpt lat="44.99296" lon="4.41423">
        <ele>1028</ele>
        <time>2019-01-19T12:05:29Z</time>
      </trkpt>
      <trkpt lat="44.99432" lon="4.41252">
        <ele>1031</ele>
        <time>2019-01-19T12:06:29Z</time>
      </trkpt>
      <trkpt lat="44.99516" lon="4.41149">
        <ele>1031</ele>
        <time>2019-01-19T12:07:29Z</time>
      </trkpt>
      <trkpt lat="44.99836" lon="4.40741">
        <ele>1050</ele>
        <time>2019-01-19T12:08:29Z</time>
      </trkpt>
      <trkpt lat="44.99877" lon="4.40676">
        <ele>1046</ele>
        <time>2019-01-19T12:09:29Z</time>
      </trkpt>
      <trkpt lat="44.99976" lon="4.40558">
        <ele>1037</ele>
        <time>2019-01-19T12:10:29Z</time>
      </trkpt>
      <trkpt lat="45.00048" lon="4.40494">
        <ele>1038</ele>
        <time>2019-01-19T12:11:29Z</time>
      </trkpt>
      <trkpt lat="45.00151" lon="4.40389">
        <ele>1040</ele>
        <time>2019-01-19T12:12:29Z</time>
      </trkpt>
      <trkpt lat="45.00221" lon="4.40343">
        <ele>1037</ele>
        <time>2019-01-19T12:13:29Z</time>
      </trkpt>
      <trkpt lat="45.00236" lon="4.40338">
        <ele>1036</ele>
        <time>2019-01-19T12:14:29Z</time>
      </trkpt>
      <trkpt lat="45.00282" lon="4.40333">
        <ele>1036</ele>
        <time>2019-01-19T12:15:29Z</time>
      </trkpt>
      <trkpt lat="45.00325" lon="4.40315">
        <ele>1034</ele>
        <time>2019-01-19T12:16:29Z</time>
      </trkpt>
      <trkpt lat="45.00386" lon="4.40304">
        <ele>1035</ele>
        <time>2019-01-19T12:17:29Z</time>
      </trkpt>
      <trkpt lat="45.00426" lon="4.40292">
        <ele>1035</ele>
        <time>2019-01-19T12:18:29Z</time>
      </trkpt>
      <trkpt lat="45.00505" lon="4.40263">
        <ele>1037</ele>
        <time>2019-01-19T12:19:29Z</time>
      </trkpt>
      <trkpt lat="45.00564" lon="4.40244">
        <ele>1040</ele>
        <time>2019-01-19T12:20:29Z</time>
      </trkpt>
      <trkpt lat="45.00594" lon="4.40238">
        <ele>1041</ele>
        <time>2019-01-19T12:21:29Z</time>
      </trkpt>
      <trkpt lat="45.00595" lon="4.40249">
        <ele>1042</ele>
        <time>2019-01-19T12:22:29Z</time>
      </trkpt>
      <trkpt lat="45.00599" lon="4.40258">
        <ele>1042</ele>
        <time>2019-01-19T12:23:29Z</time>
      </trkpt>
      <trkpt lat="45.00604" lon="4.40264">
        <ele>1042</ele>
        <time>2019-01-19T12:24:29Z</time>
      </trkpt>
      <trkpt lat="45.00611" lon="4.40267">
        <ele>1043</ele>
        <time>2019-01-19T12:25:29Z</time>
      </trkpt>
      <trkpt lat="45.00617" lon="4.40266">
        <ele>1043</ele>
        <time>2019-01-19T12:26:29Z</time>
      </trkpt>
      <trkpt lat="45.00623" lon="4.40263">
        <ele>1043</ele>
        <time>2019-01-19T12:27:29Z</time>
      </trkpt>
      <trkpt lat="45.00627" lon="4.40257">
        <ele>1044</ele>
        <time>2019-01-19T12:28:29Z</time>
      </trkpt>
      <trkpt lat="45.0063" lon="4.40249">
        <ele>1044</ele>
        <time>2019-01-19T12:29:29Z</time>
      </trkpt>
      <trkpt lat="45.00631" lon="4.4024">
        <ele>1044</ele>
        <time>2019-01-19T12:30:29Z</time>
      </trkpt>
      <trkpt lat="45.0063" lon="4.40231">
        <ele>1043</ele>
        <time>2019-01-19T12:31:29Z</time>
      </trkpt>
      <trkpt lat="45.00661" lon="4.40216">
        <ele>1045</ele>
        <time>2019-01-19T12:32:29Z</time>
      </trkpt>
      <trkpt lat="45.00774" lon="4.40092">
        <ele>1053</ele>
        <time>2019-01-19T12:33:29Z</time>
      </trkpt>
      <trkpt lat="45.00791" lon="4.40069">
        <ele>1054</ele>
        <time>2019-01-19T12:34:29Z</time>
      </trkpt>
      <trkpt lat="45.00909" lon="4.39875">
        <ele>1064</ele>
        <time>2019-01-19T12:35:29Z</time>
      </trkpt>
      <trkpt lat="45.00909" lon="4.39859">
        <ele>1065</ele>
        <time>2019-01-19T12:36:29Z</time>
      </trkpt>
      <trkpt lat="45.0092" lon="4.3979">
        <ele>1068</ele>
        <time>2019-01-19T12:37:29Z</time>
      </trkpt>
      <trkpt lat="45.00928" lon="4.39766">
        <ele>1069</ele>
        <time>2019-01-19T12:38:29Z</time>
      </trkpt>
      <trkpt lat="45.00954" lon="4.39654">
        <ele>1068</ele>
        <time>2019-01-19T12:39:29Z</time>
      </trkpt>
      <trkpt lat="45.0096" lon="4.39637">
        <ele>1067</ele>
        <time>2019-01-19T12:40:29Z</time>
      </trkpt>
      <trkpt lat="45.00964" lon="4.39626">
        <ele>1067</ele>
        <time>2019-01-19T12:41:29Z</time>
      </trkpt>
      <trkpt lat="45.00988" lon="4.39587">
        <ele>1066</ele>
        <time>2019-01-19T12:42:29Z</time>
      </trkpt>
      <trkpt lat="45.00998" lon="4.39565">
        <ele>1067</ele>
        <time>2019-01-19T12:43:29Z</time>
      </trkpt>
      <trkpt lat="45.01026" lon="4.39475">
        <ele>1067</ele>
        <time>2019-01-19T12:44:29Z</time>
      </trkpt>
      <trkpt lat="45.01066" lon="4.39388">
        <ele>1064</ele>
        <time>2019-01-19T12:45:29Z</time>
      </trkpt>
      <trkpt lat="45.01089" lon="4.39334">
        <ele>1061</ele>
        <time>2019-01-19T12:46:29Z</time>
      </trkpt>
      <trkpt lat="45.01097" lon="4.39322">
        <ele>1062</ele>
        <time>2019-01-19T12:47:29Z</time>
      </trkpt>
      <trkpt lat="45.01152" lon="4.39211">
        <ele>1060</ele>
        <time>2019-01-19T12:48:29Z</time>
      </trkpt>
      <trkpt lat="45.01172" lon="4.39183">
        <ele>1059</ele>
        <time>2019-01-19T12:49:29Z</time>
      </trkpt>
      <trkpt lat="45.0119" lon="4.39165">
        <ele>1059</ele>
        <time>2019-01-19T12:50:29Z</time>
      </trkpt>
      <trkpt lat="45.01317" lon="4.39053">
        <ele>1056</ele>
        <time>2019-01-19T12:51:29Z</time>
      </trkpt>
      <trkpt lat="45.01335" lon="4.39032">
        <ele>1056</ele>
        <time>2019-01-19T12:52:29Z</time>
      </trkpt>
      <trkpt lat="45.01347" lon="4.39013">
        <ele>1055</ele>
        <time>2019-01-19T12:53:29Z</time>
      </trkpt>
      <trkpt lat="45.01356" lon="4.38994">
        <ele>1055</ele>
        <time>2019-01-19T12:54:29Z</time>
      </trkpt>
      <trkpt lat="45.01389" lon="4.38909">
        <ele>1054</ele>
        <time>2019-01-19T12:55:29Z</time>
      </trkpt>
      <trkpt lat="45.01405" lon="4.38876">
        <ele>1053</ele>
        <time>2019-01-19T12:56:29Z</time>
      </trkpt>
      <trkpt lat="45.01416" lon="4.38859">
        <ele>1054</ele>
        <time>2019-01-19T12:57:29Z</time>
      </trkpt>
      <trkpt lat="45.01451" lon="4.38811">
        <ele>1051</ele>
        <time>2019-01-19T12:58:29Z</time>
      </trkpt>
      <trkpt lat="45.01462" lon="4.38793">
        <ele>1051</ele>
        <time>2019-01-19T12:59:29Z</time>
      </trkpt>
      <trkpt lat="45.01467" lon="4.38793">
        <ele>1051</ele>
        <time>2019-01-19T13:00:29Z</time>
      </trkpt>
      <trkpt lat="45.01471" lon="4.38789">
        <ele>1051</ele>
        <time>2019-01-19T13:01:29Z</time>
      </trkpt>
      <trkpt lat="45.01473" lon="4.38781">
        <ele>1051</ele>
        <time>2019-01-19T13:02:29Z</time>
      </trkpt>
      <trkpt lat="45.01491" lon="4.38761">
        <ele>1050</ele>
        <time>2019-01-19T13:03:29Z</time>
      </trkpt>
      <trkpt lat="45.01506" lon="4.38751">
        <ele>1049</ele>
        <time>2019-01-19T13:04:29Z</time>
      </trkpt>
      <trkpt lat="45.01555" lon="4.38733">
        <ele>1045</ele>
        <time>2019-01-19T13:05:29Z</time>
      </trkpt>
      <trkpt lat="45.0157" lon="4.3873">
        <ele>1043</ele>
        <time>2019-01-19T13:06:29Z</time>
      </trkpt>
      <trkpt lat="45.01568" lon="4.3871">
        <ele>1044</ele>
        <time>2019-01-19T13:07:29Z</time>
      </trkpt>
      <trkpt lat="45.01565" lon="4.38691">
        <ele>1044</ele>
        <time>2019-01-19T13:08:29Z</time>
      </trkpt>
      <trkpt lat="45.01626" lon="4.38626">
        <ele>1038</ele>
        <time>2019-01-19T13:09:29Z</time>
      </trkpt>
      <trkpt lat="45.01664" lon="4.38595">
        <ele>1034</ele>
        <time>2019-01-19T13:10:29Z</time>
      </trkpt>
      <trkpt lat="45.01698" lon="4.38581">
        <ele>1030</ele>
        <time>2019-01-19T13:11:29Z</time>
      </trkpt>
      <trkpt lat="45.01733" lon="4.38574">
        <ele>1027</ele>
        <time>2019-01-19T13:12:29Z</time>
      </trkpt>
      <trkpt lat="45.01747" lon="4.38569">
        <ele>1026</ele>
        <time>2019-01-19T13:13:29Z</time>
      </trkpt>
      <trkpt lat="45.01758" lon="4.38562">
        <ele>1025</ele>
        <time>2019-01-19T13:14:29Z</time>
      </trkpt>
      <trkpt lat="45.01765" lon="4.38554">
        <ele>1024</ele>
        <time>2019-01-19T13:15:29Z</time>
      </trkpt>
      <trkpt lat="45.01777" lon="4.38532">
        <ele>1022</ele>
        <time>2019-01-19T13:16:29Z</time>
      </trkpt>
      <trkpt lat="45.01787" lon="4.38527">
        <ele>1020</ele>
        <time>2019-01-19T13:17:29Z</time>
      </trkpt>
      <trkpt lat="45.01793" lon="4.38528">
        <ele>1019</ele>
        <time>2019-01-19T13:18:29Z</time>
      </trkpt>
      <trkpt lat="45.01865" lon="4.38563">
        <ele>1012</ele>
        <time>2019-01-19T13:19:29Z</time>
      </trkpt>
      <trkpt lat="45.01912" lon="4.38582">
        <ele>1009</ele>
        <time>2019-01-19T13:20:29Z</time>
      </trkpt>
      <trkpt lat="45.01946" lon="4.38603">
        <ele>1008</ele>
        <time>2019-01-19T13:21:29Z</time>
      </trkpt>
      <trkpt lat="45.01958" lon="4.38611">
        <ele>1008</ele>
        <time>2019-01-19T13:22:29Z</time>
      </trkpt>
      <trkpt lat="45.01963" lon="4.38617">
        <ele>1007</ele>
        <time>2019-01-19T13:23:29Z</time>
      </trkpt>
      <trkpt lat="45.01977" lon="4.38644">
        <ele>1006</ele>
        <time>2019-01-19T13:24:29Z</time>
      </trkpt>
      <trkpt lat="45.01999" lon="4.38671">
        <ele>1004</ele>
        <time>2019-01-19T13:25:29Z</time>
      </trkpt>
      <trkpt lat="45.02008" lon="4.38678">
        <ele>1004</ele>
        <time>2019-01-19T13:26:29Z</time>
      </trkpt>
      <trkpt lat="45.02023" lon="4.38679">
        <ele>1005</ele>
        <time>2019-01-19T13:27:29Z</time>
      </trkpt>
      <trkpt lat="45.0203" lon="4.38677">
        <ele>1005</ele>
        <time>2019-01-19T13:28:29Z</time>
      </trkpt>
      <trkpt lat="45.02044" lon="4.38658">
        <ele>1006</ele>
        <time>2019-01-19T13:29:29Z</time>
      </trkpt>
      <trkpt lat="45.02093" lon="4.38621">
        <ele>1012</ele>
        <time>2019-01-19T13:30:29Z</time>
      </trkpt>
      <trkpt lat="45.02101" lon="4.3861">
        <ele>1014</ele>
        <time>2019-01-19T13:31:29Z</time>
      </trkpt>
      <trkpt lat="45.02114" lon="4.38579">
        <ele>1016</ele>
        <time>2019-01-19T13:32:29Z</time>
      </trkpt>
      <trkpt lat="45.02131" lon="4.38525">
        <ele>1019</ele>
        <time>2019-01-19T13:33:29Z</time>
      </trkpt>
      <trkpt lat="45.02137" lon="4.38519">
        <ele>1018</ele>
        <time>2019-01-19T13:34:29Z</time>
      </trkpt>
      <trkpt lat="45.02141" lon="4.38519">
        <ele>1018</ele>
        <time>2019-01-19T13:35:29Z</time>
      </trkpt>
      <trkpt lat="45.0214" lon="4.38502">
        <ele>1018</ele>
        <time>2019-01-19T13:36:29Z</time>
      </trkpt>
      <trkpt lat="45.02133" lon="4.3847">
        <ele>1019</ele>
        <time>2019-01-19T13:37:29Z</time>
      </trkpt>
      <trkpt lat="45.02106" lon="4.3839">
        <ele>1021</ele>
        <time>2019-01-19T13:38:29Z</time>
      </trkpt>
      <trkpt lat="45.02102" lon="4.38374">
        <ele>1021</ele>
        <time>2019-01-19T13:39:29Z</time>
      </trkpt>
      <trkpt lat="45.021" lon="4.38331">
        <ele>1022</ele>
        <time>2019-01-19T13:40:29Z</time>
      </trkpt>
      <trkpt lat="45.02105" lon="4.38241">
        <ele>1026</ele>
        <time>2019-01-19T13:41:29Z</time>
      </trkpt>
      <trkpt lat="45.02133" lon="4.37976">
        <ele>1026</ele>
        <time>2019-01-19T13:42:29Z</time>
      </trkpt>
      <trkpt lat="45.02142" lon="4.37814">
        <ele>1023</ele>
        <time>2019-01-19T13:43:29Z</time>
      </trkpt>
      <trkpt lat="45.02143" lon="4.37744">
        <ele>1022</ele>
        <time>2019-01-19T13:44:29Z</time>
      </trkpt>
      <trkpt lat="45.02141" lon="4.37693">
        <ele>1023</ele>
        <time>2019-01-19T13:45:29Z</time>
      </trkpt>
      <trkpt lat="45.0213" lon="4.37607">
        <ele>1025</ele>
        <time>2019-01-19T13:46:29Z</time>
      </trkpt>
      <trkpt lat="45.02126" lon="4.37521">
        <ele>1025</ele>
        <time>2019-01-19T13:47:29Z</time>
      </trkpt>
      <trkpt lat="45.02124" lon="4.37402">
        <ele>1024</ele>
        <time>2019-01-19T13:48:29Z</time>
      </trkpt>
      <trkpt lat="45.02124" lon="4.37225">
        <ele>1027</ele>
        <time>2019-01-19T13:49:29Z</time>
      </trkpt>
      <trkpt lat="45.02117" lon="4.37122">
        <ele>1029</ele>
        <time>2019-01-19T13:50:29Z</time>
      </trkpt>
      <trkpt lat="45.02115" lon="4.37058">
        <ele>1030</ele>
        <time>2019-01-19T13:51:29Z</time>
      </trkpt>
      <trkpt lat="45.02117" lon="4.37">
        <ele>1031</ele>
        <time>2019-01-19T13:52:29Z</time>
      </trkpt>
      <trkpt lat="45.02126" lon="4.36949">
        <ele>1032</ele>
        <time>2019-01-19T13:53:29Z</time>
      </trkpt>
      <trkpt lat="45.02139" lon="4.36904">
        <ele>1033</ele>
        <time>2019-01-19T13:54:29Z</time>
      </trkpt>
      <trkpt lat="45.02176" lon="4.36801">
        <ele>1034</ele>
        <time>2019-01-19T13:55:29Z</time>
      </trkpt>
      <trkpt lat="45.02185" lon="4.36761">
        <ele>1033</ele>
        <time>2019-01-19T13:56:29Z</time>
      </trkpt>
      <trkpt lat="45.0219" lon="4.36706">
        <ele>1032</ele>
        <time>2019-01-19T13:57:29Z</time>
      </trkpt>
      <trkpt lat="45.02191" lon="4.3668">
        <ele>1032</ele>
        <time>2019-01-19T13:58:29Z</time>
      </trkpt>
      <trkpt lat="45.02189" lon="4.36644">
        <ele>1031</ele>
        <time>2019-01-19T13:59:29Z</time>
      </trkpt>
      <trkpt lat="45.02184" lon="4.36603">
        <ele>1030</ele>
        <time>2019-01-19T14:00:29Z</time>
      </trkpt>
      <trkpt lat="45.02174" lon="4.36549">
        <ele>1028</ele>
        <time>2019-01-19T14:01:29Z</time>
      </trkpt>
      <trkpt lat="45.02129" lon="4.36329">
        <ele>1030</ele>
        <time>2019-01-19T14:02:29Z</time>
      </trkpt>
      <trkpt lat="45.02081" lon="4.36107">
        <ele>1034</ele>
        <time>2019-01-19T14:03:29Z</time>
      </trkpt>
      <trkpt lat="45.02074" lon="4.36085">
        <ele>1034</ele>
        <time>2019-01-19T14:04:29Z</time>
      </trkpt>
      <trkpt lat="45.02005" lon="4.35913">
        <ele>1032</ele>
        <time>2019-01-19T14:05:29Z</time>
      </trkpt>
      <trkpt lat="45.01989" lon="4.35867">
        <ele>1032</ele>
        <time>2019-01-19T14:06:29Z</time>
      </trkpt>
      <trkpt lat="45.01975" lon="4.35818">
        <ele>1033</ele>
        <time>2019-01-19T14:07:29Z</time>
      </trkpt>
      <trkpt lat="45.01943" lon="4.35669">
        <ele>1033</ele>
        <time>2019-01-19T14:08:29Z</time>
      </trkpt>
      <trkpt lat="45.01934" lon="4.35604">
        <ele>1034</ele>
        <time>2019-01-19T14:09:29Z</time>
      </trkpt>
      <trkpt lat="45.0193" lon="4.35547">
        <ele>1036</ele>
        <time>2019-01-19T14:10:29Z</time>
      </trkpt>
      <trkpt lat="45.0192" lon="4.35344">
        <ele>1045</ele>
        <time>2019-01-19T14:11:29Z</time>
      </trkpt>
      <trkpt lat="45.01925" lon="4.35265">
        <ele>1047</ele>
        <time>2019-01-19T14:12:29Z</time>
      </trkpt>
      <trkpt lat="45.01946" lon="4.3512">
        <ele>1047</ele>
        <time>2019-01-19T14:13:29Z</time>
      </trkpt>
      <trkpt lat="45.01973" lon="4.34959">
        <ele>1042</ele>
        <time>2019-01-19T14:14:29Z</time>
      </trkpt>
      <trkpt lat="45.02012" lon="4.34777">
        <ele>1039</ele>
        <time>2019-01-19T14:15:29Z</time>
      </trkpt>
      <trkpt lat="45.02019" lon="4.34725">
        <ele>1039</ele>
        <time>2019-01-19T14:16:29Z</time>
      </trkpt>
      <trkpt lat="45.02017" lon="4.34646">
        <ele>1042</ele>
        <time>2019-01-19T14:17:29Z</time>
      </trkpt>
      <trkpt lat="45.02018" lon="4.34619">
        <ele>1044</ele>
        <time>2019-01-19T14:18:29Z</time>
      </trkpt>
      <trkpt lat="45.02022" lon="4.34595">
        <ele>1045</ele>
        <time>2019-01-19T14:19:29Z</time>
      </trkpt>
      <trkpt lat="45.02029" lon="4.34568">
        <ele>1046</ele>
        <time>2019-01-19T14:20:29Z</time>
      </trkpt>
      <trkpt lat="45.02042" lon="4.34534">
        <ele>1048</ele>
        <time>2019-01-19T14:21:29Z</time>
      </trkpt>
      <trkpt lat="45.02103" lon="4.3442">
        <ele>1050</ele>
        <time>2019-01-19T14:22:29Z</time>
      </trkpt>
      <trkpt lat="45.02123" lon="4.34367">
        <ele>1051</ele>
        <time>2019-01-19T14:23:29Z</time>
      </trkpt>
      <trkpt lat="45.02133" lon="4.34332">
        <ele>1052</ele>
        <time>2019-01-19T14:24:29Z</time>
      </trkpt>
      <trkpt lat="45.02146" lon="4.34261">
        <ele>1054</ele>
        <time>2019-01-19T14:25:29Z</time>
      </trkpt>
      <trkpt lat="45.02149" lon="4.34231">
        <ele>1055</ele>
        <time>2019-01-19T14:26:29Z</time>
      </trkpt>
      <trkpt lat="45.02148" lon="4.34103">
        <ele>1058</ele>
        <time>2019-01-19T14:27:29Z</time>
      </trkpt>
      <trkpt lat="45.02156" lon="4.34048">
        <ele>1059</ele>
        <time>2019-01-19T14:28:29Z</time>
      </trkpt>
      <trkpt lat="45.02162" lon="4.34014">
        <ele>1060</ele>
        <time>2019-01-19T14:29:29Z</time>
      </trkpt>
      <trkpt lat="45.02192" lon="4.33912">
        <ele>1059</ele>
        <time>2019-01-19T14:30:29Z</time>
      </trkpt>
      <trkpt lat="45.02202" lon="4.33862">
        <ele>1060</ele>
        <time>2019-01-19T14:31:29Z</time>
      </trkpt>
      <trkpt lat="45.02207" lon="4.33822">
        <ele>1061</ele>
        <time>2019-01-19T14:32:29Z</time>
      </trkpt>
      <trkpt lat="45.02212" lon="4.33689">
        <ele>1064</ele>
        <time>2019-01-19T14:33:29Z</time>
      </trkpt>
      <trkpt lat="45.02213" lon="4.33572">
        <ele>1071</ele>
        <time>2019-01-19T14:34:29Z</time>
      </trkpt>
      <trkpt lat="45.02195" lon="4.33248">
        <ele>1071</ele>
        <time>2019-01-19T14:35:29Z</time>
      </trkpt>
      <trkpt lat="45.02192" lon="4.33093">
        <ele>1068</ele>
        <time>2019-01-19T14:36:29Z</time>
      </trkpt>
      <trkpt lat="45.02194" lon="4.33034">
        <ele>1067</ele>
        <time>2019-01-19T14:37:29Z</time>
      </trkpt>
      <trkpt lat="45.02202" lon="4.32903">
        <ele>1067</ele>
        <time>2019-01-19T14:38:29Z</time>
      </trkpt>
      <trkpt lat="45.02205" lon="4.32787">
        <ele>1066</ele>
        <time>2019-01-19T14:39:29Z</time>
      </trkpt>
      <trkpt lat="45.02204" lon="4.32716">
        <ele>1065</ele>
        <time>2019-01-19T14:40:29Z</time>
      </trkpt>
      <trkpt lat="45.022" lon="4.32604">
        <ele>1062</ele>
        <time>2019-01-19T14:41:29Z</time>
      </trkpt>
      <trkpt lat="45.0219" lon="4.32397">
        <ele>1058</ele>
        <time>2019-01-19T14:42:29Z</time>
      </trkpt>
      <trkpt lat="45.02182" lon="4.32289">
        <ele>1059</ele>
        <time>2019-01-19T14:43:29Z</time>
      </trkpt>
      <trkpt lat="45.02176" lon="4.32235">
        <ele>1058</ele>
        <time>2019-01-19T14:44:29Z</time>
      </trkpt>
      <trkpt lat="45.02179" lon="4.32182">
        <ele>1058</ele>
        <time>2019-01-19T14:45:29Z</time>
      </trkpt>
      <trkpt lat="45.02178" lon="4.32168">
        <ele>1058</ele>
        <time>2019-01-19T14:46:29Z</time>
      </trkpt>
      <trkpt lat="45.02176" lon="4.32151">
        <ele>1057</ele>
        <time>2019-01-19T14:47:29Z</time>
      </trkpt>
      <trkpt lat="45.02172" lon="4.32129">
        <ele>1057</ele>
        <time>2019-01-19T14:48:29Z</time>
      </trkpt>
      <trkpt lat="45.02161" lon="4.32092">
        <ele>1055</ele>
        <time>2019-01-19T14:49:29Z</time>
      </trkpt>
      <trkpt lat="45.02144" lon="4.32052">
        <ele>1055</ele>
        <time>2019-01-19T14:50:29Z</time>
      </trkpt>
      <trkpt lat="45.02104" lon="4.31967">
        <ele>1053</ele>
        <time>2019-01-19T14:51:29Z</time>
      </trkpt>
      <trkpt lat="45.02099" lon="4.31959">
        <ele>1053</ele>
        <time>2019-01-19T14:52:29Z</time>
      </trkpt>
      <trkpt lat="45.02069" lon="4.3193">
        <ele>1049</ele>
        <time>2019-01-19T14:53:29Z</time>
      </trkpt>
      <trkpt lat="45.02015" lon="4.31892">
        <ele>1040</ele>
        <time>2019-01-19T14:54:29Z</time>
      </trkpt>
      <trkpt lat="45.02004" lon="4.31881">
        <ele>1039</ele>
        <time>2019-01-19T14:55:29Z</time>
      </trkpt>
      <trkpt lat="45.01998" lon="4.31873">
        <ele>1038</ele>
        <time>2019-01-19T14:56:29Z</time>
      </trkpt>
      <trkpt lat="45.01994" lon="4.31863">
        <ele>1038</ele>
        <time>2019-01-19T14:57:29Z</time>
      </trkpt>
      <trkpt lat="45.01992" lon="4.31853">
        <ele>1038</ele>
        <time>2019-01-19T14:58:29Z</time>
      </trkpt>
      <trkpt lat="45.01992" lon="4.31839">
        <ele>1039</ele>
        <time>2019-01-19T14:59:29Z</time>
      </trkpt>
      <trkpt lat="45.01994" lon="4.31824">
        <ele>1039</ele>
        <time>2019-01-19T15:00:29Z</time>
      </trkpt>
      <trkpt lat="45.01999" lon="4.3181">
        <ele>1038</ele>
        <time>2019-01-19T15:01:29Z</time>
      </trkpt>
      <trkpt lat="45.02009" lon="4.31784">
        <ele>1038</ele>
        <time>2019-01-19T15:02:29Z</time>
      </trkpt>
      <trkpt lat="45.02049" lon="4.31709">
        <ele>1038</ele>
        <time>2019-01-19T15:03:29Z</time>
      </trkpt>
      <trkpt lat="45.02093" lon="4.31634">
        <ele>1034</ele>
        <time>2019-01-19T15:04:29Z</time>
      </trkpt>
      <trkpt lat="45.02118" lon="4.31595">
        <ele>1031</ele>
        <time>2019-01-19T15:05:29Z</time>
      </trkpt>
      <trkpt lat="45.02153" lon="4.3155">
        <ele>1027</ele>
        <time>2019-01-19T15:06:29Z</time>
      </trkpt>
      <trkpt lat="45.02189" lon="4.31506">
        <ele>1021</ele>
        <time>2019-01-19T15:07:29Z</time>
      </trkpt>
      <trkpt lat="45.02234" lon="4.31459">
        <ele>1014</ele>
        <time>2019-01-19T15:08:29Z</time>
      </trkpt>
      <trkpt lat="45.02263" lon="4.31419">
        <ele>1006</ele>
        <time>2019-01-19T15:09:29Z</time>
      </trkpt>
      <trkpt lat="45.02321" lon="4.31333">
        <ele>999</ele>
        <time>2019-01-19T15:10:29Z</time>
      </trkpt>
      <trkpt lat="45.02336" lon="4.31317">
        <ele>997</ele>
        <time>2019-01-19T15:11:29Z</time>
      </trkpt>
      <trkpt lat="45.02373" lon="4.31289">
        <ele>995</ele>
        <time>2019-01-19T15:12:29Z</time>
      </trkpt>
      <trkpt lat="45.02398" lon="4.31262">
        <ele>991</ele>
        <time>2019-01-19T15:13:29Z</time>
      </trkpt>
      <trkpt lat="45.02413" lon="4.3125">
        <ele>990</ele>
        <time>2019-01-19T15:14:29Z</time>
      </trkpt>
      <trkpt lat="45.02441" lon="4.31232">
        <ele>988</ele>
        <time>2019-01-19T15:15:29Z</time>
      </trkpt>
      <trkpt lat="45.0245" lon="4.31221">
        <ele>986</ele>
        <time>2019-01-19T15:16:29Z</time>
      </trkpt>
      <trkpt lat="45.02454" lon="4.31212">
        <ele>984</ele>
        <time>2019-01-19T15:17:29Z</time>
      </trkpt>
      <trkpt lat="45.02581" lon="4.30776">
        <ele>977</ele>
        <time>2019-01-19T15:18:29Z</time>
      </trkpt>
      <trkpt lat="45.02583" lon="4.30748">
        <ele>978</ele>
        <time>2019-01-19T15:19:29Z</time>
      </trkpt>
      <trkpt lat="45.02584" lon="4.30691">
        <ele>982</ele>
        <time>2019-01-19T15:20:29Z</time>
      </trkpt>
      <trkpt lat="45.02587" lon="4.30656">
        <ele>985</ele>
        <time>2019-01-19T15:21:29Z</time>
      </trkpt>
      <trkpt lat="45.02592" lon="4.30622">
        <ele>987</ele>
        <time>2019-01-19T15:22:29Z</time>
      </trkpt>
      <trkpt lat="45.02601" lon="4.30591">
        <ele>990</ele>
        <time>2019-01-19T15:23:29Z</time>
      </trkpt>
      <trkpt lat="45.02615" lon="4.30556">
        <ele>995</ele>
        <time>2019-01-19T15:24:29Z</time>
      </trkpt>
      <trkpt lat="45.02625" lon="4.30536">
        <ele>997</ele>
        <time>2019-01-19T15:25:29Z</time>
      </trkpt>
      <trkpt lat="45.0265" lon="4.30498">
        <ele>1004</ele>
        <time>2019-01-19T15:26:29Z</time>
      </trkpt>
      <trkpt lat="45.02658" lon="4.30481">
        <ele>1005</ele>
        <time>2019-01-19T15:27:29Z</time>
      </trkpt>
      <trkpt lat="45.02709" lon="4.30334">
        <ele>1011</ele>
        <time>2019-01-19T15:28:29Z</time>
      </trkpt>
      <trkpt lat="45.02715" lon="4.30311">
        <ele>1012</ele>
        <time>2019-01-19T15:29:29Z</time>
      </trkpt>
      <trkpt lat="45.02722" lon="4.30252">
        <ele>1009</ele>
        <time>2019-01-19T15:30:29Z</time>
      </trkpt>
      <trkpt lat="45.0274" lon="4.29973">
        <ele>1030</ele>
        <time>2019-01-19T15:31:29Z</time>
      </trkpt>
      <trkpt lat="45.02745" lon="4.29914">
        <ele>1033</ele>
        <time>2019-01-19T15:32:29Z</time>
      </trkpt>
      <trkpt lat="45.02816" lon="4.29431">
        <ele>1050</ele>
        <time>2019-01-19T15:33:29Z</time>
      </trkpt>
      <trkpt lat="45.02986" lon="4.28235">
        <ele>1071</ele>
        <time>2019-01-19T15:34:29Z</time>
      </trkpt>
      <trkpt lat="45.02993" lon="4.28177">
        <ele>1070</ele>
        <time>2019-01-19T15:35:29Z</time>
      </trkpt>
      <trkpt lat="45.03038" lon="4.27654">
        <ele>1075</ele>
        <time>2019-01-19T15:36:29Z</time>
      </trkpt>
      <trkpt lat="45.03059" lon="4.27426">
        <ele>1079</ele>
        <time>2019-01-19T15:37:29Z</time>
      </trkpt>
      <trkpt lat="45.03158" lon="4.26226">
        <ele>1082</ele>
        <time>2019-01-19T15:38:29Z</time>
      </trkpt>
      <trkpt lat="45.03169" lon="4.26145">
        <ele>1084</ele>
        <time>2019-01-19T15:39:29Z</time>
      </trkpt>
      <trkpt lat="45.03185" lon="4.26061">
        <ele>1089</ele>
        <time>2019-01-19T15:40:29Z</time>
      </trkpt>
      <trkpt lat="45.03296" lon="4.25496">
        <ele>1114</ele>
        <time>2019-01-19T15:41:29Z</time>
      </trkpt>
      <trkpt lat="45.03324" lon="4.25335">
        <ele>1120</ele>
        <time>2019-01-19T15:42:29Z</time>
      </trkpt>
      <trkpt lat="45.03327" lon="4.253">
        <ele>1120</ele>
        <time>2019-01-19T15:43:29Z</time>
      </trkpt>
      <trkpt lat="45.03328" lon="4.25265">
        <ele>1121</ele>
        <time>2019-01-19T15:44:29Z</time>
      </trkpt>
      <trkpt lat="45.03317" lon="4.24811">
        <ele>1116</ele>
        <time>2019-01-19T15:45:29Z</time>
      </trkpt>
      <trkpt lat="45.0331" lon="4.24393">
        <ele>1132</ele>
        <time>2019-01-19T15:46:29Z</time>
      </trkpt>
      <trkpt lat="45.03287" lon="4.23382">
        <ele>1134</ele>
        <time>2019-01-19T15:47:29Z</time>
      </trkpt>
      <trkpt lat="45.03282" lon="4.23105">
        <ele>1139</ele>
        <time>2019-01-19T15:48:29Z</time>
      </trkpt>
      <trkpt lat="45.03281" lon="4.23066">
        <ele>1141</ele>
        <time>2019-01-19T15:49:29Z</time>
      </trkpt>
      <trkpt lat="45.03276" lon="4.2303">
        <ele>1142</ele>
        <time>2019-01-19T15:50:29Z</time>
      </trkpt>
      <trkpt lat="45.03268" lon="4.22994">
        <ele>1143</ele>
        <time>2019-01-19T15:51:29Z</time>
      </trkpt>
      <trkpt lat="45.03109" lon="4.22456">
        <ele>1132</ele>
        <time>2019-01-19T15:52:29Z</time>
      </trkpt>
      <trkpt lat="45.02903" lon="4.21747">
        <ele>1158</ele>
        <time>2019-01-19T15:53:29Z</time>
      </trkpt>
      <trkpt lat="45.02893" lon="4.21703">
        <ele>1160</ele>
        <time>2019-01-19T15:54:29Z</time>
      </trkpt>
      <trkpt lat="45.0289" lon="4.21665">
        <ele>1161</ele>
        <time>2019-01-19T15:55:29Z</time>
      </trkpt>
      <trkpt lat="45.02889" lon="4.21625">
        <ele>1164</ele>
        <time>2019-01-19T15:56:29Z</time>
      </trkpt>
      <trkpt lat="45.02891" lon="4.21593">
        <ele>1166</ele>
        <time>2019-01-19T15:57:29Z</time>
      </trkpt>
      <trkpt lat="45.02894" lon="4.21568">
        <ele>1167</ele>
        <time>2019-01-19T15:58:29Z</time>
      </trkpt>
      <trkpt lat="45.02897" lon="4.21558">
        <ele>1168</ele>
        <time>2019-01-19T15:59:29Z</time>
      </trkpt>
      <trkpt lat="45.02921" lon="4.21503">
        <ele>1172</ele>
        <time>2019-01-19T16:00:29Z</time>
      </trkpt>
      <trkpt lat="45.02927" lon="4.21487">
        <ele>1173</ele>
        <time>2019-01-19T16:01:29Z</time>
      </trkpt>
      <trkpt lat="45.0293" lon="4.21452">
        <ele>1175</ele>
        <time>2019-01-19T16:02:29Z</time>
      </trkpt>
      <trkpt lat="45.02932" lon="4.21387">
        <ele>1176</ele>
        <time>2019-01-19T16:03:29Z</time>
      </trkpt>
      <trkpt lat="45.02954" lon="4.21222">
        <ele>1174</ele>
        <time>2019-01-19T16:04:29Z</time>
      </trkpt>
      <trkpt lat="45.03126" lon="4.20043">
        <ele>1202</ele>
        <time>2019-01-19T16:05:29Z</time>
      </trkpt>
      <trkpt lat="45.03136" lon="4.19994">
        <ele>1204</ele>
        <time>2019-01-19T16:06:29Z</time>
      </trkpt>
      <trkpt lat="45.03148" lon="4.19949">
        <ele>1206</ele>
        <time>2019-01-19T16:07:29Z</time>
      </trkpt>
      <trkpt lat="45.03203" lon="4.19818">
        <ele>1210</ele>
        <time>2019-01-19T16:08:29Z</time>
      </trkpt>
      <trkpt lat="45.03482" lon="4.19235">
        <ele>1200</ele>
        <time>2019-01-19T16:09:29Z</time>
      </trkpt>
      <trkpt lat="45.03515" lon="4.19157">
        <ele>1198</ele>
        <time>2019-01-19T16:10:29Z</time>
      </trkpt>
      <trkpt lat="45.03529" lon="4.19098">
        <ele>1196</ele>
        <time>2019-01-19T16:11:29Z</time>
      </trkpt>
      <trkpt lat="45.03575" lon="4.18883">
        <ele>1193</ele>
        <time>2019-01-19T16:12:29Z</time>
      </trkpt>
      <trkpt lat="45.03584" lon="4.18813">
        <ele>1195</ele>
        <time>2019-01-19T16:13:29Z</time>
      </trkpt>
      <trkpt lat="45.03597" lon="4.18681">
        <ele>1194</ele>
        <time>2019-01-19T16:14:29Z</time>
      </trkpt>
      <trkpt lat="45.03605" lon="4.1863">
        <ele>1193</ele>
        <time>2019-01-19T16:15:29Z</time>
      </trkpt>
      <trkpt lat="45.03626" lon="4.18563">
        <ele>1190</ele>
        <time>2019-01-19T16:16:29Z</time>
      </trkpt>
      <trkpt lat="45.03688" lon="4.18371">
        <ele>1187</ele>
        <time>2019-01-19T16:17:29Z</time>
      </trkpt>
      <trkpt lat="45.03707" lon="4.18322">
        <ele>1189</ele>
        <time>2019-01-19T16:18:29Z</time>
      </trkpt>
      <trkpt lat="45.03721" lon="4.18301">
        <ele>1191</ele>
        <time>2019-01-19T16:19:29Z</time>
      </trkpt>
      <trkpt lat="45.03744" lon="4.18283">
        <ele>1193</ele>
        <time>2019-01-19T16:20:29Z</time>
      </trkpt>
      <trkpt lat="45.03768" lon="4.18274">
        <ele>1194</ele>
        <time>2019-01-19T16:21:29Z</time>
      </trkpt>
      <trkpt lat="45.03802" lon="4.18267">
        <ele>1195</ele>
        <time>2019-01-19T16:22:29Z</time>
      </trkpt>
      <trkpt lat="45.0383" lon="4.18257">
        <ele>1197</ele>
        <time>2019-01-19T16:23:29Z</time>
      </trkpt>
      <trkpt lat="45.03848" lon="4.18247">
        <ele>1198</ele>
        <time>2019-01-19T16:24:29Z</time>
      </trkpt>
      <trkpt lat="45.03872" lon="4.18232">
        <ele>1199</ele>
        <time>2019-01-19T16:25:29Z</time>
      </trkpt>
      <trkpt lat="45.03894" lon="4.18215">
        <ele>1201</ele>
        <time>2019-01-19T16:26:29Z</time>
      </trkpt>
      <trkpt lat="45.0392" lon="4.18188">
        <ele>1206</ele>
        <time>2019-01-19T16:27:29Z</time>
      </trkpt>
      <trkpt lat="45.03945" lon="4.18157">
        <ele>1209</ele>
        <time>2019-01-19T16:28:29Z</time>
      </trkpt>
      <trkpt lat="45.03959" lon="4.18131">
        <ele>1210</ele>
        <time>2019-01-19T16:29:29Z</time>
      </trkpt>
      <trkpt lat="45.03971" lon="4.18099">
        <ele>1213</ele>
        <time>2019-01-19T16:30:29Z</time>
      </trkpt>
      <trkpt lat="45.03975" lon="4.18065">
        <ele>1215</ele>
        <time>2019-01-19T16:31:29Z</time>
      </trkpt>
      <trkpt lat="45.03975" lon="4.18028">
        <ele>1216</ele>
        <time>2019-01-19T16:32:29Z</time>
      </trkpt>
      <trkpt lat="45.03967" lon="4.17948">
        <ele>1217</ele>
        <time>2019-01-19T16:33:29Z</time>
      </trkpt>
      <trkpt lat="45.03962" lon="4.17876">
        <ele>1216</ele>
        <time>2019-01-19T16:34:29Z</time>
      </trkpt>
      <trkpt lat="45.03955" lon="4.17819">
        <ele>1214</ele>
        <time>2019-01-19T16:35:29Z</time>
      </trkpt>
      <trkpt lat="45.03939" lon="4.17755">
        <ele>1211</ele>
        <time>2019-01-19T16:36:29Z</time>
      </trkpt>
      <trkpt lat="45.03806" lon="4.17275">
        <ele>1198</ele>
        <time>2019-01-19T16:37:29Z</time>
      </trkpt>
      <trkpt lat="45.03701" lon="4.16887">
        <ele>1183</ele>
        <time>2019-01-19T16:38:29Z</time>
      </trkpt>
      <trkpt lat="45.03588" lon="4.16481">
        <ele>1189</ele>
        <time>2019-01-19T16:39:29Z</time>
      </trkpt>
      <trkpt lat="45.03442" lon="4.15965">
        <ele>1213</ele>
        <time>2019-01-19T16:40:29Z</time>
      </trkpt>
      <trkpt lat="45.03405" lon="4.15824">
        <ele>1220</ele>
        <time>2019-01-19T16:41:29Z</time>
      </trkpt>
      <trkpt lat="45.03257" lon="4.15302">
        <ele>1242</ele>
        <time>2019-01-19T16:42:29Z</time>
      </trkpt>
      <trkpt lat="45.03116" lon="4.14775">
        <ele>1265</ele>
        <time>2019-01-19T16:43:29Z</time>
      </trkpt>
      <trkpt lat="45.0308" lon="4.14631">
        <ele>1267</ele>
        <time>2019-01-19T16:44:29Z</time>
      </trkpt>
      <trkpt lat="45.03077" lon="4.14607">
        <ele>1267</ele>
        <time>2019-01-19T16:45:29Z</time>
      </trkpt>
      <trkpt lat="45.03081" lon="4.14532">
        <ele>1267</ele>
        <time>2019-01-19T16:46:29Z</time>
      </trkpt>
      <trkpt lat="45.03087" lon="4.14456">
        <ele>1267</ele>
        <time>2019-01-19T16:47:29Z</time>
      </trkpt>
      <trkpt lat="45.03164" lon="4.13567">
        <ele>1249</ele>
        <time>2019-01-19T16:48:29Z</time>
      </trkpt>
      <trkpt lat="45.0317" lon="4.13523">
        <ele>1248</ele>
        <time>2019-01-19T16:49:29Z</time>
      </trkpt>
      <trkpt lat="45.03177" lon="4.1349">
        <ele>1247</ele>
        <time>2019-01-19T16:50:29Z</time>
      </trkpt>
      <trkpt lat="45.03251" lon="4.13275">
        <ele>1235</ele>
        <time>2019-01-19T16:51:29Z</time>
      </trkpt>
      <trkpt lat="45.0326" lon="4.13238">
        <ele>1232</ele>
        <time>2019-01-19T16:52:29Z</time>
      </trkpt>
      <trkpt lat="45.03266" lon="4.13201">
        <ele>1230</ele>
        <time>2019-01-19T16:53:29Z</time>
      </trkpt>
      <trkpt lat="45.0327" lon="4.1316">
        <ele>1228</ele>
        <time>2019-01-19T16:54:29Z</time>
      </trkpt>
      <trkpt lat="45.03271" lon="4.13125">
        <ele>1227</ele>
        <time>2019-01-19T16:55:29Z</time>
      </trkpt>
      <trkpt lat="45.03266" lon="4.13065">
        <ele>1224</ele>
        <time>2019-01-19T16:56:29Z</time>
      </trkpt>
      <trkpt lat="45.0326" lon="4.13027">
        <ele>1221</ele>
        <time>2019-01-19T16:57:29Z</time>
      </trkpt>
      <trkpt lat="45.03248" lon="4.12969">
        <ele>1217</ele>
        <time>2019-01-19T16:58:29Z</time>
      </trkpt>
      <trkpt lat="45.03148" lon="4.12528">
        <ele>1201</ele>
        <time>2019-01-19T16:59:29Z</time>
      </trkpt>
      <trkpt lat="45.03119" lon="4.12417">
        <ele>1201</ele>
        <time>2019-01-19T17:00:29Z</time>
      </trkpt>
      <trkpt lat="45.0311" lon="4.12397">
        <ele>1201</ele>
        <time>2019-01-19T17:01:29Z</time>
      </trkpt>
      <trkpt lat="45.03095" lon="4.12379">
        <ele>1201</ele>
        <time>2019-01-19T17:02:29Z</time>
      </trkpt>
      <trkpt lat="45.0308" lon="4.12366">
        <ele>1201</ele>
        <time>2019-01-19T17:03:29Z</time>
      </trkpt>
      <trkpt lat="45.03061" lon="4.12354">
        <ele>1202</ele>
        <time>2019-01-19T17:04:29Z</time>
      </trkpt>
      <trkpt lat="45.02929" lon="4.12293">
        <ele>1206</ele>
        <time>2019-01-19T17:05:29Z</time>
      </trkpt>
      <trkpt lat="45.02867" lon="4.1226">
        <ele>1207</ele>
        <time>2019-01-19T17:06:29Z</time>
      </trkpt>
      <trkpt lat="45.02793" lon="4.12226">
        <ele>1204</ele>
        <time>2019-01-19T17:07:29Z</time>
      </trkpt>
      <trkpt lat="45.02778" lon="4.12216">
        <ele>1204</ele>
        <time>2019-01-19T17:08:29Z</time>
      </trkpt>
      <trkpt lat="45.02769" lon="4.12205">
        <ele>1204</ele>
        <time>2019-01-19T17:09:29Z</time>
      </trkpt>
      <trkpt lat="45.02762" lon="4.12192">
        <ele>1204</ele>
        <time>2019-01-19T17:10:29Z</time>
      </trkpt>
      <trkpt lat="45.02756" lon="4.12178">
        <ele>1205</ele>
        <time>2019-01-19T17:11:29Z</time>
      </trkpt>
      <trkpt lat="45.02753" lon="4.12159">
        <ele>1205</ele>
        <time>2019-01-19T17:12:29Z</time>
      </trkpt>
      <trkpt lat="45.02753" lon="4.12118">
        <ele>1204</ele>
        <time>2019-01-19T17:13:29Z</time>
      </trkpt>
      <trkpt lat="45.02758" lon="4.12049">
        <ele>1202</ele>
        <time>2019-01-19T17:14:29Z</time>
      </trkpt>
      <trkpt lat="45.0276" lon="4.11934">
        <ele>1196</ele>
        <time>2019-01-19T17:15:29Z</time>
      </trkpt>
      <trkpt lat="45.02758" lon="4.11839">
        <ele>1191</ele>
        <time>2019-01-19T17:16:29Z</time>
      </trkpt>
      <trkpt lat="45.02753" lon="4.11755">
        <ele>1186</ele>
        <time>2019-01-19T17:17:29Z</time>
      </trkpt>
      <trkpt lat="45.02738" lon="4.11659">
        <ele>1183</ele>
        <time>2019-01-19T17:18:29Z</time>
      </trkpt>
      <trkpt lat="45.02729" lon="4.11618">
        <ele>1183</ele>
        <time>2019-01-19T17:19:29Z</time>
      </trkpt>
      <trkpt lat="45.02689" lon="4.11494">
        <ele>1178</ele>
        <time>2019-01-19T17:20:29Z</time>
      </trkpt>
      <trkpt lat="45.02685" lon="4.11468">
        <ele>1176</ele>
        <time>2019-01-19T17:21:29Z</time>
      </trkpt>
      <trkpt lat="45.02686" lon="4.11442">
        <ele>1174</ele>
        <time>2019-01-19T17:22:29Z</time>
      </trkpt>
      <trkpt lat="45.02692" lon="4.11422">
        <ele>1172</ele>
        <time>2019-01-19T17:23:29Z</time>
      </trkpt>
      <trkpt lat="45.02701" lon="4.11408">
        <ele>1170</ele>
        <time>2019-01-19T17:24:29Z</time>
      </trkpt>
      <trkpt lat="45.02715" lon="4.11395">
        <ele>1168</ele>
        <time>2019-01-19T17:25:29Z</time>
      </trkpt>
      <trkpt lat="45.02734" lon="4.11388">
        <ele>1166</ele>
        <time>2019-01-19T17:26:29Z</time>
      </trkpt>
      <trkpt lat="45.02756" lon="4.11383">
        <ele>1165</ele>
        <time>2019-01-19T17:27:29Z</time>
      </trkpt>
      <trkpt lat="45.02774" lon="4.11375">
        <ele>1165</ele>
        <time>2019-01-19T17:28:29Z</time>
      </trkpt>
      <trkpt lat="45.02873" lon="4.11294">
        <ele>1161</ele>
        <time>2019-01-19T17:29:29Z</time>
      </trkpt>
      <trkpt lat="45.02889" lon="4.11266">
        <ele>1159</ele>
        <time>2019-01-19T17:30:29Z</time>
      </trkpt>
      <trkpt lat="45.029" lon="4.11235">
        <ele>1157</ele>
        <time>2019-01-19T17:31:29Z</time>
      </trkpt>
      <trkpt lat="45.02917" lon="4.11204">
        <ele>1156</ele>
        <time>2019-01-19T17:32:29Z</time>
      </trkpt>
      <trkpt lat="45.0294" lon="4.11176">
        <ele>1156</ele>
        <time>2019-01-19T17:33:29Z</time>
      </trkpt>
      <trkpt lat="45.0302" lon="4.11051">
        <ele>1147</ele>
        <time>2019-01-19T17:34:29Z</time>
      </trkpt>
      <trkpt lat="45.03092" lon="4.10949">
        <ele>1143</ele>
        <time>2019-01-19T17:35:29Z</time>
      </trkpt>
      <trkpt lat="45.03186" lon="4.10828">
        <ele>1135</ele>
        <time>2019-01-19T17:36:29Z</time>
      </trkpt>
      <trkpt lat="45.03201" lon="4.108">
        <ele>1133</ele>
        <time>2019-01-19T17:37:29Z</time>
      </trkpt>
      <trkpt lat="45.03225" lon="4.10736">
        <ele>1126</ele>
        <time>2019-01-19T17:38:29Z</time>
      </trkpt>
      <trkpt lat="45.03266" lon="4.10652">
        <ele>1120</ele>
        <time>2019-01-19T17:39:29Z</time>
      </trkpt>
      <trkpt lat="45.03306" lon="4.10603">
        <ele>1118</ele>
        <time>2019-01-19T17:40:29Z</time>
      </trkpt>
      <trkpt lat="45.03326" lon="4.1057">
        <ele>1115</ele>
        <time>2019-01-19T17:41:29Z</time>
      </trkpt>
      <trkpt lat="45.03351" lon="4.10535">
        <ele>1113</ele>
        <time>2019-01-19T17:42:29Z</time>
      </trkpt>
      <trkpt lat="45.03378" lon="4.10503">
        <ele>1112</ele>
        <time>2019-01-19T17:43:29Z</time>
      </trkpt>
      <trkpt lat="45.03408" lon="4.10458">
        <ele>1110</ele>
        <time>2019-01-19T17:44:29Z</time>
      </trkpt>
      <trkpt lat="45.03434" lon="4.10415">
        <ele>1106</ele>
        <time>2019-01-19T17:45:29Z</time>
      </trkpt>
      <trkpt lat="45.03447" lon="4.1039">
        <ele>1103</ele>
        <time>2019-01-19T17:46:29Z</time>
      </trkpt>
      <trkpt lat="45.03471" lon="4.10332">
        <ele>1095</ele>
        <time>2019-01-19T17:47:29Z</time>
      </trkpt>
      <trkpt lat="45.03485" lon="4.10304">
        <ele>1092</ele>
        <time>2019-01-19T17:48:29Z</time>
      </trkpt>
      <trkpt lat="45.03515" lon="4.10254">
        <ele>1087</ele>
        <time>2019-01-19T17:49:29Z</time>
      </trkpt>
      <trkpt lat="45.03571" lon="4.10144">
        <ele>1081</ele>
        <time>2019-01-19T17:50:29Z</time>
      </trkpt>
      <trkpt lat="45.03584" lon="4.10118">
        <ele>1081</ele>
        <time>2019-01-19T17:51:29Z</time>
      </trkpt>
      <trkpt lat="45.03593" lon="4.10092">
        <ele>1079</ele>
        <time>2019-01-19T17:52:29Z</time>
      </trkpt>
      <trkpt lat="45.03623" lon="4.0999">
        <ele>1073</ele>
        <time>2019-01-19T17:53:29Z</time>
      </trkpt>
      <trkpt lat="45.03633" lon="4.09947">
        <ele>1072</ele>
        <time>2019-01-19T17:54:29Z</time>
      </trkpt>
      <trkpt lat="45.03652" lon="4.09838">
        <ele>1066</ele>
        <time>2019-01-19T17:55:29Z</time>
      </trkpt>
      <trkpt lat="45.03655" lon="4.09806">
        <ele>1066</ele>
        <time>2019-01-19T17:56:29Z</time>
      </trkpt>
      <trkpt lat="45.03651" lon="4.09781">
        <ele>1065</ele>
        <time>2019-01-19T17:57:29Z</time>
      </trkpt>
      <trkpt lat="45.03644" lon="4.09759">
        <ele>1065</ele>
        <time>2019-01-19T17:58:29Z</time>
      </trkpt>
      <trkpt lat="45.03636" lon="4.09749">
        <ele>1064</ele>
        <time>2019-01-19T17:59:29Z</time>
      </trkpt>
      <trkpt lat="45.03617" lon="4.09732">
        <ele>1063</ele>
        <time>2019-01-19T18:00:29Z</time>
      </trkpt>
      <trkpt lat="45.03603" lon="4.09726">
        <ele>1062</ele>
        <time>2019-01-19T18:01:29Z</time>
      </trkpt>
      <trkpt lat="45.03589" lon="4.09725">
        <ele>1061</ele>
        <time>2019-01-19T18:02:29Z</time>
      </trkpt>
      <trkpt lat="45.03574" lon="4.0973">
        <ele>1060</ele>
        <time>2019-01-19T18:03:29Z</time>
      </trkpt>
      <trkpt lat="45.03561" lon="4.09745">
        <ele>1058</ele>
        <time>2019-01-19T18:04:29Z</time>
      </trkpt>
      <trkpt lat="45.03546" lon="4.09767">
        <ele>1056</ele>
        <time>2019-01-19T18:05:29Z</time>
      </trkpt>
      <trkpt lat="45.03514" lon="4.09822">
        <ele>1053</ele>
        <time>2019-01-19T18:06:29Z</time>
      </trkpt>
      <trkpt lat="45.03489" lon="4.09851">
        <ele>1050</ele>
        <time>2019-01-19T18:07:29Z</time>
      </trkpt>
      <trkpt lat="45.03466" lon="4.09871">
        <ele>1047</ele>
        <time>2019-01-19T18:08:29Z</time>
      </trkpt>
      <trkpt lat="45.03437" lon="4.09907">
        <ele>1044</ele>
        <time>2019-01-19T18:09:29Z</time>
      </trkpt>
      <trkpt lat="45.03421" lon="4.09931">
        <ele>1042</ele>
        <time>2019-01-19T18:10:29Z</time>
      </trkpt>
      <trkpt lat="45.03398" lon="4.09976">
        <ele>1041</ele>
        <time>2019-01-19T18:11:29Z</time>
      </trkpt>
      <trkpt lat="45.03385" lon="4.09997">
        <ele>1040</ele>
        <time>2019-01-19T18:12:29Z</time>
      </trkpt>
      <trkpt lat="45.03363" lon="4.10019">
        <ele>1039</ele>
        <time>2019-01-19T18:13:29Z</time>
      </trkpt>
      <trkpt lat="45.03334" lon="4.10038">
        <ele>1038</ele>
        <time>2019-01-19T18:14:29Z</time>
      </trkpt>
      <trkpt lat="45.03307" lon="4.10051">
        <ele>1038</ele>
        <time>2019-01-19T18:15:29Z</time>
      </trkpt>
      <trkpt lat="45.03278" lon="4.1006">
        <ele>1037</ele>
        <time>2019-01-19T18:16:29Z</time>
      </trkpt>
      <trkpt lat="45.03233" lon="4.10056">
        <ele>1034</ele>
        <time>2019-01-19T18:17:29Z</time>
      </trkpt>
      <trkpt lat="45.03068" lon="4.10023">
        <ele>1021</ele>
        <time>2019-01-19T18:18:29Z</time>
      </trkpt>
      <trkpt lat="45.03042" lon="4.10007">
        <ele>1019</ele>
        <time>2019-01-19T18:19:29Z</time>
      </trkpt>
      <trkpt lat="45.02996" lon="4.09965">
        <ele>1012</ele>
        <time>2019-01-19T18:20:29Z</time>
      </trkpt>
      <trkpt lat="45.02979" lon="4.09954">
        <ele>1011</ele>
        <time>2019-01-19T18:21:29Z</time>
      </trkpt>
      <trkpt lat="45.02956" lon="4.09947">
        <ele>1011</ele>
        <time>2019-01-19T18:22:29Z</time>
      </trkpt>
      <trkpt lat="45.02942" lon="4.09939">
        <ele>1010</ele>
        <time>2019-01-19T18:23:29Z</time>
      </trkpt>
      <trkpt lat="45.02894" lon="4.09895">
        <ele>1007</ele>
        <time>2019-01-19T18:24:29Z</time>
      </trkpt>
      <trkpt lat="45.02844" lon="4.09835">
        <ele>1007</ele>
        <time>2019-01-19T18:25:29Z</time>
      </trkpt>
      <trkpt lat="45.02836" lon="4.09822">
        <ele>1006</ele>
        <time>2019-01-19T18:26:29Z</time>
      </trkpt>
      <trkpt lat="45.02827" lon="4.09803">
        <ele>1004</ele>
        <time>2019-01-19T18:27:29Z</time>
      </trkpt>
      <trkpt lat="45.02815" lon="4.09752">
        <ele>998</ele>
        <time>2019-01-19T18:28:29Z</time>
      </trkpt>
      <trkpt lat="45.02813" lon="4.09722">
        <ele>996</ele>
        <time>2019-01-19T18:29:29Z</time>
      </trkpt>
      <trkpt lat="45.02814" lon="4.09638">
        <ele>990</ele>
        <time>2019-01-19T18:30:29Z</time>
      </trkpt>
      <trkpt lat="45.02817" lon="4.09603">
        <ele>988</ele>
        <time>2019-01-19T18:31:29Z</time>
      </trkpt>
      <trkpt lat="45.0283" lon="4.09502">
        <ele>982</ele>
        <time>2019-01-19T18:32:29Z</time>
      </trkpt>
      <trkpt lat="45.02835" lon="4.09424">
        <ele>979</ele>
        <time>2019-01-19T18:33:29Z</time>
      </trkpt>
      <trkpt lat="45.02835" lon="4.09398">
        <ele>977</ele>
        <time>2019-01-19T18:34:29Z</time>
      </trkpt>
      <trkpt lat="45.02829" lon="4.0935">
        <ele>974</ele>
        <time>2019-01-19T18:35:29Z</time>
      </trkpt>
      <trkpt lat="45.02818" lon="4.09297">
        <ele>970</ele>
        <time>2019-01-19T18:36:29Z</time>
      </trkpt>
      <trkpt lat="45.0281" lon="4.09277">
        <ele>969</ele>
        <time>2019-01-19T18:37:29Z</time>
      </trkpt>
      <trkpt lat="45.02801" lon="4.09261">
        <ele>969</ele>
        <time>2019-01-19T18:38:29Z</time>
      </trkpt>
      <trkpt lat="45.02747" lon="4.09167">
        <ele>963</ele>
        <time>2019-01-19T18:39:29Z</time>
      </trkpt>
      <trkpt lat="45.02719" lon="4.09111">
        <ele>961</ele>
        <time>2019-01-19T18:40:29Z</time>
      </trkpt>
      <trkpt lat="45.02711" lon="4.09091">
        <ele>959</ele>
        <time>2019-01-19T18:41:29Z</time>
      </trkpt>
      <trkpt lat="45.02707" lon="4.09079">
        <ele>959</ele>
        <time>2019-01-19T18:42:29Z</time>
      </trkpt>
      <trkpt lat="45.02702" lon="4.09033">
        <ele>956</ele>
        <time>2019-01-19T18:43:29Z</time>
      </trkpt>
      <trkpt lat="45.02692" lon="4.09009">
        <ele>954</ele>
        <time>2019-01-19T18:44:29Z</time>
      </trkpt>
      <trkpt lat="45.02682" lon="4.08999">
        <ele>954</ele>
        <time>2019-01-19T18:45:29Z</time>
      </trkpt>
      <trkpt lat="45.02631" lon="4.08956">
        <ele>949</ele>
        <time>2019-01-19T18:46:29Z</time>
      </trkpt>
      <trkpt lat="45.02598" lon="4.08911">
        <ele>945</ele>
        <time>2019-01-19T18:47:29Z</time>
      </trkpt>
      <trkpt lat="45.0256" lon="4.08837">
        <ele>941</ele>
        <time>2019-01-19T18:48:29Z</time>
      </trkpt>
      <trkpt lat="45.02538" lon="4.08789">
        <ele>938</ele>
        <time>2019-01-19T18:49:29Z</time>
      </trkpt>
      <trkpt lat="45.02533" lon="4.08774">
        <ele>937</ele>
        <time>2019-01-19T18:50:29Z</time>
      </trkpt>
      <trkpt lat="45.02532" lon="4.08761">
        <ele>936</ele>
        <time>2019-01-19T18:51:29Z</time>
      </trkpt>
      <trkpt lat="45.02534" lon="4.08745">
        <ele>935</ele>
        <time>2019-01-19T18:52:29Z</time>
      </trkpt>
      <trkpt lat="45.02539" lon="4.0873">
        <ele>934</ele>
        <time>2019-01-19T18:53:29Z</time>
      </trkpt>
      <trkpt lat="45.02548" lon="4.08713">
        <ele>932</ele>
        <time>2019-01-19T18:54:29Z</time>
      </trkpt>
      <trkpt lat="45.02665" lon="4.08543">
        <ele>923</ele>
        <time>2019-01-19T18:55:29Z</time>
      </trkpt>
      <trkpt lat="45.02693" lon="4.08496">
        <ele>921</ele>
        <time>2019-01-19T18:56:29Z</time>
      </trkpt>
      <trkpt lat="45.02718" lon="4.08429">
        <ele>921</ele>
        <time>2019-01-19T18:57:29Z</time>
      </trkpt>
      <trkpt lat="45.0272" lon="4.08412">
        <ele>921</ele>
        <time>2019-01-19T18:58:29Z</time>
      </trkpt>
      <trkpt lat="45.02722" lon="4.08395">
        <ele>921</ele>
        <time>2019-01-19T18:59:29Z</time>
      </trkpt>
      <trkpt lat="45.02722" lon="4.0838">
        <ele>921</ele>
        <time>2019-01-19T19:00:29Z</time>
      </trkpt>
      <trkpt lat="45.0272" lon="4.08364">
        <ele>921</ele>
        <time>2019-01-19T19:01:29Z</time>
      </trkpt>
      <trkpt lat="45.02713" lon="4.08346">
        <ele>921</ele>
        <time>2019-01-19T19:02:29Z</time>
      </trkpt>
      <trkpt lat="45.02697" lon="4.08322">
        <ele>921</ele>
        <time>2019-01-19T19:03:29Z</time>
      </trkpt>
      <trkpt lat="45.02631" lon="4.08237">
        <ele>920</ele>
        <time>2019-01-19T19:04:29Z</time>
      </trkpt>
      <trkpt lat="45.02612" lon="4.08205">
        <ele>920</ele>
        <time>2019-01-19T19:05:29Z</time>
      </trkpt>
      <trkpt lat="45.02575" lon="4.08117">
        <ele>918</ele>
        <time>2019-01-19T19:06:29Z</time>
      </trkpt>
      <trkpt lat="45.02569" lon="4.08096">
        <ele>917</ele>
        <time>2019-01-19T19:07:29Z</time>
      </trkpt>
      <trkpt lat="45.02568" lon="4.0808">
        <ele>917</ele>
        <time>2019-01-19T19:08:29Z</time>
      </trkpt>
      <trkpt lat="45.02572" lon="4.08061">
        <ele>916</ele>
        <time>2019-01-19T19:09:29Z</time>
      </trkpt>
      <trkpt lat="45.02592" lon="4.08015">
        <ele>916</ele>
        <time>2019-01-19T19:10:29Z</time>
      </trkpt>
      <trkpt lat="45.02598" lon="4.07997">
        <ele>917</ele>
        <time>2019-01-19T19:11:29Z</time>
      </trkpt>
      <trkpt lat="45.02599" lon="4.07979">
        <ele>918</ele>
        <time>2019-01-19T19:12:29Z</time>
      </trkpt>
      <trkpt lat="45.02598" lon="4.07964">
        <ele>918</ele>
        <time>2019-01-19T19:13:29Z</time>
      </trkpt>
      <trkpt lat="45.02593" lon="4.07949">
        <ele>918</ele>
        <time>2019-01-19T19:14:29Z</time>
      </trkpt>
      <trkpt lat="45.02584" lon="4.07932">
        <ele>916</ele>
        <time>2019-01-19T19:15:29Z</time>
      </trkpt>
      <trkpt lat="45.02569" lon="4.07893">
        <ele>916</ele>
        <time>2019-01-19T19:16:29Z</time>
      </trkpt>
      <trkpt lat="45.02559" lon="4.07846">
        <ele>917</ele>
        <time>2019-01-19T19:17:29Z</time>
      </trkpt>
      <trkpt lat="45.02542" lon="4.07788">
        <ele>912</ele>
        <time>2019-01-19T19:18:29Z</time>
      </trkpt>
      <trkpt lat="45.0254" lon="4.0777">
        <ele>911</ele>
        <time>2019-01-19T19:19:29Z</time>
      </trkpt>
      <trkpt lat="45.02542" lon="4.07754">
        <ele>911</ele>
        <time>2019-01-19T19:20:29Z</time>
      </trkpt>
      <trkpt lat="45.02547" lon="4.07739">
        <ele>911</ele>
        <time>2019-01-19T19:21:29Z</time>
      </trkpt>
      <trkpt lat="45.02575" lon="4.07688">
        <ele>910</ele>
        <time>2019-01-19T19:22:29Z</time>
      </trkpt>
      <trkpt lat="45.02586" lon="4.07659">
        <ele>907</ele>
        <time>2019-01-19T19:23:29Z</time>
      </trkpt>
      <trkpt lat="45.02603" lon="4.07626">
        <ele>907</ele>
        <time>2019-01-19T19:24:29Z</time>
      </trkpt>
      <trkpt lat="45.02609" lon="4.07608">
        <ele>907</ele>
        <time>2019-01-19T19:25:29Z</time>
      </trkpt>
      <trkpt lat="45.02615" lon="4.07582">
        <ele>905</ele>
        <time>2019-01-19T19:26:29Z</time>
      </trkpt>
      <trkpt lat="45.02623" lon="4.07536">
        <ele>905</ele>
        <time>2019-01-19T19:27:29Z</time>
      </trkpt>
      <trkpt lat="45.02636" lon="4.07427">
        <ele>899</ele>
        <time>2019-01-19T19:28:29Z</time>
      </trkpt>
      <trkpt lat="45.02643" lon="4.07398">
        <ele>898</ele>
        <time>2019-01-19T19:29:29Z</time>
      </trkpt>
      <trkpt lat="45.02661" lon="4.07339">
        <ele>896</ele>
        <time>2019-01-19T19:30:29Z</time>
      </trkpt>
      <trkpt lat="45.02671" lon="4.07311">
        <ele>894</ele>
        <time>2019-01-19T19:31:29Z</time>
      </trkpt>
      <trkpt lat="45.02683" lon="4.07289">
        <ele>894</ele>
        <time>2019-01-19T19:32:29Z</time>
      </trkpt>
      <trkpt lat="45.02735" lon="4.07209">
        <ele>894</ele>
        <time>2019-01-19T19:33:29Z</time>
      </trkpt>
      <trkpt lat="45.02744" lon="4.07186">
        <ele>892</ele>
        <time>2019-01-19T19:34:29Z</time>
      </trkpt>
      <trkpt lat="45.02749" lon="4.07162">
        <ele>890</ele>
        <time>2019-01-19T19:35:29Z</time>
      </trkpt>
      <trkpt lat="45.02752" lon="4.07133">
        <ele>890</ele>
        <time>2019-01-19T19:36:29Z</time>
      </trkpt>
      <trkpt lat="45.02751" lon="4.07031">
        <ele>888</ele>
        <time>2019-01-19T19:37:29Z</time>
      </trkpt>
      <trkpt lat="45.02749" lon="4.06959">
        <ele>883</ele>
        <time>2019-01-19T19:38:29Z</time>
      </trkpt>
      <trkpt lat="45.0275" lon="4.06925">
        <ele>880</ele>
        <time>2019-01-19T19:39:29Z</time>
      </trkpt>
      <trkpt lat="45.02758" lon="4.06892">
        <ele>879</ele>
        <time>2019-01-19T19:40:29Z</time>
      </trkpt>
      <trkpt lat="45.02765" lon="4.06873">
        <ele>879</ele>
        <time>2019-01-19T19:41:29Z</time>
      </trkpt>
      <trkpt lat="45.02832" lon="4.0673">
        <ele>875</ele>
        <time>2019-01-19T19:42:29Z</time>
      </trkpt>
      <trkpt lat="45.02844" lon="4.06713">
        <ele>874</ele>
        <time>2019-01-19T19:43:29Z</time>
      </trkpt>
      <trkpt lat="45.02859" lon="4.06698">
        <ele>873</ele>
        <time>2019-01-19T19:44:29Z</time>
      </trkpt>
      <trkpt lat="45.0289" lon="4.06674">
        <ele>870</ele>
        <time>2019-01-19T19:45:29Z</time>
      </trkpt>
      <trkpt lat="45.02925" lon="4.06649">
        <ele>867</ele>
        <time>2019-01-19T19:46:29Z</time>
      </trkpt>
      <trkpt lat="45.03008" lon="4.06615">
        <ele>859</ele>
        <time>2019-01-19T19:47:29Z</time>
      </trkpt>
      <trkpt lat="45.03024" lon="4.06603">
        <ele>857</ele>
        <time>2019-01-19T19:48:29Z</time>
      </trkpt>
      <trkpt lat="45.03031" lon="4.06595">
        <ele>856</ele>
        <time>2019-01-19T19:49:29Z</time>
      </trkpt>
      <trkpt lat="45.03066" lon="4.06542">
        <ele>852</ele>
        <time>2019-01-19T19:50:29Z</time>
      </trkpt>
      <trkpt lat="45.03077" lon="4.06528">
        <ele>851</ele>
        <time>2019-01-19T19:51:29Z</time>
      </trkpt>
      <trkpt lat="45.0309" lon="4.06519">
        <ele>850</ele>
        <time>2019-01-19T19:52:29Z</time>
      </trkpt>
      <trkpt lat="45.03173" lon="4.06469">
        <ele>845</ele>
        <time>2019-01-19T19:53:29Z</time>
      </trkpt>
      <trkpt lat="45.03227" lon="4.0643">
        <ele>843</ele>
        <time>2019-01-19T19:54:29Z</time>
      </trkpt>
      <trkpt lat="45.0325" lon="4.06418">
        <ele>842</ele>
        <time>2019-01-19T19:55:29Z</time>
      </trkpt>
      <trkpt lat="45.03261" lon="4.0641">
        <ele>842</ele>
        <time>2019-01-19T19:56:29Z</time>
      </trkpt>
      <trkpt lat="45.03265" lon="4.06403">
        <ele>841</ele>
        <time>2019-01-19T19:57:29Z</time>
      </trkpt>
      <trkpt lat="45.03267" lon="4.06396">
        <ele>841</ele>
        <time>2019-01-19T19:58:29Z</time>
      </trkpt>
      <trkpt lat="45.0327" lon="4.06346">
        <ele>840</ele>
        <time>2019-01-19T19:59:29Z</time>
      </trkpt>
      <trkpt lat="45.03292" lon="4.06254">
        <ele>845</ele>
        <time>2019-01-19T20:00:29Z</time>
      </trkpt>
      <trkpt lat="45.03293" lon="4.06234">
        <ele>845</ele>
        <time>2019-01-19T20:01:29Z</time>
      </trkpt>
      <trkpt lat="45.03292" lon="4.06208">
        <ele>845</ele>
        <time>2019-01-19T20:02:29Z</time>
      </trkpt>
      <trkpt lat="45.03297" lon="4.06164">
        <ele>845</ele>
        <time>2019-01-19T20:03:29Z</time>
      </trkpt>
      <trkpt lat="45.03297" lon="4.06096">
        <ele>843</ele>
        <time>2019-01-19T20:04:29Z</time>
      </trkpt>
      <trkpt lat="45.03301" lon="4.06075">
        <ele>842</ele>
        <time>2019-01-19T20:05:29Z</time>
      </trkpt>
      <trkpt lat="45.0331" lon="4.06051">
        <ele>841</ele>
        <time>2019-01-19T20:06:29Z</time>
      </trkpt>
      <trkpt lat="45.03322" lon="4.06034">
        <ele>840</ele>
        <time>2019-01-19T20:07:29Z</time>
      </trkpt>
      <trkpt lat="45.03335" lon="4.06024">
        <ele>838</ele>
        <time>2019-01-19T20:08:29Z</time>
      </trkpt>
      <trkpt lat="45.03527" lon="4.05928">
        <ele>826</ele>
        <time>2019-01-19T20:09:29Z</time>
      </trkpt>
      <trkpt lat="45.03571" lon="4.05908">
        <ele>823</ele>
        <time>2019-01-19T20:10:29Z</time>
      </trkpt>
      <trkpt lat="45.03616" lon="4.05884">
        <ele>820</ele>
        <time>2019-01-19T20:11:29Z</time>
      </trkpt>
      <trkpt lat="45.03636" lon="4.05884">
        <ele>819</ele>
        <time>2019-01-19T20:12:29Z</time>
      </trkpt>
      <trkpt lat="45.03638" lon="4.05887">
        <ele>819</ele>
        <time>2019-01-19T20:13:29Z</time>
      </trkpt>
      <trkpt lat="45.03645" lon="4.05888">
        <ele>819</ele>
        <time>2019-01-19T20:14:29Z</time>
      </trkpt>
      <trkpt lat="45.03649" lon="4.05882">
        <ele>818</ele>
        <time>2019-01-19T20:15:29Z</time>
      </trkpt>
      <trkpt lat="45.0365" lon="4.05877">
        <ele>818</ele>
        <time>2019-01-19T20:16:29Z</time>
      </trkpt>
      <trkpt lat="45.03648" lon="4.05869">
        <ele>818</ele>
        <time>2019-01-19T20:17:29Z</time>
      </trkpt>
      <trkpt lat="45.03648" lon="4.05852">
        <ele>818</ele>
        <time>2019-01-19T20:18:29Z</time>
      </trkpt>
      <trkpt lat="45.03652" lon="4.05835">
        <ele>818</ele>
        <time>2019-01-19T20:19:29Z</time>
      </trkpt>
      <trkpt lat="45.03673" lon="4.05426">
        <ele>814</ele>
        <time>2019-01-19T20:20:29Z</time>
      </trkpt>
      <trkpt lat="45.03673" lon="4.05391">
        <ele>815</ele>
        <time>2019-01-19T20:21:29Z</time>
      </trkpt>
      <trkpt lat="45.03665" lon="4.05167">
        <ele>822</ele>
        <time>2019-01-19T20:22:29Z</time>
      </trkpt>
      <trkpt lat="45.03667" lon="4.05108">
        <ele>822</ele>
        <time>2019-01-19T20:23:29Z</time>
      </trkpt>
      <trkpt lat="45.03688" lon="4.04898">
        <ele>819</ele>
        <time>2019-01-19T20:24:29Z</time>
      </trkpt>
      <trkpt lat="45.03691" lon="4.04851">
        <ele>816</ele>
        <time>2019-01-19T20:25:29Z</time>
      </trkpt>
      <trkpt lat="45.03688" lon="4.04562">
        <ele>812</ele>
        <time>2019-01-19T20:26:29Z</time>
      </trkpt>
      <trkpt lat="45.03685" lon="4.04525">
        <ele>813</ele>
        <time>2019-01-19T20:27:29Z</time>
      </trkpt>
      <trkpt lat="45.03679" lon="4.04485">
        <ele>813</ele>
        <time>2019-01-19T20:28:29Z</time>
      </trkpt>
      <trkpt lat="45.03669" lon="4.04442">
        <ele>815</ele>
        <time>2019-01-19T20:29:29Z</time>
      </trkpt>
      <trkpt lat="45.03658" lon="4.04403">
        <ele>816</ele>
        <time>2019-01-19T20:30:29Z</time>
      </trkpt>
      <trkpt lat="45.03585" lon="4.04197">
        <ele>829</ele>
        <time>2019-01-19T20:31:29Z</time>
      </trkpt>
      <trkpt lat="45.03573" lon="4.04157">
        <ele>830</ele>
        <time>2019-01-19T20:32:29Z</time>
      </trkpt>
      <trkpt lat="45.03562" lon="4.04106">
        <ele>830</ele>
        <time>2019-01-19T20:33:29Z</time>
      </trkpt>
      <trkpt lat="45.03555" lon="4.04058">
        <ele>830</ele>
        <time>2019-01-19T20:34:29Z</time>
      </trkpt>
      <trkpt lat="45.03533" lon="4.03807">
        <ele>828</ele>
        <time>2019-01-19T20:35:29Z</time>
      </trkpt>
      <trkpt lat="45.03529" lon="4.0375">
        <ele>826</ele>
        <time>2019-01-19T20:36:29Z</time>
      </trkpt>
      <trkpt lat="45.03531" lon="4.03661">
        <ele>822</ele>
        <time>2019-01-19T20:37:29Z</time>
      </trkpt>
      <trkpt lat="45.03545" lon="4.03517">
        <ele>814</ele>
        <time>2019-01-19T20:38:29Z</time>
      </trkpt>
      <trkpt lat="45.03547" lon="4.03473">
        <ele>811</ele>
        <time>2019-01-19T20:39:29Z</time>
      </trkpt>
      <trkpt lat="45.03547" lon="4.03433">
        <ele>809</ele>
        <time>2019-01-19T20:40:29Z</time>
      </trkpt>
      <trkpt lat="45.03544" lon="4.034">
        <ele>807</ele>
        <time>2019-01-19T20:41:29Z</time>
      </trkpt>
      <trkpt lat="45.03532" lon="4.03345">
        <ele>805</ele>
        <time>2019-01-19T20:42:29Z</time>
      </trkpt>
      <trkpt lat="45.03522" lon="4.0331">
        <ele>805</ele>
        <time>2019-01-19T20:43:29Z</time>
      </trkpt>
      <trkpt lat="45.03508" lon="4.03279">
        <ele>806</ele>
        <time>2019-01-19T20:44:29Z</time>
      </trkpt>
      <trkpt lat="45.03495" lon="4.03254">
        <ele>805</ele>
        <time>2019-01-19T20:45:29Z</time>
      </trkpt>
      <trkpt lat="45.03462" lon="4.03209">
        <ele>800</ele>
        <time>2019-01-19T20:46:29Z</time>
      </trkpt>
      <trkpt lat="45.03441" lon="4.03184">
        <ele>798</ele>
        <time>2019-01-19T20:47:29Z</time>
      </trkpt>
      <trkpt lat="45.03412" lon="4.03161">
        <ele>796</ele>
        <time>2019-01-19T20:48:29Z</time>
      </trkpt>
      <trkpt lat="45.03376" lon="4.03141">
        <ele>794</ele>
        <time>2019-01-19T20:49:29Z</time>
      </trkpt>
      <trkpt lat="45.03264" lon="4.03099">
        <ele>792</ele>
        <time>2019-01-19T20:50:29Z</time>
      </trkpt>
      <trkpt lat="45.03245" lon="4.03089">
        <ele>791</ele>
        <time>2019-01-19T20:51:29Z</time>
      </trkpt>
      <trkpt lat="45.03229" lon="4.03077">
        <ele>790</ele>
        <time>2019-01-19T20:52:29Z</time>
      </trkpt>
      <trkpt lat="45.03104" lon="4.02968">
        <ele>783</ele>
        <time>2019-01-19T20:53:29Z</time>
      </trkpt>
      <trkpt lat="45.03081" lon="4.02944">
        <ele>782</ele>
        <time>2019-01-19T20:54:29Z</time>
      </trkpt>
      <trkpt lat="45.03064" lon="4.02922">
        <ele>782</ele>
        <time>2019-01-19T20:55:29Z</time>
      </trkpt>
      <trkpt lat="45.03047" lon="4.02892">
        <ele>782</ele>
        <time>2019-01-19T20:56:29Z</time>
      </trkpt>
      <trkpt lat="45.03032" lon="4.02861">
        <ele>781</ele>
        <time>2019-01-19T20:57:29Z</time>
      </trkpt>
      <trkpt lat="45.02994" lon="4.02768">
        <ele>772</ele>
        <time>2019-01-19T20:58:29Z</time>
      </trkpt>
      <trkpt lat="45.02932" lon="4.02608">
        <ele>768</ele>
        <time>2019-01-19T20:59:29Z</time>
      </trkpt>
      <trkpt lat="45.02912" lon="4.02564">
        <ele>765</ele>
        <time>2019-01-19T21:00:29Z</time>
      </trkpt>
      <trkpt lat="45.0282" lon="4.02378">
        <ele>754</ele>
        <time>2019-01-19T21:01:29Z</time>
      </trkpt>
      <trkpt lat="45.028" lon="4.02343">
        <ele>753</ele>
        <time>2019-01-19T21:02:29Z</time>
      </trkpt>
      <trkpt lat="45.02781" lon="4.02312">
        <ele>752</ele>
        <time>2019-01-19T21:03:29Z</time>
      </trkpt>
      <trkpt lat="45.02703" lon="4.02215">
        <ele>747</ele>
        <time>2019-01-19T21:04:29Z</time>
      </trkpt>
      <trkpt lat="45.02686" lon="4.02186">
        <ele>744</ele>
        <time>2019-01-19T21:05:29Z</time>
      </trkpt>
      <trkpt lat="45.0267" lon="4.02158">
        <ele>741</ele>
        <time>2019-01-19T21:06:29Z</time>
      </trkpt>
      <trkpt lat="45.02657" lon="4.02124">
        <ele>741</ele>
        <time>2019-01-19T21:07:29Z</time>
      </trkpt>
      <trkpt lat="45.02649" lon="4.02097">
        <ele>740</ele>
        <time>2019-01-19T21:08:29Z</time>
      </trkpt>
      <trkpt lat="45.02643" lon="4.02069">
        <ele>740</ele>
        <time>2019-01-19T21:09:29Z</time>
      </trkpt>
      <trkpt lat="45.02637" lon="4.0203">
        <ele>740</ele>
        <time>2019-01-19T21:10:29Z</time>
      </trkpt>
      <trkpt lat="45.02635" lon="4.01991">
        <ele>741</ele>
        <time>2019-01-19T21:11:29Z</time>
      </trkpt>
      <trkpt lat="45.02636" lon="4.01956">
        <ele>741</ele>
        <time>2019-01-19T21:12:29Z</time>
      </trkpt>
      <trkpt lat="45.02641" lon="4.01914">
        <ele>741</ele>
        <time>2019-01-19T21:13:29Z</time>
      </trkpt>
      <trkpt lat="45.02674" lon="4.01747">
        <ele>740</ele>
        <time>2019-01-19T21:14:29Z</time>
      </trkpt>
      <trkpt lat="45.02678" lon="4.01707">
        <ele>739</ele>
        <time>2019-01-19T21:15:29Z</time>
      </trkpt>
      <trkpt lat="45.02677" lon="4.01667">
        <ele>737</ele>
        <time>2019-01-19T21:16:29Z</time>
      </trkpt>
      <trkpt lat="45.02665" lon="4.01539">
        <ele>730</ele>
        <time>2019-01-19T21:17:29Z</time>
      </trkpt>
      <trkpt lat="45.02665" lon="4.0151">
        <ele>729</ele>
        <time>2019-01-19T21:18:29Z</time>
      </trkpt>
      <trkpt lat="45.02667" lon="4.01475">
        <ele>727</ele>
        <time>2019-01-19T21:19:29Z</time>
      </trkpt>
      <trkpt lat="45.02673" lon="4.01433">
        <ele>726</ele>
        <time>2019-01-19T21:20:29Z</time>
      </trkpt>
      <trkpt lat="45.02682" lon="4.01395">
        <ele>726</ele>
        <time>2019-01-19T21:21:29Z</time>
      </trkpt>
      <trkpt lat="45.02736" lon="4.01195">
        <ele>722</ele>
        <time>2019-01-19T21:22:29Z</time>
      </trkpt>
      <trkpt lat="45.0274" lon="4.01147">
        <ele>720</ele>
        <time>2019-01-19T21:23:29Z</time>
      </trkpt>
      <trkpt lat="45.02741" lon="4.01111">
        <ele>720</ele>
        <time>2019-01-19T21:24:29Z</time>
      </trkpt>
      <trkpt lat="45.02739" lon="4.0108">
        <ele>719</ele>
        <time>2019-01-19T21:25:29Z</time>
      </trkpt>
      <trkpt lat="45.02733" lon="4.01041">
        <ele>718</ele>
        <time>2019-01-19T21:26:29Z</time>
      </trkpt>
      <trkpt lat="45.02724" lon="4.01003">
        <ele>718</ele>
        <time>2019-01-19T21:27:29Z</time>
      </trkpt>
      <trkpt lat="45.0271" lon="4.00965">
        <ele>718</ele>
        <time>2019-01-19T21:28:29Z</time>
      </trkpt>
      <trkpt lat="45.02635" lon="4.00813">
        <ele>718</ele>
        <time>2019-01-19T21:29:29Z</time>
      </trkpt>
      <trkpt lat="45.02643" lon="4.00803">
        <ele>719</ele>
        <time>2019-01-19T21:30:29Z</time>
      </trkpt>
      <trkpt lat="45.02643" lon="4.0079">
        <ele>720</ele>
        <time>2019-01-19T21:31:29Z</time>
      </trkpt>
      <trkpt lat="45.0264" lon="4.00773">
        <ele>721</ele>
        <time>2019-01-19T21:32:29Z</time>
      </trkpt>
      <trkpt lat="45.02634" lon="4.00767">
        <ele>721</ele>
        <time>2019-01-19T21:33:29Z</time>
      </trkpt>
      <trkpt lat="45.02895" lon="4.00142">
        <ele>737</ele>
        <time>2019-01-19T21:34:29Z</time>
      </trkpt>
      <trkpt lat="45.02918" lon="4.00082">
        <ele>738</ele>
        <time>2019-01-19T21:35:29Z</time>
      </trkpt>
      <trkpt lat="45.02937" lon="4.00025">
        <ele>738</ele>
        <time>2019-01-19T21:36:29Z</time>
      </trkpt>
      <trkpt lat="45.02975" lon="3.99887">
        <ele>737</ele>
        <time>2019-01-19T21:37:29Z</time>
      </trkpt>
      <trkpt lat="45.02997" lon="3.99819">
        <ele>736</ele>
        <time>2019-01-19T21:38:29Z</time>
      </trkpt>
      <trkpt lat="45.03019" lon="3.99768">
        <ele>738</ele>
        <time>2019-01-19T21:39:29Z</time>
      </trkpt>
      <trkpt lat="45.03314" lon="3.99256">
        <ele>709</ele>
        <time>2019-01-19T21:40:29Z</time>
      </trkpt>
      <trkpt lat="45.03306" lon="3.99248">
        <ele>709</ele>
        <time>2019-01-19T21:41:29Z</time>
      </trkpt>
      <trkpt lat="45.03301" lon="3.99239">
        <ele>709</ele>
        <time>2019-01-19T21:42:29Z</time>
      </trkpt>
      <trkpt lat="45.03298" lon="3.99225">
        <ele>709</ele>
        <time>2019-01-19T21:43:29Z</time>
      </trkpt>
      <trkpt lat="45.03299" lon="3.99215">
        <ele>708</ele>
        <time>2019-01-19T21:44:29Z</time>
      </trkpt>
      <trkpt lat="45.03303" lon="3.99198">
        <ele>707</ele>
        <time>2019-01-19T21:45:29Z</time>
      </trkpt>
      <trkpt lat="45.03483" lon="3.98757">
        <ele>707</ele>
        <time>2019-01-19T21:46:29Z</time>
      </trkpt>
      <trkpt lat="45.03512" lon="3.98679">
        <ele>705</ele>
        <time>2019-01-19T21:47:29Z</time>
      </trkpt>
      <trkpt lat="45.03515" lon="3.98665">
        <ele>705</ele>
        <time>2019-01-19T21:48:29Z</time>
      </trkpt>
      <trkpt lat="45.03515" lon="3.98653">
        <ele>704</ele>
        <time>2019-01-19T21:49:29Z</time>
      </trkpt>
      <trkpt lat="45.03511" lon="3.98623">
        <ele>702</ele>
        <time>2019-01-19T21:50:29Z</time>
      </trkpt>
      <trkpt lat="45.03512" lon="3.98609">
        <ele>702</ele>
        <time>2019-01-19T21:51:29Z</time>
      </trkpt>
      <trkpt lat="45.03516" lon="3.98597">
        <ele>701</ele>
        <time>2019-01-19T21:52:29Z</time>
      </trkpt>
      <trkpt lat="45.03523" lon="3.98589">
        <ele>701</ele>
        <time>2019-01-19T21:53:29Z</time>
      </trkpt>
      <trkpt lat="45.03544" lon="3.98574">
        <ele>700</ele>
        <time>2019-01-19T21:54:29Z</time>
      </trkpt>
      <trkpt lat="45.0354" lon="3.98565">
        <ele>699</ele>
        <time>2019-01-19T21:55:29Z</time>
      </trkpt>
      <trkpt lat="45.0354" lon="3.98558">
        <ele>699</ele>
        <time>2019-01-19T21:56:29Z</time>
      </trkpt>
      <trkpt lat="45.03577" lon="3.98365">
        <ele>685</ele>
        <time>2019-01-19T21:57:29Z</time>
      </trkpt>
      <trkpt lat="45.03607" lon="3.98225">
        <ele>679</ele>
        <time>2019-01-19T21:58:29Z</time>
      </trkpt>
      <trkpt lat="45.03626" lon="3.98144">
        <ele>675</ele>
        <time>2019-01-19T21:59:29Z</time>
      </trkpt>
      <trkpt lat="45.03628" lon="3.98123">
        <ele>674</ele>
        <time>2019-01-19T22:00:29Z</time>
      </trkpt>
      <trkpt lat="45.03798" lon="3.97287">
        <ele>667</ele>
        <time>2019-01-19T22:01:29Z</time>
      </trkpt>
      <trkpt lat="45.03802" lon="3.97257">
        <ele>667</ele>
        <time>2019-01-19T22:02:29Z</time>
      </trkpt>
      <trkpt lat="45.03819" lon="3.97185">
        <ele>668</ele>
        <time>2019-01-19T22:03:29Z</time>
      </trkpt>
      <trkpt lat="45.03838" lon="3.97098">
        <ele>669</ele>
        <time>2019-01-19T22:04:29Z</time>
      </trkpt>
      <trkpt lat="45.03851" lon="3.97032">
        <ele>671</ele>
        <time>2019-01-19T22:05:29Z</time>
      </trkpt>
      <trkpt lat="45.03862" lon="3.97015">
        <ele>671</ele>
        <time>2019-01-19T22:06:29Z</time>
      </trkpt>
      <trkpt lat="45.03869" lon="3.97018">
        <ele>670</ele>
        <time>2019-01-19T22:07:29Z</time>
      </trkpt>
      <trkpt lat="45.03874" lon="3.97015">
        <ele>670</ele>
        <time>2019-01-19T22:08:29Z</time>
      </trkpt>
      <trkpt lat="45.03877" lon="3.9701">
        <ele>670</ele>
        <time>2019-01-19T22:09:29Z</time>
      </trkpt>
      <trkpt lat="45.03877" lon="3.97003">
        <ele>670</ele>
        <time>2019-01-19T22:10:29Z</time>
      </trkpt>
      <trkpt lat="45.03876" lon="3.96998">
        <ele>671</ele>
        <time>2019-01-19T22:11:29Z</time>
      </trkpt>
      <trkpt lat="45.03873" lon="3.96994">
        <ele>671</ele>
        <time>2019-01-19T22:12:29Z</time>
      </trkpt>
      <trkpt lat="45.03867" lon="3.96992">
        <ele>671</ele>
        <time>2019-01-19T22:13:29Z</time>
      </trkpt>
      <trkpt lat="45.03864" lon="3.96982">
        <ele>672</ele>
        <time>2019-01-19T22:14:29Z</time>
      </trkpt>
      <trkpt lat="45.03864" lon="3.96969">
        <ele>673</ele>
        <time>2019-01-19T22:15:29Z</time>
      </trkpt>
      <trkpt lat="45.03879" lon="3.96931">
        <ele>673</ele>
        <time>2019-01-19T22:16:29Z</time>
      </trkpt>
      <trkpt lat="45.03885" lon="3.96905">
        <ele>673</ele>
        <time>2019-01-19T22:17:29Z</time>
      </trkpt>
      <trkpt lat="45.03896" lon="3.96867">
        <ele>673</ele>
        <time>2019-01-19T22:18:29Z</time>
      </trkpt>
      <trkpt lat="45.03909" lon="3.96836">
        <ele>672</ele>
        <time>2019-01-19T22:19:29Z</time>
      </trkpt>
      <trkpt lat="45.03963" lon="3.96763">
        <ele>672</ele>
        <time>2019-01-19T22:20:29Z</time>
      </trkpt>
      <trkpt lat="45.04023" lon="3.96659">
        <ele>672</ele>
        <time>2019-01-19T22:21:29Z</time>
      </trkpt>
      <trkpt lat="45.04051" lon="3.96626">
        <ele>673</ele>
        <time>2019-01-19T22:22:29Z</time>
      </trkpt>
      <trkpt lat="45.04071" lon="3.96608">
        <ele>673</ele>
        <time>2019-01-19T22:23:29Z</time>
      </trkpt>
      <trkpt lat="45.04127" lon="3.96566">
        <ele>674</ele>
        <time>2019-01-19T22:24:29Z</time>
      </trkpt>
      <trkpt lat="45.04196" lon="3.96527">
        <ele>674</ele>
        <time>2019-01-19T22:25:29Z</time>
      </trkpt>
      <trkpt lat="45.04243" lon="3.96516">
        <ele>674</ele>
        <time>2019-01-19T22:26:29Z</time>
      </trkpt>
      <trkpt lat="45.04245" lon="3.96521">
        <ele>673</ele>
        <time>2019-01-19T22:27:29Z</time>
      </trkpt>
      <trkpt lat="45.04252" lon="3.96525">
        <ele>673</ele>
        <time>2019-01-19T22:28:29Z</time>
      </trkpt>
      <trkpt lat="45.04257" lon="3.96525">
        <ele>673</ele>
        <time>2019-01-19T22:29:29Z</time>
      </trkpt>
      <trkpt lat="45.04262" lon="3.96522">
        <ele>673</ele>
        <time>2019-01-19T22:30:29Z</time>
      </trkpt>
      <trkpt lat="45.04266" lon="3.96512">
        <ele>673</ele>
        <time>2019-01-19T22:31:29Z</time>
      </trkpt>
      <trkpt lat="45.04266" lon="3.96506">
        <ele>673</ele>
        <time>2019-01-19T22:32:29Z</time>
      </trkpt>
      <trkpt lat="45.04263" lon="3.96496">
        <ele>673</ele>
        <time>2019-01-19T22:33:29Z</time>
      </trkpt>
      <trkpt lat="45.0426" lon="3.96492">
        <ele>674</ele>
        <time>2019-01-19T22:34:29Z</time>
      </trkpt>
      <trkpt lat="45.04262" lon="3.96481">
        <ele>674</ele>
        <time>2019-01-19T22:35:29Z</time>
      </trkpt>
      <trkpt lat="45.04356" lon="3.96326">
        <ele>674</ele>
        <time>2019-01-19T22:36:29Z</time>
      </trkpt>
      <trkpt lat="45.04413" lon="3.96226">
        <ele>676</ele>
        <time>2019-01-19T22:37:29Z</time>
      </trkpt>
      <trkpt lat="45.04643" lon="3.95777">
        <ele>676</ele>
        <time>2019-01-19T22:38:29Z</time>
      </trkpt>
      <trkpt lat="45.04676" lon="3.95729">
        <ele>676</ele>
        <time>2019-01-19T22:39:29Z</time>
      </trkpt>
      <trkpt lat="45.04686" lon="3.95719">
        <ele>676</ele>
        <time>2019-01-19T22:40:29Z</time>
      </trkpt>
      <trkpt lat="45.04694" lon="3.95714">
        <ele>676</ele>
        <time>2019-01-19T22:41:29Z</time>
      </trkpt>
      <trkpt lat="45.04712" lon="3.9572">
        <ele>675</ele>
        <time>2019-01-19T22:42:29Z</time>
      </trkpt>
      <trkpt lat="45.04745" lon="3.95645">
        <ele>676</ele>
        <time>2019-01-19T22:43:29Z</time>
      </trkpt>
      <trkpt lat="45.04801" lon="3.95562">
        <ele>678</ele>
        <time>2019-01-19T22:44:29Z</time>
      </trkpt>
      <trkpt lat="45.04867" lon="3.95487">
        <ele>682</ele>
        <time>2019-01-19T22:45:29Z</time>
      </trkpt>
      <trkpt lat="45.04931" lon="3.95409">
        <ele>687</ele>
        <time>2019-01-19T22:46:29Z</time>
      </trkpt>
      <trkpt lat="45.05058" lon="3.9525">
        <ele>693</ele>
        <time>2019-01-19T22:47:29Z</time>
      </trkpt>
      <trkpt lat="45.05274" lon="3.94969">
        <ele>697</ele>
        <time>2019-01-19T22:48:29Z</time>
      </trkpt>
      <trkpt lat="45.05302" lon="3.94929">
        <ele>697</ele>
        <time>2019-01-19T22:49:29Z</time>
      </trkpt>
      <trkpt lat="45.05317" lon="3.949">
        <ele>696</ele>
        <time>2019-01-19T22:50:29Z</time>
      </trkpt>
      <trkpt lat="45.0533" lon="3.9487">
        <ele>697</ele>
        <time>2019-01-19T22:51:29Z</time>
      </trkpt>
      <trkpt lat="45.05367" lon="3.94754">
        <ele>701</ele>
        <time>2019-01-19T22:52:29Z</time>
      </trkpt>
      <trkpt lat="45.05404" lon="3.94651">
        <ele>701</ele>
        <time>2019-01-19T22:53:29Z</time>
      </trkpt>
      <trkpt lat="45.05413" lon="3.9463">
        <ele>701</ele>
        <time>2019-01-19T22:54:29Z</time>
      </trkpt>
      <trkpt lat="45.0542" lon="3.94606">
        <ele>701</ele>
        <time>2019-01-19T22:55:29Z</time>
      </trkpt>
      <trkpt lat="45.05428" lon="3.94572">
        <ele>700</ele>
        <time>2019-01-19T22:56:29Z</time>
      </trkpt>
      <trkpt lat="45.05442" lon="3.94478">
        <ele>695</ele>
        <time>2019-01-19T22:57:29Z</time>
      </trkpt>
      <trkpt lat="45.05456" lon="3.94448">
        <ele>693</ele>
        <time>2019-01-19T22:58:29Z</time>
      </trkpt>
      <trkpt lat="45.05466" lon="3.94434">
        <ele>692</ele>
        <time>2019-01-19T22:59:29Z</time>
      </trkpt>
      <trkpt lat="45.05486" lon="3.94422">
        <ele>691</ele>
        <time>2019-01-19T23:00:29Z</time>
      </trkpt>
      <trkpt lat="45.055" lon="3.94419">
        <ele>691</ele>
        <time>2019-01-19T23:01:29Z</time>
      </trkpt>
      <trkpt lat="45.05507" lon="3.94412">
        <ele>691</ele>
        <time>2019-01-19T23:02:29Z</time>
      </trkpt>
      <trkpt lat="45.05508" lon="3.94405">
        <ele>690</ele>
        <time>2019-01-19T23:03:29Z</time>
      </trkpt>
      <trkpt lat="45.05509" lon="3.94399">
        <ele>690</ele>
        <time>2019-01-19T23:04:29Z</time>
      </trkpt>
      <trkpt lat="45.05506" lon="3.9439">
        <ele>689</ele>
        <time>2019-01-19T23:05:29Z</time>
      </trkpt>
      <trkpt lat="45.05503" lon="3.94387">
        <ele>689</ele>
        <time>2019-01-19T23:06:29Z</time>
      </trkpt>
      <trkpt lat="45.05481" lon="3.94379">
        <ele>688</ele>
        <time>2019-01-19T23:07:29Z</time>
      </trkpt>
      <trkpt lat="45.05464" lon="3.94376">
        <ele>687</ele>
        <time>2019-01-19T23:08:29Z</time>
      </trkpt>
      <trkpt lat="45.05458" lon="3.94373">
        <ele>687</ele>
        <time>2019-01-19T23:09:29Z</time>
      </trkpt>
      <trkpt lat="45.05419" lon="3.94334">
        <ele>682</ele>
        <time>2019-01-19T23:10:29Z</time>
      </trkpt>
      <trkpt lat="45.05073" lon="3.94011">
        <ele>673</ele>
        <time>2019-01-19T23:11:29Z</time>
      </trkpt>
      <trkpt lat="45.05046" lon="3.9398">
        <ele>670</ele>
        <time>2019-01-19T23:12:29Z</time>
      </trkpt>
      <trkpt lat="45.05032" lon="3.93959">
        <ele>669</ele>
        <time>2019-01-19T23:13:29Z</time>
      </trkpt>
      <trkpt lat="45.04979" lon="3.93851">
        <ele>666</ele>
        <time>2019-01-19T23:14:29Z</time>
      </trkpt>
      <trkpt lat="45.04969" lon="3.93826">
        <ele>665</ele>
        <time>2019-01-19T23:15:29Z</time>
      </trkpt>
      <trkpt lat="45.04951" lon="3.93767">
        <ele>663</ele>
        <time>2019-01-19T23:16:29Z</time>
      </trkpt>
      <trkpt lat="45.04945" lon="3.93753">
        <ele>662</ele>
        <time>2019-01-19T23:17:29Z</time>
      </trkpt>
      <trkpt lat="45.04938" lon="3.93741">
        <ele>660</ele>
        <time>2019-01-19T23:18:29Z</time>
      </trkpt>
      <trkpt lat="45.04921" lon="3.93721">
        <ele>655</ele>
        <time>2019-01-19T23:19:29Z</time>
      </trkpt>
      <trkpt lat="45.04917" lon="3.93712">
        <ele>655</ele>
        <time>2019-01-19T23:20:29Z</time>
      </trkpt>
      <trkpt lat="45.04911" lon="3.93696">
        <ele>655</ele>
        <time>2019-01-19T23:21:29Z</time>
      </trkpt>
      <trkpt lat="45.04902" lon="3.93651">
        <ele>657</ele>
        <time>2019-01-19T23:22:29Z</time>
      </trkpt>
      <trkpt lat="45.04828" lon="3.93445">
        <ele>643</ele>
        <time>2019-01-19T23:23:29Z</time>
      </trkpt>
      <trkpt lat="45.04799" lon="3.93389">
        <ele>636</ele>
        <time>2019-01-19T23:24:29Z</time>
      </trkpt>
      <trkpt lat="45.04793" lon="3.93364">
        <ele>634</ele>
        <time>2019-01-19T23:25:29Z</time>
      </trkpt>
      <trkpt lat="45.04788" lon="3.9334">
        <ele>633</ele>
        <time>2019-01-19T23:26:29Z</time>
      </trkpt>
      <trkpt lat="45.04778" lon="3.93227">
        <ele>624</ele>
        <time>2019-01-19T23:27:29Z</time>
      </trkpt>
      <trkpt lat="45.04769" lon="3.9311">
        <ele>616</ele>
        <time>2019-01-19T23:28:29Z</time>
      </trkpt>
      <trkpt lat="45.04769" lon="3.93092">
        <ele>616</ele>
        <time>2019-01-19T23:29:29Z</time>
      </trkpt>
      <trkpt lat="45.0477" lon="3.93068">
        <ele>616</ele>
        <time>2019-01-19T23:30:29Z</time>
      </trkpt>
      <trkpt lat="45.04783" lon="3.92924">
        <ele>614</ele>
        <time>2019-01-19T23:31:29Z</time>
      </trkpt>
      <trkpt lat="45.0478" lon="3.92906">
        <ele>613</ele>
        <time>2019-01-19T23:32:29Z</time>
      </trkpt>
      <trkpt lat="45.04783" lon="3.92891">
        <ele>612</ele>
        <time>2019-01-19T23:33:29Z</time>
      </trkpt>
      <trkpt lat="45.04796" lon="3.9277">
        <ele>607</ele>
        <time>2019-01-19T23:34:29Z</time>
      </trkpt>
      <trkpt lat="45.048" lon="3.92766">
        <ele>607</ele>
        <time>2019-01-19T23:35:29Z</time>
      </trkpt>
      <trkpt lat="45.048" lon="3.92762">
        <ele>607</ele>
        <time>2019-01-19T23:36:29Z</time>
      </trkpt>
      <trkpt lat="45.04799" lon="3.9276">
        <ele>607</ele>
        <time>2019-01-19T23:37:29Z</time>
      </trkpt>
      <trkpt lat="45.04794" lon="3.9276">
        <ele>607</ele>
        <time>2019-01-19T23:38:29Z</time>
      </trkpt>
      <trkpt lat="45.04783" lon="3.92746">
        <ele>606</ele>
        <time>2019-01-19T23:39:29Z</time>
      </trkpt>
      <trkpt lat="45.04701" lon="3.9266">
        <ele>605</ele>
        <time>2019-01-19T23:40:29Z</time>
      </trkpt>
      <trkpt lat="45.047" lon="3.92651">
        <ele>605</ele>
        <time>2019-01-19T23:41:29Z</time>
      </trkpt>
      <trkpt lat="45.04698" lon="3.9265">
        <ele>605</ele>
        <time>2019-01-19T23:42:29Z</time>
      </trkpt>
      <trkpt lat="45.04702" lon="3.92633">
        <ele>605</ele>
        <time>2019-01-19T23:43:29Z</time>
      </trkpt>
      <trkpt lat="45.04793" lon="3.9235">
        <ele>603</ele>
        <time>2019-01-19T23:44:29Z</time>
      </trkpt>
      <trkpt lat="45.04796" lon="3.92341">
        <ele>603</ele>
        <time>2019-01-19T23:45:29Z</time>
      </trkpt>
      <trkpt lat="45.04815" lon="3.92331">
        <ele>603</ele>
        <time>2019-01-19T23:46:29Z</time>
      </trkpt>
      <trkpt lat="45.04818" lon="3.92326">
        <ele>603</ele>
        <time>2019-01-19T23:47:29Z</time>
      </trkpt>
      <trkpt lat="45.0483" lon="3.92292">
        <ele>603</ele>
        <time>2019-01-19T23:48:29Z</time>
      </trkpt>
      <trkpt lat="45.04831" lon="3.92278">
        <ele>604</ele>
        <time>2019-01-19T23:49:29Z</time>
      </trkpt>
      <trkpt lat="45.04829" lon="3.92252">
        <ele>604</ele>
        <time>2019-01-19T23:50:29Z</time>
      </trkpt>
      <trkpt lat="45.0483" lon="3.92239">
        <ele>604</ele>
        <time>2019-01-19T23:51:29Z</time>
      </trkpt>
      <trkpt lat="45.04833" lon="3.92227">
        <ele>604</ele>
        <time>2019-01-19T23:52:29Z</time>
      </trkpt>
      <trkpt lat="45.04919" lon="3.91964">
        <ele>605</ele>
        <time>2019-01-19T23:53:29Z</time>
      </trkpt>
      <trkpt lat="45.04967" lon="3.9182">
        <ele>604</ele>
        <time>2019-01-19T23:54:29Z</time>
      </trkpt>
      <trkpt lat="45.04974" lon="3.91794">
        <ele>604</ele>
        <time>2019-01-19T23:55:29Z</time>
      </trkpt>
      <trkpt lat="45.0498" lon="3.91747">
        <ele>605</ele>
        <time>2019-01-19T23:56:29Z</time>
      </trkpt>
      <trkpt lat="45.04984" lon="3.91692">
        <ele>606</ele>
        <time>2019-01-19T23:57:29Z</time>
      </trkpt>
      <trkpt lat="45.04985" lon="3.91571">
        <ele>607</ele>
        <time>2019-01-19T23:58:29Z</time>
      </trkpt>
      <trkpt lat="45.04977" lon="3.91477">
        <ele>607</ele>
        <time>2019-01-19T23:59:29Z</time>
      </trkpt>
      <trkpt lat="45.04976" lon="3.91457">
        <ele>608</ele>
        <time>2019-01-20T00:00:29Z</time>
      </trkpt>
      <trkpt lat="45.04979" lon="3.91424">
        <ele>608</ele>
        <time>2019-01-20T00:01:29Z</time>
      </trkpt>
      <trkpt lat="45.04981" lon="3.91409">
        <ele>608</ele>
        <time>2019-01-20T00:02:29Z</time>
      </trkpt>
      <trkpt lat="45.04987" lon="3.91401">
        <ele>608</ele>
        <time>2019-01-20T00:03:29Z</time>
      </trkpt>
      <trkpt lat="45.04992" lon="3.91388">
        <ele>608</ele>
        <time>2019-01-20T00:04:29Z</time>
      </trkpt>
      <trkpt lat="45.04993" lon="3.91376">
        <ele>608</ele>
        <time>2019-01-20T00:05:29Z</time>
      </trkpt>
      <trkpt lat="45.04991" lon="3.91362">
        <ele>607</ele>
        <time>2019-01-20T00:06:29Z</time>
      </trkpt>
      <trkpt lat="45.04987" lon="3.91352">
        <ele>607</ele>
        <time>2019-01-20T00:07:29Z</time>
      </trkpt>
      <trkpt lat="45.04982" lon="3.91346">
        <ele>608</ele>
        <time>2019-01-20T00:08:29Z</time>
      </trkpt>
      <trkpt lat="45.04976" lon="3.91341">
        <ele>608</ele>
        <time>2019-01-20T00:09:29Z</time>
      </trkpt>
      <trkpt lat="45.04969" lon="3.91327">
        <ele>608</ele>
        <time>2019-01-20T00:10:29Z</time>
      </trkpt>
      <trkpt lat="45.04959" lon="3.91298">
        <ele>609</ele>
        <time>2019-01-20T00:11:29Z</time>
      </trkpt>
      <trkpt lat="45.04956" lon="3.91276">
        <ele>609</ele>
        <time>2019-01-20T00:12:29Z</time>
      </trkpt>
      <trkpt lat="45.04954" lon="3.91239">
        <ele>610</ele>
        <time>2019-01-20T00:13:29Z</time>
      </trkpt>
      <trkpt lat="45.04969" lon="3.9102">
        <ele>618</ele>
        <time>2019-01-20T00:14:29Z</time>
      </trkpt>
      <trkpt lat="45.04976" lon="3.90878">
        <ele>627</ele>
        <time>2019-01-20T00:15:29Z</time>
      </trkpt>
      <trkpt lat="45.04975" lon="3.90834">
        <ele>630</ele>
        <time>2019-01-20T00:16:29Z</time>
      </trkpt>
      <trkpt lat="45.04958" lon="3.90687">
        <ele>639</ele>
        <time>2019-01-20T00:17:29Z</time>
      </trkpt>
      <trkpt lat="45.04958" lon="3.90664">
        <ele>640</ele>
        <time>2019-01-20T00:18:29Z</time>
      </trkpt>
      <trkpt lat="45.04988" lon="3.90425">
        <ele>646</ele>
        <time>2019-01-20T00:19:29Z</time>
      </trkpt>
      <trkpt lat="45.04992" lon="3.9041">
        <ele>646</ele>
        <time>2019-01-20T00:20:29Z</time>
      </trkpt>
      <trkpt lat="45.04996" lon="3.904">
        <ele>646</ele>
        <time>2019-01-20T00:21:29Z</time>
      </trkpt>
      <trkpt lat="45.05" lon="3.90397">
        <ele>645</ele>
        <time>2019-01-20T00:22:29Z</time>
      </trkpt>
      <trkpt lat="45.05003" lon="3.9039">
        <ele>645</ele>
        <time>2019-01-20T00:23:29Z</time>
      </trkpt>
      <trkpt lat="45.05004" lon="3.90383">
        <ele>645</ele>
        <time>2019-01-20T00:24:29Z</time>
      </trkpt>
      <trkpt lat="45.05002" lon="3.90375">
        <ele>646</ele>
        <time>2019-01-20T00:25:29Z</time>
      </trkpt>
      <trkpt lat="45.04997" lon="3.9037">
        <ele>646</ele>
        <time>2019-01-20T00:26:29Z</time>
      </trkpt>
      <trkpt lat="45.04995" lon="3.90361">
        <ele>647</ele>
        <time>2019-01-20T00:27:29Z</time>
      </trkpt>
      <trkpt lat="45.04992" lon="3.9034">
        <ele>648</ele>
        <time>2019-01-20T00:28:29Z</time>
      </trkpt>
      <trkpt lat="45.04991" lon="3.90291">
        <ele>647</ele>
        <time>2019-01-20T00:29:29Z</time>
      </trkpt>
      <trkpt lat="45.05003" lon="3.90249">
        <ele>642</ele>
        <time>2019-01-20T00:30:29Z</time>
      </trkpt>
      <trkpt lat="45.05001" lon="3.90239">
        <ele>642</ele>
        <time>2019-01-20T00:31:29Z</time>
      </trkpt>
      <trkpt lat="45.04994" lon="3.90229">
        <ele>643</ele>
        <time>2019-01-20T00:32:29Z</time>
      </trkpt>
      <trkpt lat="45.04985" lon="3.90208">
        <ele>645</ele>
        <time>2019-01-20T00:33:29Z</time>
      </trkpt>
      <trkpt lat="45.0497" lon="3.90156">
        <ele>645</ele>
        <time>2019-01-20T00:34:29Z</time>
      </trkpt>
      <trkpt lat="45.04872" lon="3.89912">
        <ele>637</ele>
        <time>2019-01-20T00:35:29Z</time>
      </trkpt>
      <trkpt lat="45.04864" lon="3.89891">
        <ele>637</ele>
        <time>2019-01-20T00:36:29Z</time>
      </trkpt>
      <trkpt lat="45.04873" lon="3.8987">
        <ele>634</ele>
        <time>2019-01-20T00:37:29Z</time>
      </trkpt>
      <trkpt lat="45.04879" lon="3.89834">
        <ele>630</ele>
        <time>2019-01-20T00:38:29Z</time>
      </trkpt>
      <trkpt lat="45.04878" lon="3.89825">
        <ele>629</ele>
        <time>2019-01-20T00:39:29Z</time>
      </trkpt>
      <trkpt lat="45.04876" lon="3.89818">
        <ele>629</ele>
        <time>2019-01-20T00:40:29Z</time>
      </trkpt>
      <trkpt lat="45.04872" lon="3.8981">
        <ele>628</ele>
        <time>2019-01-20T00:41:29Z</time>
      </trkpt>
      <trkpt lat="45.04866" lon="3.89805">
        <ele>628</ele>
        <time>2019-01-20T00:42:29Z</time>
      </trkpt>
      <trkpt lat="45.04819" lon="3.89779">
        <ele>629</ele>
        <time>2019-01-20T00:43:29Z</time>
      </trkpt>
      <trkpt lat="45.04801" lon="3.89767">
        <ele>629</ele>
        <time>2019-01-20T00:44:29Z</time>
      </trkpt>
      <trkpt lat="45.04778" lon="3.89746">
        <ele>627</ele>
        <time>2019-01-20T00:45:29Z</time>
      </trkpt>
      <trkpt lat="45.04759" lon="3.89724">
        <ele>626</ele>
        <time>2019-01-20T00:46:29Z</time>
      </trkpt>
      <trkpt lat="45.04745" lon="3.89699">
        <ele>624</ele>
        <time>2019-01-20T00:47:29Z</time>
      </trkpt>
      <trkpt lat="45.04714" lon="3.89608">
        <ele>619</ele>
        <time>2019-01-20T00:48:29Z</time>
      </trkpt>
      <trkpt lat="45.04711" lon="3.89593">
        <ele>618</ele>
        <time>2019-01-20T00:49:29Z</time>
      </trkpt>
      <trkpt lat="45.04702" lon="3.89406">
        <ele>614</ele>
        <time>2019-01-20T00:50:29Z</time>
      </trkpt>
      <trkpt lat="45.04696" lon="3.89377">
        <ele>614</ele>
        <time>2019-01-20T00:51:29Z</time>
      </trkpt>
      <trkpt lat="45.04663" lon="3.89258">
        <ele>614</ele>
        <time>2019-01-20T00:52:29Z</time>
      </trkpt>
      <trkpt lat="45.04658" lon="3.89233">
        <ele>614</ele>
        <time>2019-01-20T00:53:29Z</time>
      </trkpt>
      <trkpt lat="45.04658" lon="3.89221">
        <ele>615</ele>
        <time>2019-01-20T00:54:29Z</time>
      </trkpt>
      <trkpt lat="45.04662" lon="3.89212">
        <ele>615</ele>
        <time>2019-01-20T00:55:29Z</time>
      </trkpt>
      <trkpt lat="45.04642" lon="3.89193">
        <ele>615</ele>
        <time>2019-01-20T00:56:29Z</time>
      </trkpt>
      <trkpt lat="45.04618" lon="3.89136">
        <ele>617</ele>
        <time>2019-01-20T00:57:29Z</time>
      </trkpt>
      <trkpt lat="45.04606" lon="3.89115">
        <ele>618</ele>
        <time>2019-01-20T00:58:29Z</time>
      </trkpt>
      <trkpt lat="45.04565" lon="3.89066">
        <ele>619</ele>
        <time>2019-01-20T00:59:29Z</time>
      </trkpt>
      <trkpt lat="45.04511" lon="3.89009">
        <ele>622</ele>
        <time>2019-01-20T01:00:29Z</time>
      </trkpt>
      <trkpt lat="45.04466" lon="3.88976">
        <ele>623</ele>
        <time>2019-01-20T01:01:29Z</time>
      </trkpt>
      <trkpt lat="45.04481" lon="3.88938">
        <ele>626</ele>
        <time>2019-01-20T01:02:29Z</time>
      </trkpt>
      <trkpt lat="45.04505" lon="3.88895">
        <ele>631</ele>
        <time>2019-01-20T01:03:29Z</time>
      </trkpt>
      <trkpt lat="45.04566" lon="3.88773">
        <ele>655</ele>
        <time>2019-01-20T01:04:29Z</time>
      </trkpt>
      <trkpt lat="45.04567" lon="3.88766">
        <ele>656</ele>
        <time>2019-01-20T01:05:29Z</time>
      </trkpt>
      <trkpt lat="45.04579" lon="3.88762">
        <ele>658</ele>
        <time>2019-01-20T01:06:29Z</time>
      </trkpt>
      <trkpt lat="45.04564" lon="3.88736">
        <ele>661</ele>
        <time>2019-01-20T01:07:29Z</time>
      </trkpt>
      <trkpt lat="45.04545" lon="3.88696">
        <ele>665</ele>
        <time>2019-01-20T01:08:29Z</time>
      </trkpt>
      <trkpt lat="45.04541" lon="3.88682">
        <ele>666</ele>
        <time>2019-01-20T01:09:29Z</time>
      </trkpt>
      <trkpt lat="45.04527" lon="3.88686">
        <ele>663</ele>
        <time>2019-01-20T01:10:29Z</time>
      </trkpt>
      <trkpt lat="45.04515" lon="3.88687">
        <ele>661</ele>
        <time>2019-01-20T01:11:29Z</time>
      </trkpt>
      <trkpt lat="45.04513" lon="3.88667">
        <ele>663</ele>
        <time>2019-01-20T01:12:29Z</time>
      </trkpt>
      <trkpt lat="45.04507" lon="3.88653">
        <ele>664</ele>
        <time>2019-01-20T01:13:29Z</time>
      </trkpt>
      <trkpt lat="45.04503" lon="3.88633">
        <ele>665</ele>
        <time>2019-01-20T01:14:29Z</time>
      </trkpt>
    </trkseg>
  </trk>
</gpx>